<?xml version="1.0" encoding="UTF-8" standalone="no" ?>
<gpx xmlns="http://www.topografix.com/GPX/1/1" xmlns:xsi="http://www.w3.org/2001/XMLSchema-instance" xsi:schemaLocation="http://www.topografix.com/GPX/1/1 http://www.topografix.com/GPX/1/1/gpx.xsd" version="1.1" creator="VisuGPX - https://www.visugpx.com">
  <metadata>
    <name>Trizay : Arnoult20km +Lac12km</name>
    <desc><![CDATA[ORuNddu7me gnerando]]></desc>
  </metadata>
  <wpt lat="45.88205" lon="-0.91306">
    <ele>12</ele>
    <name><![CDATA[Pique-nique]]></name>
    <desc><![CDATA[Pique-nique commun]]></desc>
    <type><![CDATA[picnic]]></type>
  </wpt>
  <trk>
    <name><![CDATA[Randonnée en boucle de l'arnoult 12 km_2]]></name>
    <extensions>
      <line xmlns="http://www.topografix.com/GPX/gpx_style/0/2">
        <color>0000ff</color>
        <width>4</width>
      </line>
    </extensions>
    <trkseg>
      <trkpt lat="45.88313" lon="-0.89875">
        <ele>12.30667</ele>
        <time>2025-05-06T11:16:19.000Z</time>
        <extensions>
          <visugpx:TrkExtension xmlns:visugpx="https://www.visugpx.com/editgpx/">
            <visugpx:node>1</visugpx:node>
            </visugpx:TrkExtension>
        </extensions>
      </trkpt>
      <trkpt lat="45.88264" lon="-0.89898">
        <ele>12.50957</ele>
        <time>2025-05-06T11:17:10.537Z</time>
      </trkpt>
      <trkpt lat="45.88241" lon="-0.89919">
        <ele>12.09467</ele>
        <time>2025-05-06T11:17:36.233Z</time>
      </trkpt>
      <trkpt lat="45.882" lon="-0.89947">
        <ele>11.13034</ele>
        <time>2025-05-06T11:18:18.269Z</time>
      </trkpt>
      <trkpt lat="45.88161" lon="-0.89959">
        <ele>10.3012</ele>
        <time>2025-05-06T11:18:55.251Z</time>
      </trkpt>
      <trkpt lat="45.88142" lon="-0.89955">
        <ele>9.99064</ele>
        <time>2025-05-06T11:19:13.305Z</time>
      </trkpt>
      <trkpt lat="45.88126" lon="-0.89946">
        <ele>9.54523</ele>
        <time>2025-05-06T11:19:28.994Z</time>
      </trkpt>
      <trkpt lat="45.88044" lon="-0.89939">
        <ele>6.77261</ele>
        <time>2025-05-06T11:20:42.277Z</time>
      </trkpt>
      <trkpt lat="45.88034" lon="-0.89935">
        <ele>6.99329</ele>
        <time>2025-05-06T11:20:53.233Z</time>
      </trkpt>
      <trkpt lat="45.88004" lon="-0.89943">
        <ele>7.60148</ele>
        <time>2025-05-06T11:21:25.301Z</time>
      </trkpt>
      <trkpt lat="45.87976" lon="-0.89945">
        <ele>9.32497</ele>
        <time>2025-05-06T11:21:59.009Z</time>
      </trkpt>
      <trkpt lat="45.87959" lon="-0.8996">
        <ele>10.9397</ele>
        <time>2025-05-06T11:22:24.621Z</time>
      </trkpt>
      <trkpt lat="45.87937" lon="-0.90096">
        <ele>11.26943</ele>
        <time>2025-05-06T11:24:01.636Z</time>
      </trkpt>
      <trkpt lat="45.87934" lon="-0.9011">
        <ele>11.45196</ele>
        <time>2025-05-06T11:24:12.285Z</time>
      </trkpt>
      <trkpt lat="45.87928" lon="-0.90117">
        <ele>11.71476</ele>
        <time>2025-05-06T11:24:20.781Z</time>
      </trkpt>
      <trkpt lat="45.87883" lon="-0.90136">
        <ele>12.56647</ele>
        <time>2025-05-06T11:25:09.801Z</time>
      </trkpt>
      <trkpt lat="45.8784" lon="-0.90144">
        <ele>12.89006</ele>
        <time>2025-05-06T11:25:53.626Z</time>
      </trkpt>
      <trkpt lat="45.87783" lon="-0.90163">
        <ele>12.53827</ele>
        <time>2025-05-06T11:26:50.365Z</time>
      </trkpt>
      <trkpt lat="45.87641" lon="-0.90231">
        <ele>9.39443</ele>
        <time>2025-05-06T11:29:09.064Z</time>
      </trkpt>
      <trkpt lat="45.8761" lon="-0.90238">
        <ele>9.10023</ele>
        <time>2025-05-06T11:29:39.182Z</time>
      </trkpt>
      <trkpt lat="45.87598" lon="-0.90249">
        <ele>9.88379</ele>
        <time>2025-05-06T11:29:55.938Z</time>
      </trkpt>
      <trkpt lat="45.87583" lon="-0.90275">
        <ele>10.50328</ele>
        <time>2025-05-06T11:30:21.153Z</time>
      </trkpt>
      <trkpt lat="45.87564" lon="-0.90295">
        <ele>10.88151</ele>
        <time>2025-05-06T11:30:45.610Z</time>
      </trkpt>
      <trkpt lat="45.87544" lon="-0.90326">
        <ele>11.5582</ele>
        <time>2025-05-06T11:31:16.836Z</time>
      </trkpt>
      <trkpt lat="45.87525" lon="-0.90345">
        <ele>11.82592</ele>
        <time>2025-05-06T11:31:40.537Z</time>
      </trkpt>
      <trkpt lat="45.87498" lon="-0.90357">
        <ele>11.80243</ele>
        <time>2025-05-06T11:32:08.381Z</time>
      </trkpt>
      <trkpt lat="45.87476" lon="-0.90363">
        <ele>11.6264</ele>
        <time>2025-05-06T11:32:29.972Z</time>
      </trkpt>
      <trkpt lat="45.87419" lon="-0.90359">
        <ele>11.43279</ele>
        <time>2025-05-06T11:33:25.753Z</time>
      </trkpt>
      <trkpt lat="45.87379" lon="-0.90352">
        <ele>11.53485</ele>
        <time>2025-05-06T11:34:05.864Z</time>
      </trkpt>
      <trkpt lat="45.87342" lon="-0.90336">
        <ele>11.68282</ele>
        <time>2025-05-06T11:34:44.482Z</time>
      </trkpt>
      <trkpt lat="45.87322" lon="-0.90335">
        <ele>11.93374</ele>
        <time>2025-05-06T11:35:05.032Z</time>
      </trkpt>
      <trkpt lat="45.87314" lon="-0.90345">
        <ele>11.96007</ele>
        <time>2025-05-06T11:35:15.587Z</time>
      </trkpt>
      <trkpt lat="45.87308" lon="-0.90368">
        <ele>11.93259</ele>
        <time>2025-05-06T11:35:32.394Z</time>
      </trkpt>
      <trkpt lat="45.87305" lon="-0.90438">
        <ele>12.36295</ele>
        <time>2025-05-06T11:36:21.957Z</time>
      </trkpt>
      <trkpt lat="45.87299" lon="-0.90447">
        <ele>12.55378</ele>
        <time>2025-05-06T11:36:31.134Z</time>
      </trkpt>
      <trkpt lat="45.87286" lon="-0.90454">
        <ele>12.75072</ele>
        <time>2025-05-06T11:36:45.464Z</time>
      </trkpt>
      <trkpt lat="45.87194" lon="-0.90476">
        <ele>14.29762</ele>
        <time>2025-05-06T11:38:22.459Z</time>
      </trkpt>
      <trkpt lat="45.87177" lon="-0.90471">
        <ele>14.57925</ele>
        <time>2025-05-06T11:38:40.485Z</time>
      </trkpt>
      <trkpt lat="45.87141" lon="-0.90448">
        <ele>14.75673</ele>
        <time>2025-05-06T11:39:19.946Z</time>
      </trkpt>
      <trkpt lat="45.8712" lon="-0.90445">
        <ele>14.88911</ele>
        <time>2025-05-06T11:39:41.198Z</time>
      </trkpt>
      <trkpt lat="45.87077" lon="-0.90429">
        <ele>15.65259</ele>
        <time>2025-05-06T11:40:27.480Z</time>
      </trkpt>
      <trkpt lat="45.87002" lon="-0.9039">
        <ele>17.40758</ele>
        <time>2025-05-06T11:41:51.862Z</time>
      </trkpt>
      <trkpt lat="45.86942" lon="-0.90413">
        <ele>17.79976</ele>
        <time>2025-05-06T11:42:54.407Z</time>
      </trkpt>
      <trkpt lat="45.86903" lon="-0.90412">
        <ele>17.54312</ele>
        <time>2025-05-06T11:43:32.163Z</time>
      </trkpt>
      <trkpt lat="45.86835" lon="-0.90433">
        <ele>16.19632</ele>
        <time>2025-05-06T11:44:36.932Z</time>
      </trkpt>
      <trkpt lat="45.86808" lon="-0.9046">
        <ele>16.44174</ele>
        <time>2025-05-06T11:45:10.185Z</time>
      </trkpt>
      <trkpt lat="45.8679" lon="-0.90485">
        <ele>16.82798</ele>
        <time>2025-05-06T11:45:36.132Z</time>
      </trkpt>
      <trkpt lat="45.86766" lon="-0.90496">
        <ele>17.06034</ele>
        <time>2025-05-06T11:46:01.735Z</time>
      </trkpt>
      <trkpt lat="45.86728" lon="-0.90537">
        <ele>16.72996</ele>
        <time>2025-05-06T11:46:47.690Z</time>
      </trkpt>
      <trkpt lat="45.86682" lon="-0.90554">
        <ele>14.53947</ele>
        <time>2025-05-06T11:47:28.739Z</time>
      </trkpt>
      <trkpt lat="45.86637" lon="-0.90531">
        <ele>14.11371</ele>
        <time>2025-05-06T11:48:14.646Z</time>
      </trkpt>
      <trkpt lat="45.8662" lon="-0.90517">
        <ele>13.81284</ele>
        <time>2025-05-06T11:48:33.116Z</time>
      </trkpt>
      <trkpt lat="45.86608" lon="-0.905">
        <ele>14.47746</ele>
        <time>2025-05-06T11:48:51.971Z</time>
      </trkpt>
      <trkpt lat="45.86568" lon="-0.90478">
        <ele>14.13517</ele>
        <time>2025-05-06T11:49:33.253Z</time>
      </trkpt>
      <trkpt lat="45.86558" lon="-0.90466">
        <ele>15.20443</ele>
        <time>2025-05-06T11:49:50.046Z</time>
      </trkpt>
      <trkpt lat="45.86536" lon="-0.90459">
        <ele>14.87522</ele>
        <time>2025-05-06T11:50:11.332Z</time>
      </trkpt>
      <trkpt lat="45.86523" lon="-0.9045">
        <ele>14.87805</ele>
        <time>2025-05-06T11:50:25.595Z</time>
      </trkpt>
      <trkpt lat="45.86508" lon="-0.90433">
        <ele>15.72176</ele>
        <time>2025-05-06T11:50:47.298Z</time>
      </trkpt>
      <trkpt lat="45.86497" lon="-0.90409">
        <ele>17.43335</ele>
        <time>2025-05-06T11:51:13.391Z</time>
      </trkpt>
      <trkpt lat="45.86483" lon="-0.90394">
        <ele>18.04277</ele>
        <time>2025-05-06T11:51:32.644Z</time>
      </trkpt>
      <trkpt lat="45.8646" lon="-0.90347">
        <ele>19.00455</ele>
        <time>2025-05-06T11:52:15.237Z</time>
      </trkpt>
      <trkpt lat="45.86431" lon="-0.90317">
        <ele>19.39657</ele>
        <time>2025-05-06T11:52:51.758Z</time>
      </trkpt>
      <trkpt lat="45.86417" lon="-0.90292">
        <ele>19.87734</ele>
        <time>2025-05-06T11:53:15.355Z</time>
      </trkpt>
      <trkpt lat="45.86406" lon="-0.90234">
        <ele>21.0417</ele>
        <time>2025-05-06T11:54:00.464Z</time>
      </trkpt>
      <trkpt lat="45.86391" lon="-0.9021">
        <ele>21.37713</ele>
        <time>2025-05-06T11:54:23.698Z</time>
      </trkpt>
      <trkpt lat="45.86388" lon="-0.90193">
        <ele>21.4808</ele>
        <time>2025-05-06T11:54:36.081Z</time>
      </trkpt>
      <trkpt lat="45.86382" lon="-0.90189">
        <ele>21.49346</ele>
        <time>2025-05-06T11:54:42.653Z</time>
      </trkpt>
      <trkpt lat="45.86383" lon="-0.90166">
        <ele>21.5214</ele>
        <time>2025-05-06T11:54:58.588Z</time>
      </trkpt>
      <trkpt lat="45.86376" lon="-0.90159">
        <ele>21.50963</ele>
        <time>2025-05-06T11:55:06.977Z</time>
      </trkpt>
      <trkpt lat="45.8637" lon="-0.90118">
        <ele>21.38378</ele>
        <time>2025-05-06T11:55:35.414Z</time>
      </trkpt>
      <trkpt lat="45.86375" lon="-0.90104">
        <ele>21.34444</ele>
        <time>2025-05-06T11:55:46.117Z</time>
      </trkpt>
      <trkpt lat="45.86362" lon="-0.90087">
        <ele>21.28961</ele>
        <time>2025-05-06T11:56:03.317Z</time>
      </trkpt>
      <trkpt lat="45.8636" lon="-0.90066">
        <ele>21.16359</ele>
        <time>2025-05-06T11:56:17.519Z</time>
      </trkpt>
      <trkpt lat="45.86355" lon="-0.90055">
        <ele>21.10307</ele>
        <time>2025-05-06T11:56:26.372Z</time>
      </trkpt>
      <trkpt lat="45.8636" lon="-0.9002">
        <ele>20.98706</ele>
        <time>2025-05-06T11:56:50.597Z</time>
      </trkpt>
      <trkpt lat="45.86357" lon="-0.89992">
        <ele>20.7885</ele>
        <time>2025-05-06T11:57:09.491Z</time>
      </trkpt>
      <trkpt lat="45.86345" lon="-0.89954">
        <ele>20.78435</ele>
        <time>2025-05-06T11:57:38.176Z</time>
      </trkpt>
      <trkpt lat="45.86353" lon="-0.89932">
        <ele>20.78202</ele>
        <time>2025-05-06T11:57:55.240Z</time>
      </trkpt>
      <trkpt lat="45.86349" lon="-0.89897">
        <ele>20.88014</ele>
        <time>2025-05-06T11:58:19.935Z</time>
      </trkpt>
      <trkpt lat="45.86338" lon="-0.89869">
        <ele>20.94049</ele>
        <time>2025-05-06T11:58:42.231Z</time>
      </trkpt>
      <trkpt lat="45.86338" lon="-0.89831">
        <ele>21.01039</ele>
        <time>2025-05-06T11:59:08.581Z</time>
      </trkpt>
      <trkpt lat="45.86323" lon="-0.89801">
        <ele>20.846</ele>
        <time>2025-05-06T11:59:33.490Z</time>
      </trkpt>
      <trkpt lat="45.86322" lon="-0.89753">
        <ele>20.42407</ele>
        <time>2025-05-06T12:00:05.271Z</time>
      </trkpt>
      <trkpt lat="45.86311" lon="-0.89705">
        <ele>19.60841</ele>
        <time>2025-05-06T12:00:37.666Z</time>
      </trkpt>
      <trkpt lat="45.86311" lon="-0.89688">
        <ele>19.14219</ele>
        <time>2025-05-06T12:00:48.054Z</time>
      </trkpt>
      <trkpt lat="45.86304" lon="-0.8966">
        <ele>18.28475</ele>
        <time>2025-05-06T12:01:06.126Z</time>
      </trkpt>
      <trkpt lat="45.86285" lon="-0.89617">
        <ele>17.31526</ele>
        <time>2025-05-06T12:01:38.371Z</time>
      </trkpt>
      <trkpt lat="45.86269" lon="-0.89611">
        <ele>17.03081</ele>
        <time>2025-05-06T12:01:53.870Z</time>
      </trkpt>
      <trkpt lat="45.86254" lon="-0.89613">
        <ele>16.92107</ele>
        <time>2025-05-06T12:02:08.420Z</time>
      </trkpt>
      <trkpt lat="45.8622" lon="-0.89605">
        <ele>16.29157</ele>
        <time>2025-05-06T12:02:40.609Z</time>
      </trkpt>
      <trkpt lat="45.86201" lon="-0.89596">
        <ele>15.71987</ele>
        <time>2025-05-06T12:02:58.733Z</time>
      </trkpt>
      <trkpt lat="45.86138" lon="-0.89611">
        <ele>15.20671</ele>
        <time>2025-05-06T12:04:00.273Z</time>
      </trkpt>
      <trkpt lat="45.86112" lon="-0.89637">
        <ele>15.10103</ele>
        <time>2025-05-06T12:04:31.248Z</time>
      </trkpt>
      <trkpt lat="45.86106" lon="-0.89656">
        <ele>15.59393</ele>
        <time>2025-05-06T12:04:47.212Z</time>
      </trkpt>
      <trkpt lat="45.86092" lon="-0.89665">
        <ele>15.74798</ele>
        <time>2025-05-06T12:05:02.841Z</time>
      </trkpt>
      <trkpt lat="45.86069" lon="-0.89705">
        <ele>17.97959</ele>
        <time>2025-05-06T12:05:46.319Z</time>
      </trkpt>
      <trkpt lat="45.86063" lon="-0.89708">
        <ele>18.16806</ele>
        <time>2025-05-06T12:05:53.206Z</time>
      </trkpt>
      <trkpt lat="45.86048" lon="-0.89736">
        <ele>18.9795</ele>
        <time>2025-05-06T12:06:20.158Z</time>
      </trkpt>
      <trkpt lat="45.86044" lon="-0.89783">
        <ele>19.71042</ele>
        <time>2025-05-06T12:06:55.060Z</time>
      </trkpt>
      <trkpt lat="45.86048" lon="-0.89826">
        <ele>20.08182</ele>
        <time>2025-05-06T12:07:26.059Z</time>
      </trkpt>
      <trkpt lat="45.86077" lon="-0.89899">
        <ele>20.40047</ele>
        <time>2025-05-06T12:08:24.846Z</time>
      </trkpt>
      <trkpt lat="45.86098" lon="-0.89936">
        <ele>20.61467</ele>
        <time>2025-05-06T12:08:58.338Z</time>
      </trkpt>
      <trkpt lat="45.8612" lon="-0.90015">
        <ele>21.11044</ele>
        <time>2025-05-06T12:09:58.394Z</time>
      </trkpt>
      <trkpt lat="45.8612" lon="-0.90034">
        <ele>20.92819</ele>
        <time>2025-05-06T12:10:10.925Z</time>
      </trkpt>
      <trkpt lat="45.86111" lon="-0.90055">
        <ele>20.48984</ele>
        <time>2025-05-06T12:10:26.623Z</time>
      </trkpt>
      <trkpt lat="45.86106" lon="-0.90083">
        <ele>19.93678</ele>
        <time>2025-05-06T12:10:44.918Z</time>
      </trkpt>
      <trkpt lat="45.86106" lon="-0.9015">
        <ele>18.97453</ele>
        <time>2025-05-06T12:11:28.203Z</time>
      </trkpt>
      <trkpt lat="45.86088" lon="-0.90214">
        <ele>17.17427</ele>
        <time>2025-05-06T12:12:10.620Z</time>
      </trkpt>
      <trkpt lat="45.86083" lon="-0.90295">
        <ele>11.80631</ele>
        <time>2025-05-06T12:12:59.560Z</time>
      </trkpt>
      <trkpt lat="45.86083" lon="-0.90322">
        <ele>11.1777</ele>
        <time>2025-05-06T12:13:16.351Z</time>
      </trkpt>
      <trkpt lat="45.86096" lon="-0.90406">
        <ele>11.83577</ele>
        <time>2025-05-06T12:14:17.587Z</time>
      </trkpt>
      <trkpt lat="45.8611" lon="-0.90465">
        <ele>12.79442</ele>
        <time>2025-05-06T12:15:03.519Z</time>
      </trkpt>
      <trkpt lat="45.86115" lon="-0.90538">
        <ele>10.5154</ele>
        <time>2025-05-06T12:15:47.665Z</time>
      </trkpt>
      <trkpt lat="45.86162" lon="-0.90523">
        <ele>11.9232</ele>
        <time>2025-05-06T12:16:39.784Z</time>
      </trkpt>
      <trkpt lat="45.86181" lon="-0.90509">
        <ele>11.91994</ele>
        <time>2025-05-06T12:17:00.867Z</time>
      </trkpt>
      <trkpt lat="45.86229" lon="-0.90484">
        <ele>11.7285</ele>
        <time>2025-05-06T12:17:50.720Z</time>
      </trkpt>
      <trkpt lat="45.8624" lon="-0.90469">
        <ele>12.18278</ele>
        <time>2025-05-06T12:18:07.179Z</time>
      </trkpt>
      <trkpt lat="45.8628" lon="-0.90448">
        <ele>12.71384</ele>
        <time>2025-05-06T12:18:50.903Z</time>
      </trkpt>
      <trkpt lat="45.86313" lon="-0.90442">
        <ele>13.21886</ele>
        <time>2025-05-06T12:19:25.343Z</time>
      </trkpt>
      <trkpt lat="45.8634" lon="-0.90422">
        <ele>15.09772</ele>
        <time>2025-05-06T12:20:01.917Z</time>
      </trkpt>
      <trkpt lat="45.86327" lon="-0.90448">
        <ele>13.27898</ele>
        <time>2025-05-06T12:20:21.180Z</time>
      </trkpt>
      <trkpt lat="45.86329" lon="-0.90458">
        <ele>12.9738</ele>
        <time>2025-05-06T12:20:27.487Z</time>
      </trkpt>
      <trkpt lat="45.86325" lon="-0.90486">
        <ele>11.26047</ele>
        <time>2025-05-06T12:20:44.689Z</time>
      </trkpt>
      <trkpt lat="45.86328" lon="-0.90493">
        <ele>10.70913</ele>
        <time>2025-05-06T12:20:49.635Z</time>
      </trkpt>
      <trkpt lat="45.86348" lon="-0.90511">
        <ele>8.02862</ele>
        <time>2025-05-06T12:21:10.034Z</time>
      </trkpt>
      <trkpt lat="45.86373" lon="-0.9051">
        <ele>7.89862</ele>
        <time>2025-05-06T12:21:34.345Z</time>
      </trkpt>
      <trkpt lat="45.86378" lon="-0.90513">
        <ele>7.44061</ele>
        <time>2025-05-06T12:21:39.028Z</time>
      </trkpt>
      <trkpt lat="45.86398" lon="-0.90508">
        <ele>6.6737</ele>
        <time>2025-05-06T12:21:56.925Z</time>
      </trkpt>
      <trkpt lat="45.8641" lon="-0.905">
        <ele>6.5767</ele>
        <time>2025-05-06T12:22:09.702Z</time>
      </trkpt>
      <trkpt lat="45.86435" lon="-0.90498">
        <ele>7.41036</ele>
        <time>2025-05-06T12:22:37.160Z</time>
      </trkpt>
      <trkpt lat="45.86457" lon="-0.9051">
        <ele>5.06338</ele>
        <time>2025-05-06T12:22:57.499Z</time>
      </trkpt>
      <trkpt lat="45.86477" lon="-0.90514">
        <ele>6.06274</ele>
        <time>2025-05-06T12:23:20.837Z</time>
      </trkpt>
      <trkpt lat="45.86486" lon="-0.90525">
        <ele>5.72106</ele>
        <time>2025-05-06T12:23:31.533Z</time>
      </trkpt>
      <trkpt lat="45.86506" lon="-0.90532">
        <ele>6.38926</ele>
        <time>2025-05-06T12:23:54.047Z</time>
      </trkpt>
      <trkpt lat="45.86519" lon="-0.9053">
        <ele>7.25917</ele>
        <time>2025-05-06T12:24:10.035Z</time>
      </trkpt>
      <trkpt lat="45.86541" lon="-0.90538">
        <ele>6.70233</ele>
        <time>2025-05-06T12:24:30.843Z</time>
      </trkpt>
      <trkpt lat="45.86552" lon="-0.90536">
        <ele>7.837</ele>
        <time>2025-05-06T12:24:46.168Z</time>
      </trkpt>
      <trkpt lat="45.86556" lon="-0.90528">
        <ele>9.1955</ele>
        <time>2025-05-06T12:24:59.684Z</time>
      </trkpt>
      <trkpt lat="45.86549" lon="-0.90521">
        <ele>9.44252</ele>
        <time>2025-05-06T12:25:08.909Z</time>
      </trkpt>
      <trkpt lat="45.86546" lon="-0.90531">
        <ele>8.0187</ele>
        <time>2025-05-06T12:25:15.462Z</time>
      </trkpt>
      <trkpt lat="45.86542" lon="-0.90532">
        <ele>7.67269</ele>
        <time>2025-05-06T12:25:18.971Z</time>
      </trkpt>
      <trkpt lat="45.8654" lon="-0.90528">
        <ele>8.22241</ele>
        <time>2025-05-06T12:25:24.818Z</time>
      </trkpt>
      <trkpt lat="45.86524" lon="-0.90539">
        <ele>5.58423</ele>
        <time>2025-05-06T12:25:40.149Z</time>
      </trkpt>
      <trkpt lat="45.86519" lon="-0.90539">
        <ele>5.41161</ele>
        <time>2025-05-06T12:25:44.599Z</time>
      </trkpt>
      <trkpt lat="45.86514" lon="-0.90527">
        <ele>7.66286</ele>
        <time>2025-05-06T12:26:06.486Z</time>
      </trkpt>
      <trkpt lat="45.86501" lon="-0.90532">
        <ele>6.13579</ele>
        <time>2025-05-06T12:26:18.117Z</time>
      </trkpt>
      <trkpt lat="45.8649" lon="-0.90588">
        <ele>3.68626</ele>
        <time>2025-05-06T12:26:53.133Z</time>
      </trkpt>
      <trkpt lat="45.86452" lon="-0.907">
        <ele>3.95321</ele>
        <time>2025-05-06T12:28:19.638Z</time>
      </trkpt>
      <trkpt lat="45.86429" lon="-0.90799">
        <ele>3.68588</ele>
        <time>2025-05-06T12:29:30.612Z</time>
      </trkpt>
      <trkpt lat="45.86403" lon="-0.90869">
        <ele>3.73929</ele>
        <time>2025-05-06T12:30:25.340Z</time>
      </trkpt>
      <trkpt lat="45.86398" lon="-0.90896">
        <ele>3.84618</ele>
        <time>2025-05-06T12:30:44.885Z</time>
      </trkpt>
      <trkpt lat="45.86421" lon="-0.90971">
        <ele>4.47347</ele>
        <time>2025-05-06T12:31:43.202Z</time>
      </trkpt>
      <trkpt lat="45.86441" lon="-0.91002">
        <ele>4.09114</ele>
        <time>2025-05-06T12:32:11.137Z</time>
      </trkpt>
      <trkpt lat="45.86455" lon="-0.91033">
        <ele>3.64497</ele>
        <time>2025-05-06T12:32:35.243Z</time>
      </trkpt>
      <trkpt lat="45.86478" lon="-0.91055">
        <ele>4.1428</ele>
        <time>2025-05-06T12:33:04.112Z</time>
      </trkpt>
      <trkpt lat="45.86511" lon="-0.91075">
        <ele>3.78164</ele>
        <time>2025-05-06T12:33:38.415Z</time>
      </trkpt>
      <trkpt lat="45.86547" lon="-0.91113">
        <ele>3.53627</ele>
        <time>2025-05-06T12:34:21.806Z</time>
      </trkpt>
      <trkpt lat="45.86571" lon="-0.91129">
        <ele>4.6081</ele>
        <time>2025-05-06T12:34:51.506Z</time>
      </trkpt>
      <trkpt lat="45.8663" lon="-0.91153">
        <ele>6.75462</ele>
        <time>2025-05-06T12:35:59.123Z</time>
      </trkpt>
      <trkpt lat="45.86649" lon="-0.91152">
        <ele>7.97363</ele>
        <time>2025-05-06T12:36:22.186Z</time>
      </trkpt>
      <trkpt lat="45.86692" lon="-0.91125">
        <ele>8.67901</ele>
        <time>2025-05-06T12:37:10.754Z</time>
      </trkpt>
      <trkpt lat="45.86702" lon="-0.91107">
        <ele>9.15333</ele>
        <time>2025-05-06T12:37:28.130Z</time>
      </trkpt>
      <trkpt lat="45.8671" lon="-0.91103">
        <ele>9.24983</ele>
        <time>2025-05-06T12:37:36.798Z</time>
      </trkpt>
      <trkpt lat="45.86743" lon="-0.91067">
        <ele>9.55669</ele>
        <time>2025-05-06T12:38:18.677Z</time>
      </trkpt>
      <trkpt lat="45.86776" lon="-0.91053">
        <ele>9.73189</ele>
        <time>2025-05-06T12:38:53.201Z</time>
      </trkpt>
      <trkpt lat="45.86845" lon="-0.91048">
        <ele>8.59066</ele>
        <time>2025-05-06T12:39:58.089Z</time>
      </trkpt>
      <trkpt lat="45.86932" lon="-0.91059">
        <ele>9.10119</ele>
        <time>2025-05-06T12:41:25.922Z</time>
      </trkpt>
      <trkpt lat="45.86952" lon="-0.91055">
        <ele>9.62145</ele>
        <time>2025-05-06T12:41:47.540Z</time>
      </trkpt>
      <trkpt lat="45.86984" lon="-0.91057">
        <ele>10.19763</ele>
        <time>2025-05-06T12:42:20.998Z</time>
      </trkpt>
      <trkpt lat="45.87003" lon="-0.9105">
        <ele>10.42831</ele>
        <time>2025-05-06T12:42:41.091Z</time>
      </trkpt>
      <trkpt lat="45.8703" lon="-0.91054">
        <ele>10.54423</ele>
        <time>2025-05-06T12:43:08.256Z</time>
      </trkpt>
      <trkpt lat="45.87074" lon="-0.91052">
        <ele>10.39869</ele>
        <time>2025-05-06T12:43:51.296Z</time>
      </trkpt>
      <trkpt lat="45.87105" lon="-0.91057">
        <ele>9.97233</ele>
        <time>2025-05-06T12:44:20.848Z</time>
      </trkpt>
      <trkpt lat="45.87153" lon="-0.91057">
        <ele>9.63844</ele>
        <time>2025-05-06T12:45:07.257Z</time>
      </trkpt>
      <trkpt lat="45.87195" lon="-0.91073">
        <ele>10.07401</ele>
        <time>2025-05-06T12:45:51.527Z</time>
      </trkpt>
      <trkpt lat="45.8723" lon="-0.91093">
        <ele>10.43665</ele>
        <time>2025-05-06T12:46:29.858Z</time>
      </trkpt>
      <trkpt lat="45.87254" lon="-0.91118">
        <ele>10.10838</ele>
        <time>2025-05-06T12:46:58.166Z</time>
      </trkpt>
      <trkpt lat="45.87309" lon="-0.91151">
        <ele>10.69325</ele>
        <time>2025-05-06T12:47:58.854Z</time>
      </trkpt>
      <trkpt lat="45.87322" lon="-0.91165">
        <ele>10.80616</ele>
        <time>2025-05-06T12:48:15.251Z</time>
      </trkpt>
      <trkpt lat="45.87402" lon="-0.91222">
        <ele>11.18798</ele>
        <time>2025-05-06T12:49:44.626Z</time>
      </trkpt>
      <trkpt lat="45.87487" lon="-0.91301">
        <ele>11.24781</ele>
        <time>2025-05-06T12:51:24.805Z</time>
      </trkpt>
      <trkpt lat="45.87532" lon="-0.9132">
        <ele>10.38911</ele>
        <time>2025-05-06T12:52:08.620Z</time>
      </trkpt>
      <trkpt lat="45.87589" lon="-0.91332">
        <ele>10.56091</ele>
        <time>2025-05-06T12:53:06.045Z</time>
      </trkpt>
      <trkpt lat="45.87633" lon="-0.91311">
        <ele>10.57192</ele>
        <time>2025-05-06T12:53:51.873Z</time>
      </trkpt>
      <trkpt lat="45.87681" lon="-0.91278">
        <ele>9.78123</ele>
        <time>2025-05-06T12:54:42.104Z</time>
      </trkpt>
      <trkpt lat="45.87732" lon="-0.91299">
        <ele>5.7584</ele>
        <time>2025-05-06T12:55:27.955Z</time>
      </trkpt>
      <trkpt lat="45.87749" lon="-0.91298">
        <ele>4.4575</ele>
        <time>2025-05-06T12:55:42.659Z</time>
      </trkpt>
      <trkpt lat="45.87765" lon="-0.91304">
        <ele>4.28952</ele>
        <time>2025-05-06T12:55:58.492Z</time>
      </trkpt>
      <trkpt lat="45.87821" lon="-0.91284">
        <ele>7.49664</ele>
        <time>2025-05-06T12:57:06.533Z</time>
      </trkpt>
      <trkpt lat="45.87837" lon="-0.91282">
        <ele>8.00088</ele>
        <time>2025-05-06T12:57:24.038Z</time>
      </trkpt>
      <trkpt lat="45.87878" lon="-0.91292">
        <ele>8.76563</ele>
        <time>2025-05-06T12:58:07.534Z</time>
      </trkpt>
      <trkpt lat="45.87887" lon="-0.913">
        <ele>8.80956</ele>
        <time>2025-05-06T12:58:18.122Z</time>
      </trkpt>
      <trkpt lat="45.87898" lon="-0.91323">
        <ele>8.76593</ele>
        <time>2025-05-06T12:58:37.177Z</time>
      </trkpt>
      <trkpt lat="45.87902" lon="-0.9135">
        <ele>8.50673</ele>
        <time>2025-05-06T12:58:55.392Z</time>
      </trkpt>
      <trkpt lat="45.87912" lon="-0.9137">
        <ele>7.82652</ele>
        <time>2025-05-06T12:59:10.421Z</time>
      </trkpt>
      <trkpt lat="45.87926" lon="-0.91384">
        <ele>7.3358</ele>
        <time>2025-05-06T12:59:25.866Z</time>
      </trkpt>
      <trkpt lat="45.87967" lon="-0.91393">
        <ele>8.72483</ele>
        <time>2025-05-06T13:00:11.379Z</time>
      </trkpt>
      <trkpt lat="45.88003" lon="-0.91394">
        <ele>10.11579</ele>
        <time>2025-05-06T13:00:51.549Z</time>
      </trkpt>
      <trkpt lat="45.88047" lon="-0.91404">
        <ele>10.4539</ele>
        <time>2025-05-06T13:01:36.593Z</time>
      </trkpt>
      <trkpt lat="45.88094" lon="-0.91403">
        <ele>10.1444</ele>
        <time>2025-05-06T13:02:22.092Z</time>
      </trkpt>
      <trkpt lat="45.88086" lon="-0.91409">
        <ele>10.05779</ele>
        <time>2025-05-06T13:02:30.747Z</time>
      </trkpt>
      <trkpt lat="45.88077" lon="-0.91405">
        <ele>10.24811</ele>
        <time>2025-05-06T13:02:40.657Z</time>
      </trkpt>
      <trkpt lat="45.88074" lon="-0.91398">
        <ele>10.48571</ele>
        <time>2025-05-06T13:02:47.101Z</time>
      </trkpt>
      <trkpt lat="45.88085" lon="-0.91273">
        <ele>10.93587</ele>
        <time>2025-05-06T13:04:15.117Z</time>
      </trkpt>
      <trkpt lat="45.88093" lon="-0.91243">
        <ele>11.07741</ele>
        <time>2025-05-06T13:04:37.642Z</time>
      </trkpt>
      <trkpt lat="45.88111" lon="-0.91241">
        <ele>11.34618</ele>
        <time>2025-05-06T13:04:56.317Z</time>
      </trkpt>
      <trkpt lat="45.88143" lon="-0.91248">
        <ele>11.46938</ele>
        <time>2025-05-06T13:05:28.665Z</time>
      </trkpt>
      <trkpt lat="45.88203" lon="-0.91274">
        <ele>12.1071</ele>
        <time>2025-05-06T13:06:32.546Z</time>
      </trkpt>
      <trkpt lat="45.88223" lon="-0.91278">
        <ele>12.3156</ele>
        <time>2025-05-06T13:06:53.139Z</time>
      </trkpt>
      <trkpt lat="45.88237" lon="-0.9129">
        <ele>12.44922</ele>
        <time>2025-05-06T13:07:09.654Z</time>
      </trkpt>
      <trkpt lat="45.88248" lon="-0.91307">
        <ele>12.2117</ele>
        <time>2025-05-06T13:07:24.913Z</time>
      </trkpt>
      <trkpt lat="45.88251" lon="-0.91319">
        <ele>12.05086</ele>
        <time>2025-05-06T13:07:33.209Z</time>
      </trkpt>
      <trkpt lat="45.88255" lon="-0.91398">
        <ele>11.36778</ele>
        <time>2025-05-06T13:08:25.647Z</time>
      </trkpt>
      <trkpt lat="45.88264" lon="-0.91418">
        <ele>10.93814</ele>
        <time>2025-05-06T13:08:40.785Z</time>
      </trkpt>
      <trkpt lat="45.88274" lon="-0.91424">
        <ele>10.98518</ele>
        <time>2025-05-06T13:08:51.633Z</time>
      </trkpt>
      <trkpt lat="45.88443" lon="-0.91421">
        <ele>6.96916</ele>
        <time>2025-05-06T13:11:26.955Z</time>
      </trkpt>
      <trkpt lat="45.88526" lon="-0.91415">
        <ele>5.86275</ele>
        <time>2025-05-06T13:12:45.767Z</time>
      </trkpt>
      <trkpt lat="45.88584" lon="-0.91423">
        <ele>4.29387</ele>
        <time>2025-05-06T13:13:38.811Z</time>
      </trkpt>
      <trkpt lat="45.88598" lon="-0.91418">
        <ele>4.06991</ele>
        <time>2025-05-06T13:13:52.401Z</time>
      </trkpt>
      <trkpt lat="45.8865" lon="-0.9142">
        <ele>3.77405</ele>
        <time>2025-05-06T13:14:42.890Z</time>
      </trkpt>
      <trkpt lat="45.88671" lon="-0.91416">
        <ele>4.585</ele>
        <time>2025-05-06T13:15:06.497Z</time>
      </trkpt>
      <trkpt lat="45.88715" lon="-0.91422">
        <ele>6.64884</ele>
        <time>2025-05-06T13:15:57.115Z</time>
      </trkpt>
      <trkpt lat="45.88721" lon="-0.91424">
        <ele>6.86871</ele>
        <time>2025-05-06T13:16:03.922Z</time>
      </trkpt>
      <trkpt lat="45.88747" lon="-0.91451">
        <ele>7.0796</ele>
        <time>2025-05-06T13:16:36.258Z</time>
      </trkpt>
      <trkpt lat="45.88767" lon="-0.91456">
        <ele>8.02069</ele>
        <time>2025-05-06T13:16:59.482Z</time>
      </trkpt>
      <trkpt lat="45.88823" lon="-0.91492">
        <ele>8.42657</ele>
        <time>2025-05-06T13:18:01.329Z</time>
      </trkpt>
      <trkpt lat="45.88838" lon="-0.91507">
        <ele>8.50678</ele>
        <time>2025-05-06T13:18:19.626Z</time>
      </trkpt>
      <trkpt lat="45.88905" lon="-0.91547">
        <ele>7.45032</ele>
        <time>2025-05-06T13:19:28.173Z</time>
      </trkpt>
      <trkpt lat="45.88926" lon="-0.91548">
        <ele>6.35437</ele>
        <time>2025-05-06T13:19:46.332Z</time>
      </trkpt>
      <trkpt lat="45.88967" lon="-0.91531">
        <ele>7.13286</ele>
        <time>2025-05-06T13:20:30.943Z</time>
      </trkpt>
      <trkpt lat="45.88984" lon="-0.91529">
        <ele>7.89754</ele>
        <time>2025-05-06T13:20:50.359Z</time>
      </trkpt>
      <trkpt lat="45.89011" lon="-0.91537">
        <ele>8.52144</ele>
        <time>2025-05-06T13:21:19.581Z</time>
      </trkpt>
      <trkpt lat="45.89024" lon="-0.91534">
        <ele>8.91022</ele>
        <time>2025-05-06T13:21:33.847Z</time>
      </trkpt>
      <trkpt lat="45.89057" lon="-0.9154">
        <ele>9.37613</ele>
        <time>2025-05-06T13:22:08.161Z</time>
      </trkpt>
      <trkpt lat="45.89065" lon="-0.91563">
        <ele>7.9736</ele>
        <time>2025-05-06T13:22:23.627Z</time>
      </trkpt>
      <trkpt lat="45.89037" lon="-0.91623">
        <ele>6.30246</ele>
        <time>2025-05-06T13:23:08.551Z</time>
      </trkpt>
      <trkpt lat="45.89038" lon="-0.91631">
        <ele>6.08917</ele>
        <time>2025-05-06T13:23:13.540Z</time>
      </trkpt>
      <trkpt lat="45.89045" lon="-0.91634">
        <ele>5.6331</ele>
        <time>2025-05-06T13:23:19.853Z</time>
      </trkpt>
      <trkpt lat="45.8906" lon="-0.91633">
        <ele>4.74849</ele>
        <time>2025-05-06T13:23:32.830Z</time>
      </trkpt>
      <trkpt lat="45.89083" lon="-0.91619">
        <ele>3.97681</ele>
        <time>2025-05-06T13:23:55.304Z</time>
      </trkpt>
      <trkpt lat="45.89122" lon="-0.91604">
        <ele>4.10925</ele>
        <time>2025-05-06T13:24:35.586Z</time>
      </trkpt>
      <trkpt lat="45.89137" lon="-0.91593">
        <ele>4.31697</ele>
        <time>2025-05-06T13:24:52.868Z</time>
      </trkpt>
      <trkpt lat="45.89137" lon="-0.91582">
        <ele>4.85023</ele>
        <time>2025-05-06T13:25:02.328Z</time>
      </trkpt>
      <trkpt lat="45.89127" lon="-0.91572">
        <ele>4.72935</ele>
        <time>2025-05-06T13:25:14.002Z</time>
      </trkpt>
      <trkpt lat="45.89128" lon="-0.91567">
        <ele>4.9179</ele>
        <time>2025-05-06T13:25:18.223Z</time>
      </trkpt>
      <trkpt lat="45.89114" lon="-0.91558">
        <ele>4.45221</ele>
        <time>2025-05-06T13:25:32.044Z</time>
      </trkpt>
      <trkpt lat="45.89107" lon="-0.91558">
        <ele>4.17734</ele>
        <time>2025-05-06T13:25:38.188Z</time>
      </trkpt>
      <trkpt lat="45.89124" lon="-0.91566">
        <ele>4.8097</ele>
        <time>2025-05-06T13:25:57.936Z</time>
      </trkpt>
      <trkpt lat="45.8915" lon="-0.91595">
        <ele>4.68973</ele>
        <time>2025-05-06T13:26:30.084Z</time>
      </trkpt>
      <trkpt lat="45.8919" lon="-0.91581">
        <ele>6.29663</ele>
        <time>2025-05-06T13:27:16.074Z</time>
      </trkpt>
      <trkpt lat="45.89204" lon="-0.9159">
        <ele>8.09749</ele>
        <time>2025-05-06T13:27:38.432Z</time>
      </trkpt>
      <trkpt lat="45.89219" lon="-0.9159">
        <ele>7.19832</ele>
        <time>2025-05-06T13:27:51.396Z</time>
      </trkpt>
      <trkpt lat="45.89231" lon="-0.91572">
        <ele>3.33593</ele>
        <time>2025-05-06T13:28:06.388Z</time>
      </trkpt>
      <trkpt lat="45.89239" lon="-0.91509">
        <ele>2.90994</ele>
        <time>2025-05-06T13:28:49.143Z</time>
      </trkpt>
      <trkpt lat="45.89258" lon="-0.91476">
        <ele>2.60127</ele>
        <time>2025-05-06T13:29:17.666Z</time>
      </trkpt>
      <trkpt lat="45.89271" lon="-0.91463">
        <ele>2.86159</ele>
        <time>2025-05-06T13:29:34.130Z</time>
      </trkpt>
      <trkpt lat="45.89329" lon="-0.91448">
        <ele>2.64358</ele>
        <time>2025-05-06T13:30:31.679Z</time>
      </trkpt>
      <trkpt lat="45.89352" lon="-0.91472">
        <ele>5.67982</ele>
        <time>2025-05-06T13:31:11.590Z</time>
      </trkpt>
      <trkpt lat="45.89365" lon="-0.91496">
        <ele>6.88047</ele>
        <time>2025-05-06T13:31:36.642Z</time>
      </trkpt>
      <trkpt lat="45.89399" lon="-0.91572">
        <ele>5.25973</ele>
        <time>2025-05-06T13:32:34.083Z</time>
      </trkpt>
      <trkpt lat="45.89402" lon="-0.91588">
        <ele>4.76321</ele>
        <time>2025-05-06T13:32:44.094Z</time>
      </trkpt>
      <trkpt lat="45.89408" lon="-0.91594">
        <ele>6.57715</ele>
        <time>2025-05-06T13:33:01.695Z</time>
      </trkpt>
      <trkpt lat="45.8941" lon="-0.9161">
        <ele>6.8694</ele>
        <time>2025-05-06T13:33:13.810Z</time>
      </trkpt>
      <trkpt lat="45.89405" lon="-0.91627">
        <ele>5.47933</ele>
        <time>2025-05-06T13:33:24.911Z</time>
      </trkpt>
      <trkpt lat="45.89363" lon="-0.91686">
        <ele>6.16322</ele>
        <time>2025-05-06T13:34:25.058Z</time>
      </trkpt>
      <trkpt lat="45.89363" lon="-0.91701">
        <ele>5.12492</ele>
        <time>2025-05-06T13:34:34.081Z</time>
      </trkpt>
      <trkpt lat="45.89392" lon="-0.91753">
        <ele>3.19206</ele>
        <time>2025-05-06T13:35:14.502Z</time>
      </trkpt>
      <trkpt lat="45.89405" lon="-0.91758">
        <ele>2.73488</ele>
        <time>2025-05-06T13:35:26.500Z</time>
      </trkpt>
      <trkpt lat="45.89428" lon="-0.91744">
        <ele>2.82843</ele>
        <time>2025-05-06T13:35:51.458Z</time>
      </trkpt>
      <trkpt lat="45.89435" lon="-0.91745">
        <ele>2.878</ele>
        <time>2025-05-06T13:35:58.559Z</time>
      </trkpt>
      <trkpt lat="45.89445" lon="-0.91752">
        <ele>5.96807</ele>
        <time>2025-05-06T13:36:28.823Z</time>
      </trkpt>
      <trkpt lat="45.8945" lon="-0.91779">
        <ele>4.52993</ele>
        <time>2025-05-06T13:36:45.628Z</time>
      </trkpt>
      <trkpt lat="45.89449" lon="-0.91792">
        <ele>3.07526</ele>
        <time>2025-05-06T13:36:53.495Z</time>
      </trkpt>
      <trkpt lat="45.89425" lon="-0.91827">
        <ele>2.99255</ele>
        <time>2025-05-06T13:37:27.020Z</time>
      </trkpt>
      <trkpt lat="45.89409" lon="-0.91867">
        <ele>3.55335</ele>
        <time>2025-05-06T13:38:00.505Z</time>
      </trkpt>
      <trkpt lat="45.89349" lon="-0.91922">
        <ele>3.31676</ele>
        <time>2025-05-06T13:39:10.086Z</time>
      </trkpt>
      <trkpt lat="45.89363" lon="-0.91949">
        <ele>3.16781</ele>
        <time>2025-05-06T13:39:32.784Z</time>
      </trkpt>
      <trkpt lat="45.89378" lon="-0.91964">
        <ele>2.84522</ele>
        <time>2025-05-06T13:39:49.890Z</time>
      </trkpt>
      <trkpt lat="45.89395" lon="-0.92037">
        <ele>2.82935</ele>
        <time>2025-05-06T13:40:42.758Z</time>
      </trkpt>
      <trkpt lat="45.89406" lon="-0.92047">
        <ele>2.83536</ele>
        <time>2025-05-06T13:40:55.632Z</time>
      </trkpt>
      <trkpt lat="45.8942" lon="-0.92133">
        <ele>3.01592</ele>
        <time>2025-05-06T13:41:56.898Z</time>
      </trkpt>
      <trkpt lat="45.89415" lon="-0.92106">
        <ele>3.2004</ele>
        <time>2025-05-06T13:42:16.677Z</time>
      </trkpt>
      <trkpt lat="45.89416" lon="-0.92079">
        <ele>3.07617</ele>
        <time>2025-05-06T13:42:34.891Z</time>
      </trkpt>
      <trkpt lat="45.89406" lon="-0.92045">
        <ele>2.82922</ele>
        <time>2025-05-06T13:42:59.529Z</time>
      </trkpt>
      <trkpt lat="45.89389" lon="-0.92014">
        <ele>3.3756</ele>
        <time>2025-05-06T13:43:28.394Z</time>
      </trkpt>
      <trkpt lat="45.89375" lon="-0.91951">
        <ele>2.92887</ele>
        <time>2025-05-06T13:44:12.525Z</time>
      </trkpt>
      <trkpt lat="45.8935" lon="-0.91931">
        <ele>3.39628</ele>
        <time>2025-05-06T13:44:42.259Z</time>
      </trkpt>
      <trkpt lat="45.89351" lon="-0.91919">
        <ele>3.36107</ele>
        <time>2025-05-06T13:44:50.461Z</time>
      </trkpt>
      <trkpt lat="45.89309" lon="-0.91945">
        <ele>3.40532</ele>
        <time>2025-05-06T13:45:35.765Z</time>
      </trkpt>
      <trkpt lat="45.89302" lon="-0.91945">
        <ele>3.08332</ele>
        <time>2025-05-06T13:45:41.815Z</time>
      </trkpt>
      <trkpt lat="45.89275" lon="-0.91906">
        <ele>2.89809</ele>
        <time>2025-05-06T13:46:19.072Z</time>
      </trkpt>
      <trkpt lat="45.89274" lon="-0.91894">
        <ele>3.1919</ele>
        <time>2025-05-06T13:46:28.345Z</time>
      </trkpt>
      <trkpt lat="45.89283" lon="-0.91869">
        <ele>3.26341</ele>
        <time>2025-05-06T13:46:47.913Z</time>
      </trkpt>
      <trkpt lat="45.89284" lon="-0.91854">
        <ele>3.23769</ele>
        <time>2025-05-06T13:46:58.193Z</time>
      </trkpt>
      <trkpt lat="45.8926" lon="-0.91762">
        <ele>5.51882</ele>
        <time>2025-05-06T13:48:13.200Z</time>
      </trkpt>
      <trkpt lat="45.89276" lon="-0.91727">
        <ele>3.3276</ele>
        <time>2025-05-06T13:48:38.387Z</time>
      </trkpt>
      <trkpt lat="45.89278" lon="-0.91714">
        <ele>3.14653</ele>
        <time>2025-05-06T13:48:47.012Z</time>
      </trkpt>
      <trkpt lat="45.8927" lon="-0.91674">
        <ele>4.15282</ele>
        <time>2025-05-06T13:49:18.925Z</time>
      </trkpt>
      <trkpt lat="45.89258" lon="-0.91657">
        <ele>4.35173</ele>
        <time>2025-05-06T13:49:36.191Z</time>
      </trkpt>
      <trkpt lat="45.89252" lon="-0.91631">
        <ele>3.99115</ele>
        <time>2025-05-06T13:49:53.968Z</time>
      </trkpt>
      <trkpt lat="45.89215" lon="-0.91568">
        <ele>4.65562</ele>
        <time>2025-05-06T13:50:52.706Z</time>
      </trkpt>
      <trkpt lat="45.89188" lon="-0.91549">
        <ele>6.90378</ele>
        <time>2025-05-06T13:51:30.503Z</time>
      </trkpt>
      <trkpt lat="45.89174" lon="-0.91561">
        <ele>7.34071</ele>
        <time>2025-05-06T13:51:48.014Z</time>
      </trkpt>
      <trkpt lat="45.89153" lon="-0.91593">
        <ele>4.84608</ele>
        <time>2025-05-06T13:52:14.469Z</time>
      </trkpt>
      <trkpt lat="45.89062" lon="-0.91633">
        <ele>4.66534</ele>
        <time>2025-05-06T13:53:47.913Z</time>
      </trkpt>
      <trkpt lat="45.89052" lon="-0.91634">
        <ele>5.14561</ele>
        <time>2025-05-06T13:53:59.439Z</time>
      </trkpt>
      <trkpt lat="45.89044" lon="-0.91627">
        <ele>5.75252</ele>
        <time>2025-05-06T13:54:10.827Z</time>
      </trkpt>
      <trkpt lat="45.89044" lon="-0.91622">
        <ele>5.7894</ele>
        <time>2025-05-06T13:54:14.379Z</time>
      </trkpt>
      <trkpt lat="45.89062" lon="-0.91563">
        <ele>8.44227</ele>
        <time>2025-05-06T13:55:07.879Z</time>
      </trkpt>
      <trkpt lat="45.89052" lon="-0.91539">
        <ele>9.32472</ele>
        <time>2025-05-06T13:55:30.076Z</time>
      </trkpt>
      <trkpt lat="45.89035" lon="-0.91538">
        <ele>9.05864</ele>
        <time>2025-05-06T13:55:46.099Z</time>
      </trkpt>
      <trkpt lat="45.89025" lon="-0.91543">
        <ele>8.75139</ele>
        <time>2025-05-06T13:55:55.678Z</time>
      </trkpt>
      <trkpt lat="45.88993" lon="-0.91547">
        <ele>7.52632</ele>
        <time>2025-05-06T13:56:23.966Z</time>
      </trkpt>
      <trkpt lat="45.88981" lon="-0.91538">
        <ele>7.42785</ele>
        <time>2025-05-06T13:56:37.041Z</time>
      </trkpt>
      <trkpt lat="45.88942" lon="-0.91542">
        <ele>6.00016</ele>
        <time>2025-05-06T13:57:11.639Z</time>
      </trkpt>
      <trkpt lat="45.8892" lon="-0.91557">
        <ele>6.82326</ele>
        <time>2025-05-06T13:57:38.388Z</time>
      </trkpt>
      <trkpt lat="45.88903" lon="-0.91554">
        <ele>7.57442</ele>
        <time>2025-05-06T13:57:57.823Z</time>
      </trkpt>
      <trkpt lat="45.88862" lon="-0.9153">
        <ele>8.07195</ele>
        <time>2025-05-06T13:58:43.100Z</time>
      </trkpt>
      <trkpt lat="45.88832" lon="-0.91519">
        <ele>8.46976</ele>
        <time>2025-05-06T13:59:14.925Z</time>
      </trkpt>
      <trkpt lat="45.88822" lon="-0.91506">
        <ele>8.52369</ele>
        <time>2025-05-06T13:59:28.410Z</time>
      </trkpt>
      <trkpt lat="45.88779" lon="-0.91479">
        <ele>7.97243</ele>
        <time>2025-05-06T14:00:13.125Z</time>
      </trkpt>
      <trkpt lat="45.88771" lon="-0.91465">
        <ele>8.10637</ele>
        <time>2025-05-06T14:00:25.995Z</time>
      </trkpt>
      <trkpt lat="45.88738" lon="-0.91434">
        <ele>7.16877</ele>
        <time>2025-05-06T14:01:02.228Z</time>
      </trkpt>
      <trkpt lat="45.88715" lon="-0.91429">
        <ele>6.56726</ele>
        <time>2025-05-06T14:01:23.472Z</time>
      </trkpt>
      <trkpt lat="45.88709" lon="-0.91424">
        <ele>6.35282</ele>
        <time>2025-05-06T14:01:29.712Z</time>
      </trkpt>
      <trkpt lat="45.88697" lon="-0.91406">
        <ele>6.095</ele>
        <time>2025-05-06T14:01:46.088Z</time>
      </trkpt>
      <trkpt lat="45.88691" lon="-0.91379">
        <ele>5.84727</ele>
        <time>2025-05-06T14:02:04.841Z</time>
      </trkpt>
      <trkpt lat="45.8869" lon="-0.91339">
        <ele>5.91966</ele>
        <time>2025-05-06T14:02:32.580Z</time>
      </trkpt>
      <trkpt lat="45.88678" lon="-0.91285">
        <ele>6.34574</ele>
        <time>2025-05-06T14:03:12.877Z</time>
      </trkpt>
      <trkpt lat="45.88678" lon="-0.91228">
        <ele>6.56108</ele>
        <time>2025-05-06T14:03:52.728Z</time>
      </trkpt>
      <trkpt lat="45.88654" lon="-0.91182">
        <ele>6.38661</ele>
        <time>2025-05-06T14:04:31.725Z</time>
      </trkpt>
      <trkpt lat="45.88646" lon="-0.91146">
        <ele>5.97519</ele>
        <time>2025-05-06T14:04:56.496Z</time>
      </trkpt>
      <trkpt lat="45.88619" lon="-0.91095">
        <ele>6.37672</ele>
        <time>2025-05-06T14:05:41.793Z</time>
      </trkpt>
      <trkpt lat="45.88607" lon="-0.91084">
        <ele>6.26231</ele>
        <time>2025-05-06T14:05:55.511Z</time>
      </trkpt>
      <trkpt lat="45.88596" lon="-0.91061">
        <ele>6.14895</ele>
        <time>2025-05-06T14:06:14.356Z</time>
      </trkpt>
      <trkpt lat="45.8859" lon="-0.91043">
        <ele>6.4475</ele>
        <time>2025-05-06T14:06:29.028Z</time>
      </trkpt>
      <trkpt lat="45.88591" lon="-0.91024">
        <ele>6.58561</ele>
        <time>2025-05-06T14:06:42.558Z</time>
      </trkpt>
      <trkpt lat="45.88583" lon="-0.91">
        <ele>6.40229</ele>
        <time>2025-05-06T14:07:00.307Z</time>
      </trkpt>
      <trkpt lat="45.88578" lon="-0.90996">
        <ele>6.03715</ele>
        <time>2025-05-06T14:07:05.253Z</time>
      </trkpt>
      <trkpt lat="45.8855" lon="-0.90992">
        <ele>4.15029</ele>
        <time>2025-05-06T14:07:29.571Z</time>
      </trkpt>
      <trkpt lat="45.88518" lon="-0.90996">
        <ele>5.47033</ele>
        <time>2025-05-06T14:08:05.693Z</time>
      </trkpt>
      <trkpt lat="45.88487" lon="-0.90994">
        <ele>6.56097</ele>
        <time>2025-05-06T14:08:39.926Z</time>
      </trkpt>
      <trkpt lat="45.8848" lon="-0.90984">
        <ele>6.80981</ele>
        <time>2025-05-06T14:08:50.476Z</time>
      </trkpt>
      <trkpt lat="45.88468" lon="-0.9098">
        <ele>6.94433</ele>
        <time>2025-05-06T14:09:03.062Z</time>
      </trkpt>
      <trkpt lat="45.88461" lon="-0.90969">
        <ele>6.94574</ele>
        <time>2025-05-06T14:09:13.313Z</time>
      </trkpt>
      <trkpt lat="45.88455" lon="-0.90945">
        <ele>6.74732</ele>
        <time>2025-05-06T14:09:30.257Z</time>
      </trkpt>
      <trkpt lat="45.88441" lon="-0.90936">
        <ele>6.85155</ele>
        <time>2025-05-06T14:09:45.727Z</time>
      </trkpt>
      <trkpt lat="45.88434" lon="-0.90922">
        <ele>6.98744</ele>
        <time>2025-05-06T14:09:58.002Z</time>
      </trkpt>
      <trkpt lat="45.88414" lon="-0.90914">
        <ele>6.85648</ele>
        <time>2025-05-06T14:10:18.114Z</time>
      </trkpt>
      <trkpt lat="45.88397" lon="-0.909">
        <ele>6.89452</ele>
        <time>2025-05-06T14:10:37.585Z</time>
      </trkpt>
      <trkpt lat="45.88388" lon="-0.90876">
        <ele>7.14473</ele>
        <time>2025-05-06T14:10:57.110Z</time>
      </trkpt>
      <trkpt lat="45.88375" lon="-0.90861">
        <ele>6.98701</ele>
        <time>2025-05-06T14:11:13.109Z</time>
      </trkpt>
      <trkpt lat="45.8837" lon="-0.90833">
        <ele>6.68574</ele>
        <time>2025-05-06T14:11:32.097Z</time>
      </trkpt>
      <trkpt lat="45.88363" lon="-0.90825">
        <ele>6.77843</ele>
        <time>2025-05-06T14:11:41.220Z</time>
      </trkpt>
      <trkpt lat="45.8836" lon="-0.90812">
        <ele>6.98341</ele>
        <time>2025-05-06T14:11:51.290Z</time>
      </trkpt>
      <trkpt lat="45.88357" lon="-0.90779">
        <ele>6.93364</ele>
        <time>2025-05-06T14:12:14.021Z</time>
      </trkpt>
      <trkpt lat="45.88375" lon="-0.90723">
        <ele>6.90822</ele>
        <time>2025-05-06T14:12:56.352Z</time>
      </trkpt>
      <trkpt lat="45.88369" lon="-0.90707">
        <ele>6.98831</ele>
        <time>2025-05-06T14:13:09.095Z</time>
      </trkpt>
      <trkpt lat="45.88364" lon="-0.90658">
        <ele>7.48067</ele>
        <time>2025-05-06T14:13:44.689Z</time>
      </trkpt>
      <trkpt lat="45.88357" lon="-0.90642">
        <ele>7.48282</ele>
        <time>2025-05-06T14:13:57.688Z</time>
      </trkpt>
      <trkpt lat="45.8835" lon="-0.90585">
        <ele>7.14701</ele>
        <time>2025-05-06T14:14:36.480Z</time>
      </trkpt>
      <trkpt lat="45.8833" lon="-0.9055">
        <ele>7.05305</ele>
        <time>2025-05-06T14:15:07.330Z</time>
      </trkpt>
      <trkpt lat="45.88322" lon="-0.9052">
        <ele>7.08936</ele>
        <time>2025-05-06T14:15:29.529Z</time>
      </trkpt>
      <trkpt lat="45.8832" lon="-0.90488">
        <ele>7.65999</ele>
        <time>2025-05-06T14:15:53.454Z</time>
      </trkpt>
      <trkpt lat="45.88329" lon="-0.90447">
        <ele>7.46808</ele>
        <time>2025-05-06T14:16:22.436Z</time>
      </trkpt>
      <trkpt lat="45.88339" lon="-0.90425">
        <ele>7.95884</ele>
        <time>2025-05-06T14:16:42.084Z</time>
      </trkpt>
      <trkpt lat="45.88341" lon="-0.90355">
        <ele>8.85206</ele>
        <time>2025-05-06T14:17:33.080Z</time>
      </trkpt>
      <trkpt lat="45.8835" lon="-0.90269">
        <ele>9.24153</ele>
        <time>2025-05-06T14:18:34.074Z</time>
      </trkpt>
      <trkpt lat="45.88349" lon="-0.90209">
        <ele>9.02631</ele>
        <time>2025-05-06T14:19:14.692Z</time>
      </trkpt>
      <trkpt lat="45.88355" lon="-0.90186">
        <ele>9.27567</ele>
        <time>2025-05-06T14:19:32.362Z</time>
      </trkpt>
      <trkpt lat="45.88354" lon="-0.90157">
        <ele>9.28881</ele>
        <time>2025-05-06T14:19:52.365Z</time>
      </trkpt>
      <trkpt lat="45.88385" lon="-0.89915">
        <ele>10.59142</ele>
        <time>2025-05-06T14:22:45.571Z</time>
      </trkpt>
      <trkpt lat="45.88383" lon="-0.89902">
        <ele>10.71242</ele>
        <time>2025-05-06T14:22:55.103Z</time>
      </trkpt>
      <trkpt lat="45.8836" lon="-0.89886">
        <ele>11.07995</ele>
        <time>2025-05-06T14:23:21.496Z</time>
      </trkpt>
      <trkpt lat="45.88335" lon="-0.89874">
        <ele>11.6848</ele>
        <time>2025-05-06T14:23:49.464Z</time>
      </trkpt>
      <trkpt lat="45.88323" lon="-0.89872">
        <ele>12.01095</ele>
        <time>2025-05-06T14:24:02.448Z</time>
      </trkpt>
      <trkpt lat="45.88313" lon="-0.89875">
        <ele>12.30667</ele>
        <time>2025-05-06T14:24:13.496Z</time>
      </trkpt>
    </trkseg>
  </trk>
  <trk>
    <name><![CDATA[Randonnée en boucle de l'arnoult 20 km_2]]></name>
    <extensions>
      <line xmlns="http://www.topografix.com/GPX/gpx_style/0/2">
        <color>00FF00</color>
        <width>4</width>
      </line>
    </extensions>
    <trkseg>
      <trkpt lat="45.87572" lon="-0.95086">
        <ele>10.1</ele>
        <time>2025-05-06T14:24:18.000Z</time>
        <extensions>
          <visugpx:TrkExtension xmlns:visugpx="https://www.visugpx.com/editgpx/">
            <visugpx:node>1</visugpx:node>
            </visugpx:TrkExtension>
        </extensions>
      </trkpt>
      <trkpt lat="45.87562" lon="-0.95105">
        <ele>10.3</ele>
        <time>2025-05-06T14:24:35.101Z</time>
      </trkpt>
      <trkpt lat="45.87562" lon="-0.95105">
        <ele>10.3</ele>
        <time>2025-05-06T14:24:35.101Z</time>
      </trkpt>
      <trkpt lat="45.87562" lon="-0.95105">
        <ele>10.3</ele>
        <time>2025-05-06T14:24:35.101Z</time>
      </trkpt>
      <trkpt lat="45.8754" lon="-0.95087">
        <ele>10.7</ele>
        <time>2025-05-06T14:25:01.518Z</time>
      </trkpt>
      <trkpt lat="45.87532" lon="-0.95082">
        <ele>10.8</ele>
        <time>2025-05-06T14:25:10.498Z</time>
      </trkpt>
      <trkpt lat="45.87527" lon="-0.95079">
        <ele>10.8</ele>
        <time>2025-05-06T14:25:15.881Z</time>
      </trkpt>
      <trkpt lat="45.8752" lon="-0.95077">
        <ele>10.8</ele>
        <time>2025-05-06T14:25:22.970Z</time>
      </trkpt>
      <trkpt lat="45.87516" lon="-0.95075">
        <ele>10.8</ele>
        <time>2025-05-06T14:25:27.178Z</time>
      </trkpt>
      <trkpt lat="45.87516" lon="-0.95075">
        <ele>10.8</ele>
        <time>2025-05-06T14:25:27.178Z</time>
      </trkpt>
      <trkpt lat="45.87516" lon="-0.95075">
        <ele>10.8</ele>
        <time>2025-05-06T14:25:27.178Z</time>
      </trkpt>
      <trkpt lat="45.87516" lon="-0.95073">
        <ele>10.8</ele>
        <time>2025-05-06T14:25:28.561Z</time>
      </trkpt>
      <trkpt lat="45.87516" lon="-0.9507">
        <ele>10.7</ele>
        <time>2025-05-06T14:25:30.377Z</time>
      </trkpt>
      <trkpt lat="45.87516" lon="-0.95068">
        <ele>10.7</ele>
        <time>2025-05-06T14:25:31.760Z</time>
      </trkpt>
      <trkpt lat="45.87515" lon="-0.95066">
        <ele>10.7</ele>
        <time>2025-05-06T14:25:33.463Z</time>
      </trkpt>
      <trkpt lat="45.87514" lon="-0.95064">
        <ele>10.6</ele>
        <time>2025-05-06T14:25:34.953Z</time>
      </trkpt>
      <trkpt lat="45.87513" lon="-0.95063">
        <ele>10.6</ele>
        <time>2025-05-06T14:25:36.163Z</time>
      </trkpt>
      <trkpt lat="45.87511" lon="-0.95062">
        <ele>10.5</ele>
        <time>2025-05-06T14:25:38.004Z</time>
      </trkpt>
      <trkpt lat="45.8751" lon="-0.95061">
        <ele>10.5</ele>
        <time>2025-05-06T14:25:39.214Z</time>
      </trkpt>
      <trkpt lat="45.8751" lon="-0.95061">
        <ele>10.5</ele>
        <time>2025-05-06T14:25:39.214Z</time>
      </trkpt>
      <trkpt lat="45.8751" lon="-0.95061">
        <ele>10.5</ele>
        <time>2025-05-06T14:25:39.214Z</time>
      </trkpt>
      <trkpt lat="45.8751" lon="-0.95061">
        <ele>10.5</ele>
        <time>2025-05-06T14:25:39.214Z</time>
      </trkpt>
      <trkpt lat="45.87508" lon="-0.95061">
        <ele>10.5</ele>
        <time>2025-05-06T14:25:41.201Z</time>
      </trkpt>
      <trkpt lat="45.87507" lon="-0.95061">
        <ele>10.5</ele>
        <time>2025-05-06T14:25:42.194Z</time>
      </trkpt>
      <trkpt lat="45.87505" lon="-0.95061">
        <ele>10.5</ele>
        <time>2025-05-06T14:25:44.181Z</time>
      </trkpt>
      <trkpt lat="45.87504" lon="-0.95062">
        <ele>10.5</ele>
        <time>2025-05-06T14:25:45.392Z</time>
      </trkpt>
      <trkpt lat="45.87502" lon="-0.95064">
        <ele>10.5</ele>
        <time>2025-05-06T14:25:47.812Z</time>
      </trkpt>
      <trkpt lat="45.87501" lon="-0.95065">
        <ele>10.5</ele>
        <time>2025-05-06T14:25:49.023Z</time>
      </trkpt>
      <trkpt lat="45.87501" lon="-0.95067">
        <ele>10.5</ele>
        <time>2025-05-06T14:25:50.406Z</time>
      </trkpt>
      <trkpt lat="45.875" lon="-0.95068">
        <ele>10.5</ele>
        <time>2025-05-06T14:25:51.616Z</time>
      </trkpt>
      <trkpt lat="45.875" lon="-0.95068">
        <ele>10.5</ele>
        <time>2025-05-06T14:25:51.616Z</time>
      </trkpt>
      <trkpt lat="45.875" lon="-0.95068">
        <ele>10.5</ele>
        <time>2025-05-06T14:25:51.616Z</time>
      </trkpt>
      <trkpt lat="45.87495" lon="-0.95066">
        <ele>10.5</ele>
        <time>2025-05-06T14:25:56.772Z</time>
      </trkpt>
      <trkpt lat="45.87484" lon="-0.95062">
        <ele>10.6</ele>
        <time>2025-05-06T14:26:08.356Z</time>
      </trkpt>
      <trkpt lat="45.87484" lon="-0.95062">
        <ele>10.6</ele>
        <time>2025-05-06T14:26:08.356Z</time>
      </trkpt>
      <trkpt lat="45.87484" lon="-0.95062">
        <ele>10.6</ele>
        <time>2025-05-06T14:26:08.356Z</time>
      </trkpt>
      <trkpt lat="45.8747" lon="-0.9506">
        <ele>10.8</ele>
        <time>2025-05-06T14:26:22.962Z</time>
      </trkpt>
      <trkpt lat="45.8746" lon="-0.95057">
        <ele>10.6</ele>
        <time>2025-05-06T14:26:32.524Z</time>
      </trkpt>
      <trkpt lat="45.87452" lon="-0.95052">
        <ele>10.2</ele>
        <time>2025-05-06T14:26:40.107Z</time>
      </trkpt>
      <trkpt lat="45.87445" lon="-0.95045">
        <ele>10</ele>
        <time>2025-05-06T14:26:47.998Z</time>
      </trkpt>
      <trkpt lat="45.87441" lon="-0.95038">
        <ele>9.9</ele>
        <time>2025-05-06T14:26:53.966Z</time>
      </trkpt>
      <trkpt lat="45.87432" lon="-0.95023">
        <ele>9.7</ele>
        <time>2025-05-06T14:27:07.068Z</time>
      </trkpt>
      <trkpt lat="45.87414" lon="-0.94981">
        <ele>8</ele>
        <time>2025-05-06T14:27:36.915Z</time>
      </trkpt>
      <trkpt lat="45.87401" lon="-0.94951">
        <ele>7</ele>
        <time>2025-05-06T14:27:58.546Z</time>
      </trkpt>
      <trkpt lat="45.8739" lon="-0.94926">
        <ele>6</ele>
        <time>2025-05-06T14:28:16.443Z</time>
      </trkpt>
      <trkpt lat="45.87386" lon="-0.94919">
        <ele>6</ele>
        <time>2025-05-06T14:28:22.706Z</time>
      </trkpt>
      <trkpt lat="45.87374" lon="-0.94902">
        <ele>6.7</ele>
        <time>2025-05-06T14:28:41.797Z</time>
      </trkpt>
      <trkpt lat="45.87362" lon="-0.94887">
        <ele>7.7</ele>
        <time>2025-05-06T14:29:01.124Z</time>
      </trkpt>
      <trkpt lat="45.87355" lon="-0.94879">
        <ele>7.9</ele>
        <time>2025-05-06T14:29:10.652Z</time>
      </trkpt>
      <trkpt lat="45.87355" lon="-0.94879">
        <ele>7.9</ele>
        <time>2025-05-06T14:29:10.652Z</time>
      </trkpt>
      <trkpt lat="45.87355" lon="-0.94879">
        <ele>7.9</ele>
        <time>2025-05-06T14:29:10.652Z</time>
      </trkpt>
      <trkpt lat="45.87352" lon="-0.94882">
        <ele>8</ele>
        <time>2025-05-06T14:29:14.608Z</time>
      </trkpt>
      <trkpt lat="45.87349" lon="-0.94885">
        <ele>8.2</ele>
        <time>2025-05-06T14:29:18.931Z</time>
      </trkpt>
      <trkpt lat="45.87344" lon="-0.9489">
        <ele>8.5</ele>
        <time>2025-05-06T14:29:26.007Z</time>
      </trkpt>
      <trkpt lat="45.87337" lon="-0.94897">
        <ele>8.8</ele>
        <time>2025-05-06T14:29:35.472Z</time>
      </trkpt>
      <trkpt lat="45.87326" lon="-0.9491">
        <ele>8.8</ele>
        <time>2025-05-06T14:29:49.623Z</time>
      </trkpt>
      <trkpt lat="45.87321" lon="-0.94915">
        <ele>8.7</ele>
        <time>2025-05-06T14:29:55.380Z</time>
      </trkpt>
      <trkpt lat="45.87318" lon="-0.94917">
        <ele>8.7</ele>
        <time>2025-05-06T14:29:58.665Z</time>
      </trkpt>
      <trkpt lat="45.87314" lon="-0.94917">
        <ele>8.7</ele>
        <time>2025-05-06T14:30:02.639Z</time>
      </trkpt>
      <trkpt lat="45.87311" lon="-0.94916">
        <ele>8.8</ele>
        <time>2025-05-06T14:30:06.026Z</time>
      </trkpt>
      <trkpt lat="45.87309" lon="-0.94915">
        <ele>8.8</ele>
        <time>2025-05-06T14:30:08.130Z</time>
      </trkpt>
      <trkpt lat="45.87305" lon="-0.9491">
        <ele>9</ele>
        <time>2025-05-06T14:30:14.063Z</time>
      </trkpt>
      <trkpt lat="45.87288" lon="-0.94869">
        <ele>9.5</ele>
        <time>2025-05-06T14:30:48.647Z</time>
      </trkpt>
      <trkpt lat="45.87278" lon="-0.94847">
        <ele>9.7</ele>
        <time>2025-05-06T14:31:07.445Z</time>
      </trkpt>
      <trkpt lat="45.87278" lon="-0.94847">
        <ele>9.7</ele>
        <time>2025-05-06T14:31:07.445Z</time>
      </trkpt>
      <trkpt lat="45.87278" lon="-0.94847">
        <ele>9.7</ele>
        <time>2025-05-06T14:31:07.445Z</time>
      </trkpt>
      <trkpt lat="45.87275" lon="-0.94847">
        <ele>9.8</ele>
        <time>2025-05-06T14:31:10.754Z</time>
      </trkpt>
      <trkpt lat="45.87255" lon="-0.94848">
        <ele>10.2</ele>
        <time>2025-05-06T14:31:31.911Z</time>
      </trkpt>
      <trkpt lat="45.87255" lon="-0.94848">
        <ele>10.2</ele>
        <time>2025-05-06T14:31:31.911Z</time>
      </trkpt>
      <trkpt lat="45.87255" lon="-0.94848">
        <ele>10.2</ele>
        <time>2025-05-06T14:31:31.911Z</time>
      </trkpt>
      <trkpt lat="45.87253" lon="-0.94848">
        <ele>10.3</ele>
        <time>2025-05-06T14:31:34.240Z</time>
      </trkpt>
      <trkpt lat="45.87237" lon="-0.94849">
        <ele>10.4</ele>
        <time>2025-05-06T14:31:50.459Z</time>
      </trkpt>
      <trkpt lat="45.87228" lon="-0.94847">
        <ele>10.4</ele>
        <time>2025-05-06T14:31:59.506Z</time>
      </trkpt>
      <trkpt lat="45.87223" lon="-0.94845">
        <ele>10.5</ele>
        <time>2025-05-06T14:32:04.981Z</time>
      </trkpt>
      <trkpt lat="45.87223" lon="-0.94845">
        <ele>10.5</ele>
        <time>2025-05-06T14:32:04.981Z</time>
      </trkpt>
      <trkpt lat="45.87223" lon="-0.94845">
        <ele>10.5</ele>
        <time>2025-05-06T14:32:04.981Z</time>
      </trkpt>
      <trkpt lat="45.8722" lon="-0.94842">
        <ele>10.5</ele>
        <time>2025-05-06T14:32:08.612Z</time>
      </trkpt>
      <trkpt lat="45.87218" lon="-0.9484">
        <ele>10.5</ele>
        <time>2025-05-06T14:32:11.033Z</time>
      </trkpt>
      <trkpt lat="45.87213" lon="-0.94835">
        <ele>10.5</ele>
        <time>2025-05-06T14:32:17.085Z</time>
      </trkpt>
      <trkpt lat="45.87203" lon="-0.94816">
        <ele>10.7</ele>
        <time>2025-05-06T14:32:34.186Z</time>
      </trkpt>
      <trkpt lat="45.87192" lon="-0.94788">
        <ele>10.8</ele>
        <time>2025-05-06T14:32:56.731Z</time>
      </trkpt>
      <trkpt lat="45.87183" lon="-0.94757">
        <ele>11</ele>
        <time>2025-05-06T14:33:20.584Z</time>
      </trkpt>
      <trkpt lat="45.87178" lon="-0.9473">
        <ele>11</ele>
        <time>2025-05-06T14:33:39.908Z</time>
      </trkpt>
      <trkpt lat="45.87176" lon="-0.94693">
        <ele>11</ele>
        <time>2025-05-06T14:34:05.576Z</time>
      </trkpt>
      <trkpt lat="45.87178" lon="-0.94666">
        <ele>10.7</ele>
        <time>2025-05-06T14:34:23.469Z</time>
      </trkpt>
      <trkpt lat="45.87178" lon="-0.94641">
        <ele>10.8</ele>
        <time>2025-05-06T14:34:41.070Z</time>
      </trkpt>
      <trkpt lat="45.87178" lon="-0.94624">
        <ele>10.7</ele>
        <time>2025-05-06T14:34:52.528Z</time>
      </trkpt>
      <trkpt lat="45.87175" lon="-0.94605">
        <ele>10.4</ele>
        <time>2025-05-06T14:35:05.128Z</time>
      </trkpt>
      <trkpt lat="45.87174" lon="-0.946">
        <ele>10.3</ele>
        <time>2025-05-06T14:35:08.438Z</time>
      </trkpt>
      <trkpt lat="45.87171" lon="-0.9459">
        <ele>10.2</ele>
        <time>2025-05-06T14:35:15.671Z</time>
      </trkpt>
      <trkpt lat="45.87168" lon="-0.9457">
        <ele>9.9</ele>
        <time>2025-05-06T14:35:28.945Z</time>
      </trkpt>
      <trkpt lat="45.87162" lon="-0.94542">
        <ele>9.5</ele>
        <time>2025-05-06T14:35:48.034Z</time>
      </trkpt>
      <trkpt lat="45.87155" lon="-0.9451">
        <ele>8.1</ele>
        <time>2025-05-06T14:36:08.334Z</time>
      </trkpt>
      <trkpt lat="45.87151" lon="-0.94488">
        <ele>7.3</ele>
        <time>2025-05-06T14:36:22.095Z</time>
      </trkpt>
      <trkpt lat="45.8715" lon="-0.94482">
        <ele>7.2</ele>
        <time>2025-05-06T14:36:26.071Z</time>
      </trkpt>
      <trkpt lat="45.87148" lon="-0.94463">
        <ele>7.1</ele>
        <time>2025-05-06T14:36:39.061Z</time>
      </trkpt>
      <trkpt lat="45.87148" lon="-0.9446">
        <ele>7.1</ele>
        <time>2025-05-06T14:36:41.135Z</time>
      </trkpt>
      <trkpt lat="45.87148" lon="-0.9446">
        <ele>7.1</ele>
        <time>2025-05-06T14:36:41.135Z</time>
      </trkpt>
      <trkpt lat="45.87148" lon="-0.9446">
        <ele>7.1</ele>
        <time>2025-05-06T14:36:41.135Z</time>
      </trkpt>
      <trkpt lat="45.87145" lon="-0.94442">
        <ele>7.2</ele>
        <time>2025-05-06T14:36:54.248Z</time>
      </trkpt>
      <trkpt lat="45.87143" lon="-0.94427">
        <ele>7.6</ele>
        <time>2025-05-06T14:37:06.141Z</time>
      </trkpt>
      <trkpt lat="45.87143" lon="-0.94418">
        <ele>7.8</ele>
        <time>2025-05-06T14:37:13.022Z</time>
      </trkpt>
      <trkpt lat="45.8714" lon="-0.944">
        <ele>8.3</ele>
        <time>2025-05-06T14:37:27.490Z</time>
      </trkpt>
      <trkpt lat="45.8714" lon="-0.944">
        <ele>8.3</ele>
        <time>2025-05-06T14:37:27.490Z</time>
      </trkpt>
      <trkpt lat="45.8714" lon="-0.944">
        <ele>8.3</ele>
        <time>2025-05-06T14:37:27.490Z</time>
      </trkpt>
      <trkpt lat="45.87133" lon="-0.94395">
        <ele>8.3</ele>
        <time>2025-05-06T14:37:35.256Z</time>
      </trkpt>
      <trkpt lat="45.87124" lon="-0.94384">
        <ele>8.6</ele>
        <time>2025-05-06T14:37:47.965Z</time>
      </trkpt>
      <trkpt lat="45.87121" lon="-0.9438">
        <ele>8.8</ele>
        <time>2025-05-06T14:37:52.714Z</time>
      </trkpt>
      <trkpt lat="45.87121" lon="-0.9438">
        <ele>8.8</ele>
        <time>2025-05-06T14:37:52.714Z</time>
      </trkpt>
      <trkpt lat="45.87121" lon="-0.9438">
        <ele>8.8</ele>
        <time>2025-05-06T14:37:52.714Z</time>
      </trkpt>
      <trkpt lat="45.8711" lon="-0.94362">
        <ele>9.3</ele>
        <time>2025-05-06T14:38:10.912Z</time>
      </trkpt>
      <trkpt lat="45.871" lon="-0.94346">
        <ele>9.3</ele>
        <time>2025-05-06T14:38:25.783Z</time>
      </trkpt>
      <trkpt lat="45.87098" lon="-0.94343">
        <ele>9.3</ele>
        <time>2025-05-06T14:38:28.656Z</time>
      </trkpt>
      <trkpt lat="45.87098" lon="-0.94343">
        <ele>9.3</ele>
        <time>2025-05-06T14:38:28.656Z</time>
      </trkpt>
      <trkpt lat="45.87098" lon="-0.94343">
        <ele>9.3</ele>
        <time>2025-05-06T14:38:28.656Z</time>
      </trkpt>
      <trkpt lat="45.87086" lon="-0.94321">
        <ele>9.6</ele>
        <time>2025-05-06T14:38:48.934Z</time>
      </trkpt>
      <trkpt lat="45.8708" lon="-0.94305">
        <ele>9.6</ele>
        <time>2025-05-06T14:39:01.504Z</time>
      </trkpt>
      <trkpt lat="45.87074" lon="-0.94289">
        <ele>9.8</ele>
        <time>2025-05-06T14:39:14.707Z</time>
      </trkpt>
      <trkpt lat="45.87073" lon="-0.94287">
        <ele>9.9</ele>
        <time>2025-05-06T14:39:16.758Z</time>
      </trkpt>
      <trkpt lat="45.87069" lon="-0.94273">
        <ele>10.1</ele>
        <time>2025-05-06T14:39:27.863Z</time>
      </trkpt>
      <trkpt lat="45.87064" lon="-0.94256">
        <ele>10.2</ele>
        <time>2025-05-06T14:39:40.938Z</time>
      </trkpt>
      <trkpt lat="45.87059" lon="-0.94245">
        <ele>10.1</ele>
        <time>2025-05-06T14:39:49.725Z</time>
      </trkpt>
      <trkpt lat="45.87043" lon="-0.94214">
        <ele>10.4</ele>
        <time>2025-05-06T14:40:17.355Z</time>
      </trkpt>
      <trkpt lat="45.87023" lon="-0.9418">
        <ele>10.4</ele>
        <time>2025-05-06T14:40:48.141Z</time>
      </trkpt>
      <trkpt lat="45.86997" lon="-0.94139">
        <ele>10.3</ele>
        <time>2025-05-06T14:41:26.194Z</time>
      </trkpt>
      <trkpt lat="45.86985" lon="-0.94119">
        <ele>10.3</ele>
        <time>2025-05-06T14:41:44.455Z</time>
      </trkpt>
      <trkpt lat="45.86979" lon="-0.9411">
        <ele>10.4</ele>
        <time>2025-05-06T14:41:53.386Z</time>
      </trkpt>
      <trkpt lat="45.86976" lon="-0.94106">
        <ele>10.3</ele>
        <time>2025-05-06T14:41:57.163Z</time>
      </trkpt>
      <trkpt lat="45.86964" lon="-0.94089">
        <ele>10</ele>
        <time>2025-05-06T14:42:13.023Z</time>
      </trkpt>
      <trkpt lat="45.86964" lon="-0.94089">
        <ele>10</ele>
        <time>2025-05-06T14:42:13.023Z</time>
      </trkpt>
      <trkpt lat="45.86964" lon="-0.94089">
        <ele>10</ele>
        <time>2025-05-06T14:42:13.023Z</time>
      </trkpt>
      <trkpt lat="45.86952" lon="-0.94072">
        <ele>10</ele>
        <time>2025-05-06T14:42:29.767Z</time>
      </trkpt>
      <trkpt lat="45.86934" lon="-0.94046">
        <ele>9.8</ele>
        <time>2025-05-06T14:42:54.526Z</time>
      </trkpt>
      <trkpt lat="45.86929" lon="-0.94039">
        <ele>9.9</ele>
        <time>2025-05-06T14:43:01.778Z</time>
      </trkpt>
      <trkpt lat="45.86921" lon="-0.94027">
        <ele>10</ele>
        <time>2025-05-06T14:43:13.580Z</time>
      </trkpt>
      <trkpt lat="45.86912" lon="-0.94015">
        <ele>9.9</ele>
        <time>2025-05-06T14:43:25.479Z</time>
      </trkpt>
      <trkpt lat="45.86903" lon="-0.94005">
        <ele>9.8</ele>
        <time>2025-05-06T14:43:36.483Z</time>
      </trkpt>
      <trkpt lat="45.86883" lon="-0.93986">
        <ele>9.9</ele>
        <time>2025-05-06T14:44:00.612Z</time>
      </trkpt>
      <trkpt lat="45.86864" lon="-0.93968">
        <ele>10.1</ele>
        <time>2025-05-06T14:44:23.846Z</time>
      </trkpt>
      <trkpt lat="45.86843" lon="-0.93947">
        <ele>10.1</ele>
        <time>2025-05-06T14:44:49.266Z</time>
      </trkpt>
      <trkpt lat="45.86822" lon="-0.93927">
        <ele>10.1</ele>
        <time>2025-05-06T14:45:14.297Z</time>
      </trkpt>
      <trkpt lat="45.86792" lon="-0.93898">
        <ele>10.2</ele>
        <time>2025-05-06T14:45:50.527Z</time>
      </trkpt>
      <trkpt lat="45.86786" lon="-0.93892">
        <ele>10.1</ele>
        <time>2025-05-06T14:45:57.493Z</time>
      </trkpt>
      <trkpt lat="45.86786" lon="-0.93892">
        <ele>10.1</ele>
        <time>2025-05-06T14:45:57.493Z</time>
      </trkpt>
      <trkpt lat="45.86786" lon="-0.93892">
        <ele>10.1</ele>
        <time>2025-05-06T14:45:57.493Z</time>
      </trkpt>
      <trkpt lat="45.86774" lon="-0.93881">
        <ele>9.9</ele>
        <time>2025-05-06T14:46:11.041Z</time>
      </trkpt>
      <trkpt lat="45.86755" lon="-0.93865">
        <ele>10</ele>
        <time>2025-05-06T14:46:33.230Z</time>
      </trkpt>
      <trkpt lat="45.86754" lon="-0.93865">
        <ele>10</ele>
        <time>2025-05-06T14:46:34.223Z</time>
      </trkpt>
      <trkpt lat="45.86721" lon="-0.93839">
        <ele>10</ele>
        <time>2025-05-06T14:47:11.613Z</time>
      </trkpt>
      <trkpt lat="45.86692" lon="-0.93816">
        <ele>10.1</ele>
        <time>2025-05-06T14:47:44.830Z</time>
      </trkpt>
      <trkpt lat="45.86667" lon="-0.93794">
        <ele>10.4</ele>
        <time>2025-05-06T14:48:14.894Z</time>
      </trkpt>
      <trkpt lat="45.86643" lon="-0.93774">
        <ele>10.9</ele>
        <time>2025-05-06T14:48:44.048Z</time>
      </trkpt>
      <trkpt lat="45.86623" lon="-0.93754">
        <ele>11.3</ele>
        <time>2025-05-06T14:49:09.526Z</time>
      </trkpt>
      <trkpt lat="45.86611" lon="-0.93741">
        <ele>11.5</ele>
        <time>2025-05-06T14:49:25.087Z</time>
      </trkpt>
      <trkpt lat="45.86603" lon="-0.93731">
        <ele>11.7</ele>
        <time>2025-05-06T14:49:36.260Z</time>
      </trkpt>
      <trkpt lat="45.86593" lon="-0.9371">
        <ele>12</ele>
        <time>2025-05-06T14:49:54.810Z</time>
      </trkpt>
      <trkpt lat="45.86583" lon="-0.93689">
        <ele>12.4</ele>
        <time>2025-05-06T14:50:13.693Z</time>
      </trkpt>
      <trkpt lat="45.86574" lon="-0.9367">
        <ele>12.7</ele>
        <time>2025-05-06T14:50:30.544Z</time>
      </trkpt>
      <trkpt lat="45.86565" lon="-0.93649">
        <ele>12.8</ele>
        <time>2025-05-06T14:50:47.911Z</time>
      </trkpt>
      <trkpt lat="45.86552" lon="-0.93628">
        <ele>13.2</ele>
        <time>2025-05-06T14:51:08.627Z</time>
      </trkpt>
      <trkpt lat="45.86534" lon="-0.93603">
        <ele>13.4</ele>
        <time>2025-05-06T14:51:34.124Z</time>
      </trkpt>
      <trkpt lat="45.86515" lon="-0.93579">
        <ele>13.8</ele>
        <time>2025-05-06T14:52:00.526Z</time>
      </trkpt>
      <trkpt lat="45.86497" lon="-0.93555">
        <ele>14</ele>
        <time>2025-05-06T14:52:25.548Z</time>
      </trkpt>
      <trkpt lat="45.86476" lon="-0.93529">
        <ele>14.3</ele>
        <time>2025-05-06T14:52:54.031Z</time>
      </trkpt>
      <trkpt lat="45.86473" lon="-0.93523">
        <ele>14.4</ele>
        <time>2025-05-06T14:52:59.459Z</time>
      </trkpt>
      <trkpt lat="45.86473" lon="-0.93523">
        <ele>14.4</ele>
        <time>2025-05-06T14:52:59.459Z</time>
      </trkpt>
      <trkpt lat="45.86473" lon="-0.93523">
        <ele>14.4</ele>
        <time>2025-05-06T14:52:59.459Z</time>
      </trkpt>
      <trkpt lat="45.86453" lon="-0.9355">
        <ele>13.8</ele>
        <time>2025-05-06T14:53:24.976Z</time>
      </trkpt>
      <trkpt lat="45.86453" lon="-0.9355">
        <ele>13.8</ele>
        <time>2025-05-06T14:53:24.976Z</time>
      </trkpt>
      <trkpt lat="45.86453" lon="-0.9355">
        <ele>13.8</ele>
        <time>2025-05-06T14:53:24.976Z</time>
      </trkpt>
      <trkpt lat="45.86473" lon="-0.93523">
        <ele>14.4</ele>
        <time>2025-05-06T14:53:54.169Z</time>
      </trkpt>
      <trkpt lat="45.86473" lon="-0.93523">
        <ele>14.4</ele>
        <time>2025-05-06T14:53:54.169Z</time>
      </trkpt>
      <trkpt lat="45.86473" lon="-0.93523">
        <ele>14.4</ele>
        <time>2025-05-06T14:53:54.169Z</time>
      </trkpt>
      <trkpt lat="45.86462" lon="-0.93509">
        <ele>14.4</ele>
        <time>2025-05-06T14:54:08.770Z</time>
      </trkpt>
      <trkpt lat="45.86445" lon="-0.93486">
        <ele>14.3</ele>
        <time>2025-05-06T14:54:31.668Z</time>
      </trkpt>
      <trkpt lat="45.8643" lon="-0.93462">
        <ele>14.2</ele>
        <time>2025-05-06T14:54:53.673Z</time>
      </trkpt>
      <trkpt lat="45.86419" lon="-0.93441">
        <ele>14.4</ele>
        <time>2025-05-06T14:55:12.477Z</time>
      </trkpt>
      <trkpt lat="45.86413" lon="-0.93427">
        <ele>14.3</ele>
        <time>2025-05-06T14:55:23.549Z</time>
      </trkpt>
      <trkpt lat="45.86405" lon="-0.93408">
        <ele>14.5</ele>
        <time>2025-05-06T14:55:39.537Z</time>
      </trkpt>
      <trkpt lat="45.86398" lon="-0.93389">
        <ele>14.4</ele>
        <time>2025-05-06T14:55:54.104Z</time>
      </trkpt>
      <trkpt lat="45.86392" lon="-0.93375">
        <ele>14.5</ele>
        <time>2025-05-06T14:56:05.788Z</time>
      </trkpt>
      <trkpt lat="45.86384" lon="-0.93359">
        <ele>14.6</ele>
        <time>2025-05-06T14:56:19.724Z</time>
      </trkpt>
      <trkpt lat="45.86376" lon="-0.93347">
        <ele>14.6</ele>
        <time>2025-05-06T14:56:31.216Z</time>
      </trkpt>
      <trkpt lat="45.86369" lon="-0.93339">
        <ele>14.8</ele>
        <time>2025-05-06T14:56:40.745Z</time>
      </trkpt>
      <trkpt lat="45.86361" lon="-0.93332">
        <ele>14.8</ele>
        <time>2025-05-06T14:56:50.051Z</time>
      </trkpt>
      <trkpt lat="45.86352" lon="-0.93327">
        <ele>14.8</ele>
        <time>2025-05-06T14:56:59.637Z</time>
      </trkpt>
      <trkpt lat="45.86342" lon="-0.93323">
        <ele>14.7</ele>
        <time>2025-05-06T14:57:09.649Z</time>
      </trkpt>
      <trkpt lat="45.86329" lon="-0.93321">
        <ele>14.7</ele>
        <time>2025-05-06T14:57:22.637Z</time>
      </trkpt>
      <trkpt lat="45.86316" lon="-0.93319">
        <ele>14.7</ele>
        <time>2025-05-06T14:57:35.625Z</time>
      </trkpt>
      <trkpt lat="45.8631" lon="-0.93319">
        <ele>14.7</ele>
        <time>2025-05-06T14:57:41.585Z</time>
      </trkpt>
      <trkpt lat="45.8631" lon="-0.93319">
        <ele>14.7</ele>
        <time>2025-05-06T14:57:41.585Z</time>
      </trkpt>
      <trkpt lat="45.8631" lon="-0.93319">
        <ele>14.7</ele>
        <time>2025-05-06T14:57:41.585Z</time>
      </trkpt>
      <trkpt lat="45.86273" lon="-0.93315">
        <ele>14.5</ele>
        <time>2025-05-06T14:58:17.839Z</time>
      </trkpt>
      <trkpt lat="45.86229" lon="-0.9331">
        <ele>14.5</ele>
        <time>2025-05-06T14:59:01.684Z</time>
      </trkpt>
      <trkpt lat="45.86206" lon="-0.93309">
        <ele>14.6</ele>
        <time>2025-05-06T14:59:24.850Z</time>
      </trkpt>
      <trkpt lat="45.86183" lon="-0.93307">
        <ele>14.7</ele>
        <time>2025-05-06T14:59:48.048Z</time>
      </trkpt>
      <trkpt lat="45.86161" lon="-0.93306">
        <ele>14.8</ele>
        <time>2025-05-06T15:00:10.222Z</time>
      </trkpt>
      <trkpt lat="45.86156" lon="-0.93306">
        <ele>14.8</ele>
        <time>2025-05-06T15:00:15.189Z</time>
      </trkpt>
      <trkpt lat="45.86154" lon="-0.93307">
        <ele>14.9</ele>
        <time>2025-05-06T15:00:17.633Z</time>
      </trkpt>
      <trkpt lat="45.86152" lon="-0.93307">
        <ele>14.9</ele>
        <time>2025-05-06T15:00:19.619Z</time>
      </trkpt>
      <trkpt lat="45.86142" lon="-0.9331">
        <ele>14.9</ele>
        <time>2025-05-06T15:00:29.768Z</time>
      </trkpt>
      <trkpt lat="45.86138" lon="-0.93311">
        <ele>14.9</ele>
        <time>2025-05-06T15:00:33.801Z</time>
      </trkpt>
      <trkpt lat="45.86138" lon="-0.93311">
        <ele>14.9</ele>
        <time>2025-05-06T15:00:33.801Z</time>
      </trkpt>
      <trkpt lat="45.86138" lon="-0.93311">
        <ele>14.9</ele>
        <time>2025-05-06T15:00:33.801Z</time>
      </trkpt>
      <trkpt lat="45.86117" lon="-0.93318">
        <ele>15.1</ele>
        <time>2025-05-06T15:00:55.840Z</time>
      </trkpt>
      <trkpt lat="45.86103" lon="-0.93323">
        <ele>15.1</ele>
        <time>2025-05-06T15:01:10.171Z</time>
      </trkpt>
      <trkpt lat="45.86092" lon="-0.93325">
        <ele>15.2</ele>
        <time>2025-05-06T15:01:21.497Z</time>
      </trkpt>
      <trkpt lat="45.86071" lon="-0.93329">
        <ele>15.4</ele>
        <time>2025-05-06T15:01:43.165Z</time>
      </trkpt>
      <trkpt lat="45.86036" lon="-0.93331">
        <ele>16</ele>
        <time>2025-05-06T15:02:19.865Z</time>
      </trkpt>
      <trkpt lat="45.86" lon="-0.93332">
        <ele>16.6</ele>
        <time>2025-05-06T15:02:57.536Z</time>
      </trkpt>
      <trkpt lat="45.85964" lon="-0.93331">
        <ele>17.1</ele>
        <time>2025-05-06T15:03:34.880Z</time>
      </trkpt>
      <trkpt lat="45.85959" lon="-0.93331">
        <ele>17.2</ele>
        <time>2025-05-06T15:03:40.166Z</time>
      </trkpt>
      <trkpt lat="45.85936" lon="-0.9333">
        <ele>17.4</ele>
        <time>2025-05-06T15:04:03.647Z</time>
      </trkpt>
      <trkpt lat="45.85927" lon="-0.93328">
        <ele>17.5</ele>
        <time>2025-05-06T15:04:13.007Z</time>
      </trkpt>
      <trkpt lat="45.85917" lon="-0.93325">
        <ele>17.5</ele>
        <time>2025-05-06T15:04:23.155Z</time>
      </trkpt>
      <trkpt lat="45.8591" lon="-0.93322">
        <ele>17.6</ele>
        <time>2025-05-06T15:04:30.727Z</time>
      </trkpt>
      <trkpt lat="45.85904" lon="-0.93317">
        <ele>17.7</ele>
        <time>2025-05-06T15:04:37.934Z</time>
      </trkpt>
      <trkpt lat="45.85902" lon="-0.93315">
        <ele>17.7</ele>
        <time>2025-05-06T15:04:40.355Z</time>
      </trkpt>
      <trkpt lat="45.85902" lon="-0.93315">
        <ele>17.7</ele>
        <time>2025-05-06T15:04:40.355Z</time>
      </trkpt>
      <trkpt lat="45.85902" lon="-0.93315">
        <ele>17.7</ele>
        <time>2025-05-06T15:04:40.355Z</time>
      </trkpt>
      <trkpt lat="45.85903" lon="-0.93327">
        <ele>17.7</ele>
        <time>2025-05-06T15:04:48.716Z</time>
      </trkpt>
      <trkpt lat="45.85904" lon="-0.93343">
        <ele>17.7</ele>
        <time>2025-05-06T15:04:59.829Z</time>
      </trkpt>
      <trkpt lat="45.85905" lon="-0.93351">
        <ele>17.7</ele>
        <time>2025-05-06T15:05:05.452Z</time>
      </trkpt>
      <trkpt lat="45.85906" lon="-0.93354">
        <ele>17.7</ele>
        <time>2025-05-06T15:05:07.753Z</time>
      </trkpt>
      <trkpt lat="45.85917" lon="-0.93396">
        <ele>17.8</ele>
        <time>2025-05-06T15:05:39.104Z</time>
      </trkpt>
      <trkpt lat="45.85925" lon="-0.93423">
        <ele>17.8</ele>
        <time>2025-05-06T15:05:59.403Z</time>
      </trkpt>
      <trkpt lat="45.85917" lon="-0.93396">
        <ele>17.8</ele>
        <time>2025-05-06T15:06:19.702Z</time>
      </trkpt>
      <trkpt lat="45.85906" lon="-0.93354">
        <ele>17.7</ele>
        <time>2025-05-06T15:06:50.441Z</time>
      </trkpt>
      <trkpt lat="45.85905" lon="-0.93351">
        <ele>17.7</ele>
        <time>2025-05-06T15:06:52.742Z</time>
      </trkpt>
      <trkpt lat="45.85904" lon="-0.93343">
        <ele>17.7</ele>
        <time>2025-05-06T15:06:58.364Z</time>
      </trkpt>
      <trkpt lat="45.85903" lon="-0.93327">
        <ele>17.7</ele>
        <time>2025-05-06T15:07:09.478Z</time>
      </trkpt>
      <trkpt lat="45.85902" lon="-0.93315">
        <ele>17.7</ele>
        <time>2025-05-06T15:07:17.839Z</time>
      </trkpt>
      <trkpt lat="45.85902" lon="-0.93315">
        <ele>17.7</ele>
        <time>2025-05-06T15:07:17.839Z</time>
      </trkpt>
      <trkpt lat="45.85902" lon="-0.93315">
        <ele>17.7</ele>
        <time>2025-05-06T15:07:17.839Z</time>
      </trkpt>
      <trkpt lat="45.85899" lon="-0.93311">
        <ele>17.7</ele>
        <time>2025-05-06T15:07:21.906Z</time>
      </trkpt>
      <trkpt lat="45.8589" lon="-0.93306">
        <ele>17.9</ele>
        <time>2025-05-06T15:07:32.132Z</time>
      </trkpt>
      <trkpt lat="45.8589" lon="-0.93306">
        <ele>17.9</ele>
        <time>2025-05-06T15:07:32.132Z</time>
      </trkpt>
      <trkpt lat="45.85888" lon="-0.93306">
        <ele>17.9</ele>
        <time>2025-05-06T15:07:34.118Z</time>
      </trkpt>
      <trkpt lat="45.85885" lon="-0.93307">
        <ele>17.9</ele>
        <time>2025-05-06T15:07:37.178Z</time>
      </trkpt>
      <trkpt lat="45.85878" lon="-0.93308">
        <ele>17.9</ele>
        <time>2025-05-06T15:07:44.166Z</time>
      </trkpt>
      <trkpt lat="45.85873" lon="-0.93311">
        <ele>17.9</ele>
        <time>2025-05-06T15:07:49.549Z</time>
      </trkpt>
      <trkpt lat="45.85873" lon="-0.93311">
        <ele>17.9</ele>
        <time>2025-05-06T15:07:49.549Z</time>
      </trkpt>
      <trkpt lat="45.85873" lon="-0.93311">
        <ele>17.9</ele>
        <time>2025-05-06T15:07:49.549Z</time>
      </trkpt>
      <trkpt lat="45.85868" lon="-0.93313">
        <ele>17.9</ele>
        <time>2025-05-06T15:07:54.705Z</time>
      </trkpt>
      <trkpt lat="45.85838" lon="-0.9333">
        <ele>18.2</ele>
        <time>2025-05-06T15:08:27.679Z</time>
      </trkpt>
      <trkpt lat="45.85815" lon="-0.93343">
        <ele>18.6</ele>
        <time>2025-05-06T15:08:53.500Z</time>
      </trkpt>
      <trkpt lat="45.85788" lon="-0.9336">
        <ele>18.9</ele>
        <time>2025-05-06T15:09:23.724Z</time>
      </trkpt>
      <trkpt lat="45.85763" lon="-0.93372">
        <ele>19.2</ele>
        <time>2025-05-06T15:09:50.849Z</time>
      </trkpt>
      <trkpt lat="45.85746" lon="-0.93378">
        <ele>19.3</ele>
        <time>2025-05-06T15:10:08.549Z</time>
      </trkpt>
      <trkpt lat="45.85733" lon="-0.93381">
        <ele>19.3</ele>
        <time>2025-05-06T15:10:21.628Z</time>
      </trkpt>
      <trkpt lat="45.85718" lon="-0.93383">
        <ele>19.4</ele>
        <time>2025-05-06T15:10:36.903Z</time>
      </trkpt>
      <trkpt lat="45.85711" lon="-0.93384">
        <ele>19.5</ele>
        <time>2025-05-06T15:10:44.206Z</time>
      </trkpt>
      <trkpt lat="45.85706" lon="-0.93385">
        <ele>19.5</ele>
        <time>2025-05-06T15:10:49.221Z</time>
      </trkpt>
      <trkpt lat="45.85691" lon="-0.93389">
        <ele>19.6</ele>
        <time>2025-05-06T15:11:04.687Z</time>
      </trkpt>
      <trkpt lat="45.85691" lon="-0.93389">
        <ele>19.6</ele>
        <time>2025-05-06T15:11:04.687Z</time>
      </trkpt>
      <trkpt lat="45.85691" lon="-0.93389">
        <ele>19.6</ele>
        <time>2025-05-06T15:11:04.687Z</time>
      </trkpt>
      <trkpt lat="45.85676" lon="-0.93394">
        <ele>19.7</ele>
        <time>2025-05-06T15:11:20.294Z</time>
      </trkpt>
      <trkpt lat="45.85652" lon="-0.93405">
        <ele>19.7</ele>
        <time>2025-05-06T15:11:45.320Z</time>
      </trkpt>
      <trkpt lat="45.85628" lon="-0.93415">
        <ele>19.6</ele>
        <time>2025-05-06T15:12:09.841Z</time>
      </trkpt>
      <trkpt lat="45.85586" lon="-0.93438">
        <ele>19.6</ele>
        <time>2025-05-06T15:12:54.494Z</time>
      </trkpt>
      <trkpt lat="45.8556" lon="-0.93453">
        <ele>19.7</ele>
        <time>2025-05-06T15:13:22.637Z</time>
      </trkpt>
      <trkpt lat="45.85535" lon="-0.93467">
        <ele>19.7</ele>
        <time>2025-05-06T15:13:49.293Z</time>
      </trkpt>
      <trkpt lat="45.85505" lon="-0.93489">
        <ele>19.8</ele>
        <time>2025-05-06T15:14:23.064Z</time>
      </trkpt>
      <trkpt lat="45.85497" lon="-0.93495">
        <ele>19.9</ele>
        <time>2025-05-06T15:14:32.343Z</time>
      </trkpt>
      <trkpt lat="45.85492" lon="-0.93498">
        <ele>19.9</ele>
        <time>2025-05-06T15:14:37.726Z</time>
      </trkpt>
      <trkpt lat="45.85482" lon="-0.93505">
        <ele>19.8</ele>
        <time>2025-05-06T15:14:48.477Z</time>
      </trkpt>
      <trkpt lat="45.85453" lon="-0.93525">
        <ele>19.2</ele>
        <time>2025-05-06T15:15:18.673Z</time>
      </trkpt>
      <trkpt lat="45.85421" lon="-0.93541">
        <ele>18.7</ele>
        <time>2025-05-06T15:15:50.851Z</time>
      </trkpt>
      <trkpt lat="45.85387" lon="-0.93551">
        <ele>18</ele>
        <time>2025-05-06T15:16:23.277Z</time>
      </trkpt>
      <trkpt lat="45.85358" lon="-0.93558">
        <ele>17.3</ele>
        <time>2025-05-06T15:16:50.454Z</time>
      </trkpt>
      <trkpt lat="45.85327" lon="-0.9356">
        <ele>16.7</ele>
        <time>2025-05-06T15:17:19.519Z</time>
      </trkpt>
      <trkpt lat="45.85288" lon="-0.9356">
        <ele>16.1</ele>
        <time>2025-05-06T15:17:56.485Z</time>
      </trkpt>
      <trkpt lat="45.8526" lon="-0.93554">
        <ele>15.9</ele>
        <time>2025-05-06T15:18:24.005Z</time>
      </trkpt>
      <trkpt lat="45.85257" lon="-0.93553">
        <ele>15.9</ele>
        <time>2025-05-06T15:18:27.064Z</time>
      </trkpt>
      <trkpt lat="45.85227" lon="-0.9355">
        <ele>15.9</ele>
        <time>2025-05-06T15:18:56.938Z</time>
      </trkpt>
      <trkpt lat="45.85198" lon="-0.93549">
        <ele>16.2</ele>
        <time>2025-05-06T15:19:26.692Z</time>
      </trkpt>
      <trkpt lat="45.85168" lon="-0.93548">
        <ele>16.2</ele>
        <time>2025-05-06T15:19:56.501Z</time>
      </trkpt>
      <trkpt lat="45.85154" lon="-0.93549">
        <ele>16.3</ele>
        <time>2025-05-06T15:20:10.736Z</time>
      </trkpt>
      <trkpt lat="45.85145" lon="-0.93549">
        <ele>16.3</ele>
        <time>2025-05-06T15:20:19.676Z</time>
      </trkpt>
      <trkpt lat="45.85145" lon="-0.93549">
        <ele>16.3</ele>
        <time>2025-05-06T15:20:19.676Z</time>
      </trkpt>
      <trkpt lat="45.85145" lon="-0.93549">
        <ele>16.3</ele>
        <time>2025-05-06T15:20:19.676Z</time>
      </trkpt>
      <trkpt lat="45.85118" lon="-0.93522">
        <ele>16.1</ele>
        <time>2025-05-06T15:20:51.758Z</time>
      </trkpt>
      <trkpt lat="45.85118" lon="-0.93522">
        <ele>16.1</ele>
        <time>2025-05-06T15:20:51.758Z</time>
      </trkpt>
      <trkpt lat="45.85118" lon="-0.93522">
        <ele>16.1</ele>
        <time>2025-05-06T15:20:51.758Z</time>
      </trkpt>
      <trkpt lat="45.85091" lon="-0.93529">
        <ele>16.4</ele>
        <time>2025-05-06T15:21:19.953Z</time>
      </trkpt>
      <trkpt lat="45.85053" lon="-0.9354">
        <ele>16.1</ele>
        <time>2025-05-06T15:21:57.558Z</time>
      </trkpt>
      <trkpt lat="45.85028" lon="-0.93544">
        <ele>15.1</ele>
        <time>2025-05-06T15:22:19.733Z</time>
      </trkpt>
      <trkpt lat="45.85028" lon="-0.93544">
        <ele>15.1</ele>
        <time>2025-05-06T15:22:19.733Z</time>
      </trkpt>
      <trkpt lat="45.84999" lon="-0.93544">
        <ele>13.4</ele>
        <time>2025-05-06T15:22:44.940Z</time>
      </trkpt>
      <trkpt lat="45.84976" lon="-0.93542">
        <ele>12.5</ele>
        <time>2025-05-06T15:23:05.294Z</time>
      </trkpt>
      <trkpt lat="45.84953" lon="-0.93541">
        <ele>11.8</ele>
        <time>2025-05-06T15:23:26.145Z</time>
      </trkpt>
      <trkpt lat="45.84918" lon="-0.93542">
        <ele>11.2</ele>
        <time>2025-05-06T15:23:59.151Z</time>
      </trkpt>
      <trkpt lat="45.84883" lon="-0.93543">
        <ele>10.8</ele>
        <time>2025-05-06T15:24:32.732Z</time>
      </trkpt>
      <trkpt lat="45.84855" lon="-0.93539">
        <ele>10.4</ele>
        <time>2025-05-06T15:24:59.498Z</time>
      </trkpt>
      <trkpt lat="45.84823" lon="-0.93528">
        <ele>10.3</ele>
        <time>2025-05-06T15:25:31.880Z</time>
      </trkpt>
      <trkpt lat="45.84797" lon="-0.93515">
        <ele>10.4</ele>
        <time>2025-05-06T15:25:59.538Z</time>
      </trkpt>
      <trkpt lat="45.84797" lon="-0.93515">
        <ele>10.4</ele>
        <time>2025-05-06T15:25:59.538Z</time>
      </trkpt>
      <trkpt lat="45.84797" lon="-0.93515">
        <ele>10.4</ele>
        <time>2025-05-06T15:25:59.538Z</time>
      </trkpt>
      <trkpt lat="45.84791" lon="-0.93514">
        <ele>10.5</ele>
        <time>2025-05-06T15:26:05.855Z</time>
      </trkpt>
      <trkpt lat="45.84797" lon="-0.93515">
        <ele>10.4</ele>
        <time>2025-05-06T15:26:11.560Z</time>
      </trkpt>
      <trkpt lat="45.84797" lon="-0.93515">
        <ele>10.4</ele>
        <time>2025-05-06T15:26:11.560Z</time>
      </trkpt>
      <trkpt lat="45.84797" lon="-0.93515">
        <ele>10.4</ele>
        <time>2025-05-06T15:26:11.560Z</time>
      </trkpt>
      <trkpt lat="45.84804" lon="-0.93497">
        <ele>10</ele>
        <time>2025-05-06T15:26:24.672Z</time>
      </trkpt>
      <trkpt lat="45.8481" lon="-0.93471">
        <ele>9.7</ele>
        <time>2025-05-06T15:26:42.737Z</time>
      </trkpt>
      <trkpt lat="45.84812" lon="-0.93448">
        <ele>9.5</ele>
        <time>2025-05-06T15:26:58.179Z</time>
      </trkpt>
      <trkpt lat="45.84811" lon="-0.93414">
        <ele>9.2</ele>
        <time>2025-05-06T15:27:20.834Z</time>
      </trkpt>
      <trkpt lat="45.84811" lon="-0.93389">
        <ele>9</ele>
        <time>2025-05-06T15:27:37.535Z</time>
      </trkpt>
      <trkpt lat="45.84812" lon="-0.93383">
        <ele>9</ele>
        <time>2025-05-06T15:27:41.804Z</time>
      </trkpt>
      <trkpt lat="45.84818" lon="-0.93347">
        <ele>8.6</ele>
        <time>2025-05-06T15:28:06.234Z</time>
      </trkpt>
      <trkpt lat="45.8482" lon="-0.93326">
        <ele>8.7</ele>
        <time>2025-05-06T15:28:21.210Z</time>
      </trkpt>
      <trkpt lat="45.84819" lon="-0.93297">
        <ele>9.8</ele>
        <time>2025-05-06T15:28:45.101Z</time>
      </trkpt>
      <trkpt lat="45.84811" lon="-0.93256">
        <ele>9</ele>
        <time>2025-05-06T15:29:12.253Z</time>
      </trkpt>
      <trkpt lat="45.8481" lon="-0.93228">
        <ele>9.6</ele>
        <time>2025-05-06T15:29:33.616Z</time>
      </trkpt>
      <trkpt lat="45.84812" lon="-0.93201">
        <ele>9</ele>
        <time>2025-05-06T15:29:50.688Z</time>
      </trkpt>
      <trkpt lat="45.84816" lon="-0.9319">
        <ele>8.1</ele>
        <time>2025-05-06T15:29:58.201Z</time>
      </trkpt>
      <trkpt lat="45.84822" lon="-0.93174">
        <ele>7.6</ele>
        <time>2025-05-06T15:30:09.368Z</time>
      </trkpt>
      <trkpt lat="45.84822" lon="-0.93174">
        <ele>7.6</ele>
        <time>2025-05-06T15:30:09.368Z</time>
      </trkpt>
      <trkpt lat="45.84822" lon="-0.93174">
        <ele>7.6</ele>
        <time>2025-05-06T15:30:09.368Z</time>
      </trkpt>
      <trkpt lat="45.84817" lon="-0.93168">
        <ele>6.4</ele>
        <time>2025-05-06T15:30:15.032Z</time>
      </trkpt>
      <trkpt lat="45.84814" lon="-0.93165">
        <ele>6.1</ele>
        <time>2025-05-06T15:30:18.210Z</time>
      </trkpt>
      <trkpt lat="45.84811" lon="-0.93162">
        <ele>5.8</ele>
        <time>2025-05-06T15:30:21.388Z</time>
      </trkpt>
      <trkpt lat="45.84783" lon="-0.93132">
        <ele>7.4</ele>
        <time>2025-05-06T15:31:01.513Z</time>
      </trkpt>
      <trkpt lat="45.84762" lon="-0.9311">
        <ele>6.5</ele>
        <time>2025-05-06T15:31:24.779Z</time>
      </trkpt>
      <trkpt lat="45.84741" lon="-0.93088">
        <ele>8.8</ele>
        <time>2025-05-06T15:31:59.221Z</time>
      </trkpt>
      <trkpt lat="45.84741" lon="-0.93088">
        <ele>8.8</ele>
        <time>2025-05-06T15:31:59.221Z</time>
      </trkpt>
      <trkpt lat="45.84741" lon="-0.93088">
        <ele>8.8</ele>
        <time>2025-05-06T15:31:59.221Z</time>
      </trkpt>
      <trkpt lat="45.84747" lon="-0.93079">
        <ele>9.1</ele>
        <time>2025-05-06T15:32:08.832Z</time>
      </trkpt>
      <trkpt lat="45.84753" lon="-0.93073">
        <ele>9.1</ele>
        <time>2025-05-06T15:32:16.095Z</time>
      </trkpt>
      <trkpt lat="45.84759" lon="-0.9307">
        <ele>9.1</ele>
        <time>2025-05-06T15:32:22.407Z</time>
      </trkpt>
      <trkpt lat="45.84785" lon="-0.93074">
        <ele>8.5</ele>
        <time>2025-05-06T15:32:46.635Z</time>
      </trkpt>
      <trkpt lat="45.84798" lon="-0.93076">
        <ele>8.5</ele>
        <time>2025-05-06T15:32:59.623Z</time>
      </trkpt>
      <trkpt lat="45.84798" lon="-0.93076">
        <ele>8.5</ele>
        <time>2025-05-06T15:32:59.623Z</time>
      </trkpt>
      <trkpt lat="45.84798" lon="-0.93076">
        <ele>8.5</ele>
        <time>2025-05-06T15:32:59.623Z</time>
      </trkpt>
      <trkpt lat="45.84793" lon="-0.93057">
        <ele>8.9</ele>
        <time>2025-05-06T15:33:14.978Z</time>
      </trkpt>
      <trkpt lat="45.84777" lon="-0.93021">
        <ele>9.6</ele>
        <time>2025-05-06T15:33:46.781Z</time>
      </trkpt>
      <trkpt lat="45.84761" lon="-0.92986">
        <ele>9.6</ele>
        <time>2025-05-06T15:34:15.749Z</time>
      </trkpt>
      <trkpt lat="45.84747" lon="-0.92955">
        <ele>9.8</ele>
        <time>2025-05-06T15:34:41.935Z</time>
      </trkpt>
      <trkpt lat="45.84745" lon="-0.92943">
        <ele>10.1</ele>
        <time>2025-05-06T15:34:51.464Z</time>
      </trkpt>
      <trkpt lat="45.84739" lon="-0.92918">
        <ele>11.4</ele>
        <time>2025-05-06T15:35:14.426Z</time>
      </trkpt>
      <trkpt lat="45.84733" lon="-0.92895">
        <ele>12.2</ele>
        <time>2025-05-06T15:35:34.136Z</time>
      </trkpt>
      <trkpt lat="45.84724" lon="-0.9286">
        <ele>13.1</ele>
        <time>2025-05-06T15:36:02.923Z</time>
      </trkpt>
      <trkpt lat="45.84724" lon="-0.9286">
        <ele>13.1</ele>
        <time>2025-05-06T15:36:02.923Z</time>
      </trkpt>
      <trkpt lat="45.84724" lon="-0.9286">
        <ele>13.1</ele>
        <time>2025-05-06T15:36:02.923Z</time>
      </trkpt>
      <trkpt lat="45.84721" lon="-0.92834">
        <ele>13.5</ele>
        <time>2025-05-06T15:36:22.442Z</time>
      </trkpt>
      <trkpt lat="45.84718" lon="-0.92821">
        <ele>13.6</ele>
        <time>2025-05-06T15:36:32.231Z</time>
      </trkpt>
      <trkpt lat="45.84715" lon="-0.92807">
        <ele>13.7</ele>
        <time>2025-05-06T15:36:42.679Z</time>
      </trkpt>
      <trkpt lat="45.84713" lon="-0.92794">
        <ele>14</ele>
        <time>2025-05-06T15:36:52.876Z</time>
      </trkpt>
      <trkpt lat="45.84697" lon="-0.92751">
        <ele>14.6</ele>
        <time>2025-05-06T15:37:28.516Z</time>
      </trkpt>
      <trkpt lat="45.84685" lon="-0.92722">
        <ele>15</ele>
        <time>2025-05-06T15:37:53.126Z</time>
      </trkpt>
      <trkpt lat="45.84674" lon="-0.92698">
        <ele>15.4</ele>
        <time>2025-05-06T15:38:14.284Z</time>
      </trkpt>
      <trkpt lat="45.84658" lon="-0.92667">
        <ele>15.7</ele>
        <time>2025-05-06T15:38:41.921Z</time>
      </trkpt>
      <trkpt lat="45.84645" lon="-0.9264">
        <ele>16.1</ele>
        <time>2025-05-06T15:39:05.904Z</time>
      </trkpt>
      <trkpt lat="45.84633" lon="-0.92612">
        <ele>16.3</ele>
        <time>2025-05-06T15:39:29.275Z</time>
      </trkpt>
      <trkpt lat="45.84622" lon="-0.92583">
        <ele>16.8</ele>
        <time>2025-05-06T15:39:53.728Z</time>
      </trkpt>
      <trkpt lat="45.84606" lon="-0.92527">
        <ele>17.6</ele>
        <time>2025-05-06T15:40:38.161Z</time>
      </trkpt>
      <trkpt lat="45.84599" lon="-0.92495">
        <ele>18.1</ele>
        <time>2025-05-06T15:41:02.973Z</time>
      </trkpt>
      <trkpt lat="45.84592" lon="-0.92464">
        <ele>18.7</ele>
        <time>2025-05-06T15:41:27.467Z</time>
      </trkpt>
      <trkpt lat="45.84592" lon="-0.92462">
        <ele>18.8</ele>
        <time>2025-05-06T15:41:29.211Z</time>
      </trkpt>
      <trkpt lat="45.84579" lon="-0.92422">
        <ele>19.1</ele>
        <time>2025-05-06T15:42:00.691Z</time>
      </trkpt>
      <trkpt lat="45.84566" lon="-0.92383">
        <ele>19.8</ele>
        <time>2025-05-06T15:42:32.861Z</time>
      </trkpt>
      <trkpt lat="45.84553" lon="-0.92344">
        <ele>19.7</ele>
        <time>2025-05-06T15:43:02.475Z</time>
      </trkpt>
      <trkpt lat="45.84537" lon="-0.92298">
        <ele>20.1</ele>
        <time>2025-05-06T15:43:39.307Z</time>
      </trkpt>
      <trkpt lat="45.8452" lon="-0.92252">
        <ele>20.1</ele>
        <time>2025-05-06T15:44:15.340Z</time>
      </trkpt>
      <trkpt lat="45.84503" lon="-0.92206">
        <ele>20.4</ele>
        <time>2025-05-06T15:44:52.308Z</time>
      </trkpt>
      <trkpt lat="45.84488" lon="-0.92169">
        <ele>20.1</ele>
        <time>2025-05-06T15:45:21.034Z</time>
      </trkpt>
      <trkpt lat="45.84473" lon="-0.92132">
        <ele>20.1</ele>
        <time>2025-05-06T15:45:50.657Z</time>
      </trkpt>
      <trkpt lat="45.84473" lon="-0.92132">
        <ele>20.1</ele>
        <time>2025-05-06T15:45:50.657Z</time>
      </trkpt>
      <trkpt lat="45.84473" lon="-0.92132">
        <ele>20.1</ele>
        <time>2025-05-06T15:45:50.657Z</time>
      </trkpt>
      <trkpt lat="45.84472" lon="-0.9213">
        <ele>20.1</ele>
        <time>2025-05-06T15:45:52.361Z</time>
      </trkpt>
      <trkpt lat="45.84451" lon="-0.92099">
        <ele>20.1</ele>
        <time>2025-05-06T15:46:22.283Z</time>
      </trkpt>
      <trkpt lat="45.84421" lon="-0.92064">
        <ele>20.1</ele>
        <time>2025-05-06T15:47:00.685Z</time>
      </trkpt>
      <trkpt lat="45.84388" lon="-0.92039">
        <ele>20.5</ele>
        <time>2025-05-06T15:47:39.003Z</time>
      </trkpt>
      <trkpt lat="45.84351" lon="-0.92017">
        <ele>21.1</ele>
        <time>2025-05-06T15:48:20.681Z</time>
      </trkpt>
      <trkpt lat="45.84321" lon="-0.92006">
        <ele>21.6</ele>
        <time>2025-05-06T15:48:53.023Z</time>
      </trkpt>
      <trkpt lat="45.8429" lon="-0.91994">
        <ele>21.8</ele>
        <time>2025-05-06T15:49:25.537Z</time>
      </trkpt>
      <trkpt lat="45.84253" lon="-0.91974">
        <ele>22.3</ele>
        <time>2025-05-06T15:50:06.383Z</time>
      </trkpt>
      <trkpt lat="45.84214" lon="-0.91946">
        <ele>22.1</ele>
        <time>2025-05-06T15:50:49.094Z</time>
      </trkpt>
      <trkpt lat="45.84202" lon="-0.91929">
        <ele>22</ele>
        <time>2025-05-06T15:51:05.540Z</time>
      </trkpt>
      <trkpt lat="45.84189" lon="-0.91916">
        <ele>22</ele>
        <time>2025-05-06T15:51:21.279Z</time>
      </trkpt>
      <trkpt lat="45.84189" lon="-0.91916">
        <ele>22</ele>
        <time>2025-05-06T15:51:21.279Z</time>
      </trkpt>
      <trkpt lat="45.84189" lon="-0.91916">
        <ele>22</ele>
        <time>2025-05-06T15:51:21.279Z</time>
      </trkpt>
      <trkpt lat="45.84174" lon="-0.91879">
        <ele>21.8</ele>
        <time>2025-05-06T15:51:50.301Z</time>
      </trkpt>
      <trkpt lat="45.84161" lon="-0.91825">
        <ele>21.4</ele>
        <time>2025-05-06T15:52:28.642Z</time>
      </trkpt>
      <trkpt lat="45.84148" lon="-0.91786">
        <ele>21.3</ele>
        <time>2025-05-06T15:52:58.257Z</time>
      </trkpt>
      <trkpt lat="45.84137" lon="-0.91756">
        <ele>21.5</ele>
        <time>2025-05-06T15:53:22.341Z</time>
      </trkpt>
      <trkpt lat="45.84126" lon="-0.91725">
        <ele>21.3</ele>
        <time>2025-05-06T15:53:45.816Z</time>
      </trkpt>
      <trkpt lat="45.84123" lon="-0.91711">
        <ele>21.1</ele>
        <time>2025-05-06T15:53:55.366Z</time>
      </trkpt>
      <trkpt lat="45.84123" lon="-0.91711">
        <ele>21.1</ele>
        <time>2025-05-06T15:53:55.366Z</time>
      </trkpt>
      <trkpt lat="45.84123" lon="-0.91711">
        <ele>21.1</ele>
        <time>2025-05-06T15:53:55.366Z</time>
      </trkpt>
      <trkpt lat="45.84112" lon="-0.91661">
        <ele>20.5</ele>
        <time>2025-05-06T15:54:29.880Z</time>
      </trkpt>
      <trkpt lat="45.84101" lon="-0.91615">
        <ele>20.1</ele>
        <time>2025-05-06T15:55:02.344Z</time>
      </trkpt>
      <trkpt lat="45.84084" lon="-0.91579">
        <ele>19.6</ele>
        <time>2025-05-06T15:55:30.965Z</time>
      </trkpt>
      <trkpt lat="45.84053" lon="-0.91533">
        <ele>18.8</ele>
        <time>2025-05-06T15:56:12.902Z</time>
      </trkpt>
      <trkpt lat="45.84046" lon="-0.91523">
        <ele>18.5</ele>
        <time>2025-05-06T15:56:21.852Z</time>
      </trkpt>
      <trkpt lat="45.84026" lon="-0.91493">
        <ele>17.9</ele>
        <time>2025-05-06T15:56:48.832Z</time>
      </trkpt>
      <trkpt lat="45.84001" lon="-0.91448">
        <ele>17.2</ele>
        <time>2025-05-06T15:57:26.602Z</time>
      </trkpt>
      <trkpt lat="45.8399" lon="-0.91434">
        <ele>16.9</ele>
        <time>2025-05-06T15:57:40.327Z</time>
      </trkpt>
      <trkpt lat="45.83978" lon="-0.91417">
        <ele>16.3</ele>
        <time>2025-05-06T15:57:55.373Z</time>
      </trkpt>
      <trkpt lat="45.83952" lon="-0.91388">
        <ele>15.6</ele>
        <time>2025-05-06T15:58:26.036Z</time>
      </trkpt>
      <trkpt lat="45.83916" lon="-0.9135">
        <ele>14.6</ele>
        <time>2025-05-06T15:59:07.510Z</time>
      </trkpt>
      <trkpt lat="45.83913" lon="-0.91347">
        <ele>14.6</ele>
        <time>2025-05-06T15:59:11.142Z</time>
      </trkpt>
      <trkpt lat="45.83888" lon="-0.91319">
        <ele>14.4</ele>
        <time>2025-05-06T15:59:42.039Z</time>
      </trkpt>
      <trkpt lat="45.83862" lon="-0.91291">
        <ele>14.8</ele>
        <time>2025-05-06T16:00:15.584Z</time>
      </trkpt>
      <trkpt lat="45.83862" lon="-0.91291">
        <ele>14.8</ele>
        <time>2025-05-06T16:00:15.584Z</time>
      </trkpt>
      <trkpt lat="45.83862" lon="-0.91291">
        <ele>14.8</ele>
        <time>2025-05-06T16:00:15.584Z</time>
      </trkpt>
      <trkpt lat="45.83855" lon="-0.91292">
        <ele>14.8</ele>
        <time>2025-05-06T16:00:22.572Z</time>
      </trkpt>
      <trkpt lat="45.83848" lon="-0.91295">
        <ele>14.7</ele>
        <time>2025-05-06T16:00:29.532Z</time>
      </trkpt>
      <trkpt lat="45.83848" lon="-0.91295">
        <ele>14.7</ele>
        <time>2025-05-06T16:00:29.532Z</time>
      </trkpt>
      <trkpt lat="45.83848" lon="-0.91295">
        <ele>14.7</ele>
        <time>2025-05-06T16:00:29.532Z</time>
      </trkpt>
      <trkpt lat="45.83846" lon="-0.9129">
        <ele>14.6</ele>
        <time>2025-05-06T16:00:33.232Z</time>
      </trkpt>
      <trkpt lat="45.83842" lon="-0.91285">
        <ele>14.5</ele>
        <time>2025-05-06T16:00:38.207Z</time>
      </trkpt>
      <trkpt lat="45.83838" lon="-0.91277">
        <ele>14.4</ele>
        <time>2025-05-06T16:00:44.725Z</time>
      </trkpt>
      <trkpt lat="45.83808" lon="-0.91233">
        <ele>14.3</ele>
        <time>2025-05-06T16:01:27.028Z</time>
      </trkpt>
      <trkpt lat="45.83778" lon="-0.91192">
        <ele>14.1</ele>
        <time>2025-05-06T16:02:07.572Z</time>
      </trkpt>
      <trkpt lat="45.83772" lon="-0.91186">
        <ele>14</ele>
        <time>2025-05-06T16:02:14.539Z</time>
      </trkpt>
      <trkpt lat="45.83754" lon="-0.91165">
        <ele>13.8</ele>
        <time>2025-05-06T16:02:36.981Z</time>
      </trkpt>
      <trkpt lat="45.83733" lon="-0.91145">
        <ele>13.6</ele>
        <time>2025-05-06T16:03:01.415Z</time>
      </trkpt>
      <trkpt lat="45.83721" lon="-0.91129">
        <ele>13.3</ele>
        <time>2025-05-06T16:03:16.803Z</time>
      </trkpt>
      <trkpt lat="45.83697" lon="-0.91096">
        <ele>12.5</ele>
        <time>2025-05-06T16:03:47.493Z</time>
      </trkpt>
      <trkpt lat="45.83673" lon="-0.91066">
        <ele>11.6</ele>
        <time>2025-05-06T16:04:16.516Z</time>
      </trkpt>
      <trkpt lat="45.83646" lon="-0.91029">
        <ele>11.2</ele>
        <time>2025-05-06T16:04:52.403Z</time>
      </trkpt>
      <trkpt lat="45.83643" lon="-0.91026">
        <ele>11.2</ele>
        <time>2025-05-06T16:04:56.035Z</time>
      </trkpt>
      <trkpt lat="45.83643" lon="-0.91026">
        <ele>11.2</ele>
        <time>2025-05-06T16:04:56.035Z</time>
      </trkpt>
      <trkpt lat="45.83643" lon="-0.91026">
        <ele>11.2</ele>
        <time>2025-05-06T16:04:56.035Z</time>
      </trkpt>
      <trkpt lat="45.8363" lon="-0.91008">
        <ele>11.9</ele>
        <time>2025-05-06T16:05:16.311Z</time>
      </trkpt>
      <trkpt lat="45.83624" lon="-0.90999">
        <ele>12.4</ele>
        <time>2025-05-06T16:05:26.672Z</time>
      </trkpt>
      <trkpt lat="45.83616" lon="-0.9099">
        <ele>12.9</ele>
        <time>2025-05-06T16:05:38.476Z</time>
      </trkpt>
      <trkpt lat="45.83609" lon="-0.90982">
        <ele>13.1</ele>
        <time>2025-05-06T16:05:48.007Z</time>
      </trkpt>
      <trkpt lat="45.83601" lon="-0.9097">
        <ele>13.4</ele>
        <time>2025-05-06T16:06:00.472Z</time>
      </trkpt>
      <trkpt lat="45.836" lon="-0.90969">
        <ele>13.4</ele>
        <time>2025-05-06T16:06:01.683Z</time>
      </trkpt>
      <trkpt lat="45.83596" lon="-0.90963">
        <ele>13.5</ele>
        <time>2025-05-06T16:06:07.748Z</time>
      </trkpt>
      <trkpt lat="45.83586" lon="-0.90948">
        <ele>13.5</ele>
        <time>2025-05-06T16:06:22.117Z</time>
      </trkpt>
      <trkpt lat="45.83574" lon="-0.90923">
        <ele>13.2</ele>
        <time>2025-05-06T16:06:42.238Z</time>
      </trkpt>
      <trkpt lat="45.83563" lon="-0.90894">
        <ele>12.8</ele>
        <time>2025-05-06T16:07:03.912Z</time>
      </trkpt>
      <trkpt lat="45.83555" lon="-0.9087">
        <ele>12.4</ele>
        <time>2025-05-06T16:07:21.157Z</time>
      </trkpt>
      <trkpt lat="45.83554" lon="-0.90869">
        <ele>12.4</ele>
        <time>2025-05-06T16:07:22.368Z</time>
      </trkpt>
      <trkpt lat="45.83551" lon="-0.90851">
        <ele>12</ele>
        <time>2025-05-06T16:07:34.032Z</time>
      </trkpt>
      <trkpt lat="45.83549" lon="-0.90843">
        <ele>11.8</ele>
        <time>2025-05-06T16:07:39.345Z</time>
      </trkpt>
      <trkpt lat="45.83547" lon="-0.90828">
        <ele>11.4</ele>
        <time>2025-05-06T16:07:48.784Z</time>
      </trkpt>
      <trkpt lat="45.83544" lon="-0.90816">
        <ele>11.2</ele>
        <time>2025-05-06T16:07:57.025Z</time>
      </trkpt>
      <trkpt lat="45.83543" lon="-0.90808">
        <ele>11.2</ele>
        <time>2025-05-06T16:08:02.650Z</time>
      </trkpt>
      <trkpt lat="45.83543" lon="-0.90808">
        <ele>11.2</ele>
        <time>2025-05-06T16:08:02.650Z</time>
      </trkpt>
      <trkpt lat="45.83543" lon="-0.90808">
        <ele>11.2</ele>
        <time>2025-05-06T16:08:02.650Z</time>
      </trkpt>
      <trkpt lat="45.83543" lon="-0.90802">
        <ele>11.1</ele>
        <time>2025-05-06T16:08:06.512Z</time>
      </trkpt>
      <trkpt lat="45.83541" lon="-0.90793">
        <ele>11.1</ele>
        <time>2025-05-06T16:08:13.050Z</time>
      </trkpt>
      <trkpt lat="45.8354" lon="-0.90785">
        <ele>11</ele>
        <time>2025-05-06T16:08:18.381Z</time>
      </trkpt>
      <trkpt lat="45.83538" lon="-0.90776">
        <ele>11</ele>
        <time>2025-05-06T16:08:24.919Z</time>
      </trkpt>
      <trkpt lat="45.83536" lon="-0.9077">
        <ele>10.9</ele>
        <time>2025-05-06T16:08:29.231Z</time>
      </trkpt>
      <trkpt lat="45.83532" lon="-0.90759">
        <ele>10.9</ele>
        <time>2025-05-06T16:08:37.818Z</time>
      </trkpt>
      <trkpt lat="45.8353" lon="-0.90752">
        <ele>10.9</ele>
        <time>2025-05-06T16:08:43.055Z</time>
      </trkpt>
      <trkpt lat="45.83526" lon="-0.90744">
        <ele>11</ele>
        <time>2025-05-06T16:08:50.185Z</time>
      </trkpt>
      <trkpt lat="45.83523" lon="-0.90738">
        <ele>11</ele>
        <time>2025-05-06T16:08:55.297Z</time>
      </trkpt>
      <trkpt lat="45.8352" lon="-0.90733">
        <ele>11.1</ele>
        <time>2025-05-06T16:09:00.184Z</time>
      </trkpt>
      <trkpt lat="45.83504" lon="-0.90716">
        <ele>11.2</ele>
        <time>2025-05-06T16:09:20.268Z</time>
      </trkpt>
      <trkpt lat="45.83482" lon="-0.9069">
        <ele>12.1</ele>
        <time>2025-05-06T16:09:51.528Z</time>
      </trkpt>
      <trkpt lat="45.83463" lon="-0.90661">
        <ele>13.1</ele>
        <time>2025-05-06T16:10:22.392Z</time>
      </trkpt>
      <trkpt lat="45.83449" lon="-0.90639">
        <ele>13.9</ele>
        <time>2025-05-06T16:10:45.678Z</time>
      </trkpt>
      <trkpt lat="45.83443" lon="-0.90626">
        <ele>14.4</ele>
        <time>2025-05-06T16:10:58.165Z</time>
      </trkpt>
      <trkpt lat="45.83439" lon="-0.90616">
        <ele>14.7</ele>
        <time>2025-05-06T16:11:07.142Z</time>
      </trkpt>
      <trkpt lat="45.83434" lon="-0.90608">
        <ele>14.9</ele>
        <time>2025-05-06T16:11:15.229Z</time>
      </trkpt>
      <trkpt lat="45.83427" lon="-0.90597">
        <ele>15.2</ele>
        <time>2025-05-06T16:11:26.517Z</time>
      </trkpt>
      <trkpt lat="45.83427" lon="-0.90597">
        <ele>15.2</ele>
        <time>2025-05-06T16:11:26.517Z</time>
      </trkpt>
      <trkpt lat="45.83427" lon="-0.90597">
        <ele>15.2</ele>
        <time>2025-05-06T16:11:26.517Z</time>
      </trkpt>
      <trkpt lat="45.83423" lon="-0.90591">
        <ele>15.4</ele>
        <time>2025-05-06T16:11:32.925Z</time>
      </trkpt>
      <trkpt lat="45.83417" lon="-0.9058">
        <ele>15.6</ele>
        <time>2025-05-06T16:11:43.234Z</time>
      </trkpt>
      <trkpt lat="45.83411" lon="-0.9057">
        <ele>15.8</ele>
        <time>2025-05-06T16:11:53.009Z</time>
      </trkpt>
      <trkpt lat="45.83397" lon="-0.90547">
        <ele>16</ele>
        <time>2025-05-06T16:12:14.771Z</time>
      </trkpt>
      <trkpt lat="45.83389" lon="-0.90535">
        <ele>15.9</ele>
        <time>2025-05-06T16:12:25.966Z</time>
      </trkpt>
      <trkpt lat="45.83374" lon="-0.90517">
        <ele>15.7</ele>
        <time>2025-05-06T16:12:44.790Z</time>
      </trkpt>
      <trkpt lat="45.83367" lon="-0.90508">
        <ele>15.6</ele>
        <time>2025-05-06T16:12:53.827Z</time>
      </trkpt>
      <trkpt lat="45.83367" lon="-0.90508">
        <ele>15.6</ele>
        <time>2025-05-06T16:12:53.827Z</time>
      </trkpt>
      <trkpt lat="45.83367" lon="-0.90508">
        <ele>15.6</ele>
        <time>2025-05-06T16:12:53.827Z</time>
      </trkpt>
      <trkpt lat="45.83372" lon="-0.90503">
        <ele>15.6</ele>
        <time>2025-05-06T16:12:59.880Z</time>
      </trkpt>
      <trkpt lat="45.83378" lon="-0.90494">
        <ele>15.8</ele>
        <time>2025-05-06T16:13:09.145Z</time>
      </trkpt>
      <trkpt lat="45.83393" lon="-0.90476">
        <ele>16.1</ele>
        <time>2025-05-06T16:13:29.516Z</time>
      </trkpt>
      <trkpt lat="45.83408" lon="-0.90459">
        <ele>16.4</ele>
        <time>2025-05-06T16:13:49.451Z</time>
      </trkpt>
      <trkpt lat="45.83442" lon="-0.90422">
        <ele>17.5</ele>
        <time>2025-05-06T16:14:35.396Z</time>
      </trkpt>
      <trkpt lat="45.83475" lon="-0.90384">
        <ele>18.3</ele>
        <time>2025-05-06T16:15:19.973Z</time>
      </trkpt>
      <trkpt lat="45.83506" lon="-0.90348">
        <ele>19</ele>
        <time>2025-05-06T16:16:01.809Z</time>
      </trkpt>
      <trkpt lat="45.83508" lon="-0.90347">
        <ele>19.1</ele>
        <time>2025-05-06T16:16:04.253Z</time>
      </trkpt>
      <trkpt lat="45.8352" lon="-0.90327">
        <ele>19.4</ele>
        <time>2025-05-06T16:16:23.471Z</time>
      </trkpt>
      <trkpt lat="45.83543" lon="-0.90292">
        <ele>19.7</ele>
        <time>2025-05-06T16:16:57.705Z</time>
      </trkpt>
      <trkpt lat="45.83572" lon="-0.9025">
        <ele>19.9</ele>
        <time>2025-05-06T16:17:39.248Z</time>
      </trkpt>
      <trkpt lat="45.83602" lon="-0.90218">
        <ele>20</ele>
        <time>2025-05-06T16:18:16.685Z</time>
      </trkpt>
      <trkpt lat="45.83624" lon="-0.90197">
        <ele>20</ele>
        <time>2025-05-06T16:18:42.931Z</time>
      </trkpt>
      <trkpt lat="45.83648" lon="-0.9018">
        <ele>20</ele>
        <time>2025-05-06T16:19:09.517Z</time>
      </trkpt>
      <trkpt lat="45.83668" lon="-0.9017">
        <ele>19.5</ele>
        <time>2025-05-06T16:19:29.101Z</time>
      </trkpt>
      <trkpt lat="45.83693" lon="-0.90163">
        <ele>19</ele>
        <time>2025-05-06T16:19:52.937Z</time>
      </trkpt>
      <trkpt lat="45.83719" lon="-0.90157">
        <ele>18.3</ele>
        <time>2025-05-06T16:20:17.073Z</time>
      </trkpt>
      <trkpt lat="45.83741" lon="-0.90153">
        <ele>17.5</ele>
        <time>2025-05-06T16:20:36.835Z</time>
      </trkpt>
      <trkpt lat="45.83759" lon="-0.90153">
        <ele>16.9</ele>
        <time>2025-05-06T16:20:53.005Z</time>
      </trkpt>
      <trkpt lat="45.8378" lon="-0.90155">
        <ele>16.3</ele>
        <time>2025-05-06T16:21:12.185Z</time>
      </trkpt>
      <trkpt lat="45.83805" lon="-0.90158">
        <ele>16.1</ele>
        <time>2025-05-06T16:21:36.504Z</time>
      </trkpt>
      <trkpt lat="45.83839" lon="-0.90164">
        <ele>16.4</ele>
        <time>2025-05-06T16:22:11.468Z</time>
      </trkpt>
      <trkpt lat="45.83881" lon="-0.9017">
        <ele>16.9</ele>
        <time>2025-05-06T16:22:54.965Z</time>
      </trkpt>
      <trkpt lat="45.83902" lon="-0.90173">
        <ele>16.7</ele>
        <time>2025-05-06T16:23:15.329Z</time>
      </trkpt>
      <trkpt lat="45.83909" lon="-0.90173">
        <ele>16.6</ele>
        <time>2025-05-06T16:23:21.986Z</time>
      </trkpt>
      <trkpt lat="45.83918" lon="-0.90174">
        <ele>16.5</ele>
        <time>2025-05-06T16:23:30.655Z</time>
      </trkpt>
      <trkpt lat="45.83927" lon="-0.90175">
        <ele>16.3</ele>
        <time>2025-05-06T16:23:39.038Z</time>
      </trkpt>
      <trkpt lat="45.83935" lon="-0.90175">
        <ele>16.2</ele>
        <time>2025-05-06T16:23:46.687Z</time>
      </trkpt>
      <trkpt lat="45.83943" lon="-0.90175">
        <ele>16</ele>
        <time>2025-05-06T16:23:54.054Z</time>
      </trkpt>
      <trkpt lat="45.83951" lon="-0.90175">
        <ele>15.7</ele>
        <time>2025-05-06T16:24:01.154Z</time>
      </trkpt>
      <trkpt lat="45.83959" lon="-0.90175">
        <ele>15.3</ele>
        <time>2025-05-06T16:24:08.107Z</time>
      </trkpt>
      <trkpt lat="45.83966" lon="-0.90177">
        <ele>15.1</ele>
        <time>2025-05-06T16:24:14.621Z</time>
      </trkpt>
      <trkpt lat="45.83973" lon="-0.90178">
        <ele>14.8</ele>
        <time>2025-05-06T16:24:20.770Z</time>
      </trkpt>
      <trkpt lat="45.83983" lon="-0.9018">
        <ele>14.4</ele>
        <time>2025-05-06T16:24:29.674Z</time>
      </trkpt>
      <trkpt lat="45.83988" lon="-0.90182">
        <ele>14.2</ele>
        <time>2025-05-06T16:24:34.266Z</time>
      </trkpt>
      <trkpt lat="45.83992" lon="-0.90184">
        <ele>14.1</ele>
        <time>2025-05-06T16:24:38.183Z</time>
      </trkpt>
      <trkpt lat="45.83995" lon="-0.90186">
        <ele>13.9</ele>
        <time>2025-05-06T16:24:41.058Z</time>
      </trkpt>
      <trkpt lat="45.84006" lon="-0.9019">
        <ele>13.5</ele>
        <time>2025-05-06T16:24:51.195Z</time>
      </trkpt>
      <trkpt lat="45.84018" lon="-0.90197">
        <ele>12.8</ele>
        <time>2025-05-06T16:25:02.454Z</time>
      </trkpt>
      <trkpt lat="45.84018" lon="-0.90197">
        <ele>12.8</ele>
        <time>2025-05-06T16:25:02.454Z</time>
      </trkpt>
      <trkpt lat="45.84018" lon="-0.90197">
        <ele>12.8</ele>
        <time>2025-05-06T16:25:02.454Z</time>
      </trkpt>
      <trkpt lat="45.84035" lon="-0.90209">
        <ele>11.9</ele>
        <time>2025-05-06T16:25:18.920Z</time>
      </trkpt>
      <trkpt lat="45.84053" lon="-0.90227">
        <ele>10.8</ele>
        <time>2025-05-06T16:25:37.988Z</time>
      </trkpt>
      <trkpt lat="45.84073" lon="-0.90247">
        <ele>10.3</ele>
        <time>2025-05-06T16:26:00.738Z</time>
      </trkpt>
      <trkpt lat="45.84079" lon="-0.90254">
        <ele>10.2</ele>
        <time>2025-05-06T16:26:08.121Z</time>
      </trkpt>
      <trkpt lat="45.84101" lon="-0.90273">
        <ele>9.5</ele>
        <time>2025-05-06T16:26:31.605Z</time>
      </trkpt>
      <trkpt lat="45.84122" lon="-0.90291">
        <ele>9.6</ele>
        <time>2025-05-06T16:26:56.211Z</time>
      </trkpt>
      <trkpt lat="45.84154" lon="-0.90314">
        <ele>9.7</ele>
        <time>2025-05-06T16:27:32.068Z</time>
      </trkpt>
      <trkpt lat="45.84186" lon="-0.90337">
        <ele>10.3</ele>
        <time>2025-05-06T16:28:09.521Z</time>
      </trkpt>
      <trkpt lat="45.84224" lon="-0.90363">
        <ele>9.6</ele>
        <time>2025-05-06T16:28:49.272Z</time>
      </trkpt>
      <trkpt lat="45.84252" lon="-0.90383">
        <ele>9.6</ele>
        <time>2025-05-06T16:29:20.340Z</time>
      </trkpt>
      <trkpt lat="45.84282" lon="-0.90403">
        <ele>10.1</ele>
        <time>2025-05-06T16:29:54.778Z</time>
      </trkpt>
      <trkpt lat="45.84303" lon="-0.90419">
        <ele>10.4</ele>
        <time>2025-05-06T16:30:19.338Z</time>
      </trkpt>
      <trkpt lat="45.84316" lon="-0.90431">
        <ele>11</ele>
        <time>2025-05-06T16:30:36.691Z</time>
      </trkpt>
      <trkpt lat="45.84326" lon="-0.90438">
        <ele>11</ele>
        <time>2025-05-06T16:30:47.743Z</time>
      </trkpt>
      <trkpt lat="45.84349" lon="-0.9045">
        <ele>10.8</ele>
        <time>2025-05-06T16:31:11.452Z</time>
      </trkpt>
      <trkpt lat="45.84351" lon="-0.90451">
        <ele>10.8</ele>
        <time>2025-05-06T16:31:13.556Z</time>
      </trkpt>
      <trkpt lat="45.84373" lon="-0.90469">
        <ele>11.1</ele>
        <time>2025-05-06T16:31:39.652Z</time>
      </trkpt>
      <trkpt lat="45.84376" lon="-0.90471">
        <ele>11.1</ele>
        <time>2025-05-06T16:31:42.937Z</time>
      </trkpt>
      <trkpt lat="45.84383" lon="-0.90482">
        <ele>11.7</ele>
        <time>2025-05-06T16:31:55.337Z</time>
      </trkpt>
      <trkpt lat="45.84392" lon="-0.90504">
        <ele>13</ele>
        <time>2025-05-06T16:32:17.686Z</time>
      </trkpt>
      <trkpt lat="45.844" lon="-0.90525">
        <ele>13.8</ele>
        <time>2025-05-06T16:32:36.972Z</time>
      </trkpt>
      <trkpt lat="45.84406" lon="-0.9054">
        <ele>14.2</ele>
        <time>2025-05-06T16:32:50.257Z</time>
      </trkpt>
      <trkpt lat="45.84406" lon="-0.9054">
        <ele>14.2</ele>
        <time>2025-05-06T16:32:50.257Z</time>
      </trkpt>
      <trkpt lat="45.84406" lon="-0.9054">
        <ele>14.2</ele>
        <time>2025-05-06T16:32:50.257Z</time>
      </trkpt>
      <trkpt lat="45.84406" lon="-0.90542">
        <ele>14.2</ele>
        <time>2025-05-06T16:32:51.641Z</time>
      </trkpt>
      <trkpt lat="45.84412" lon="-0.90557">
        <ele>14.4</ele>
        <time>2025-05-06T16:33:04.245Z</time>
      </trkpt>
      <trkpt lat="45.84412" lon="-0.90557">
        <ele>14.4</ele>
        <time>2025-05-06T16:33:04.245Z</time>
      </trkpt>
      <trkpt lat="45.84412" lon="-0.90557">
        <ele>14.4</ele>
        <time>2025-05-06T16:33:04.245Z</time>
      </trkpt>
      <trkpt lat="45.84416" lon="-0.90567">
        <ele>14.4</ele>
        <time>2025-05-06T16:33:12.224Z</time>
      </trkpt>
      <trkpt lat="45.84428" lon="-0.90599">
        <ele>14.7</ele>
        <time>2025-05-06T16:33:38.314Z</time>
      </trkpt>
      <trkpt lat="45.84441" lon="-0.90634">
        <ele>15.1</ele>
        <time>2025-05-06T16:34:07.024Z</time>
      </trkpt>
      <trkpt lat="45.84453" lon="-0.9067">
        <ele>15.4</ele>
        <time>2025-05-06T16:34:35.580Z</time>
      </trkpt>
      <trkpt lat="45.8447" lon="-0.90713">
        <ele>16.2</ele>
        <time>2025-05-06T16:35:12.368Z</time>
      </trkpt>
      <trkpt lat="45.84472" lon="-0.90717">
        <ele>16.3</ele>
        <time>2025-05-06T16:35:16.101Z</time>
      </trkpt>
      <trkpt lat="45.84476" lon="-0.90725">
        <ele>16.5</ele>
        <time>2025-05-06T16:35:23.567Z</time>
      </trkpt>
      <trkpt lat="45.84489" lon="-0.90743">
        <ele>16.9</ele>
        <time>2025-05-06T16:35:42.793Z</time>
      </trkpt>
      <trkpt lat="45.84518" lon="-0.90767">
        <ele>17</ele>
        <time>2025-05-06T16:36:16.353Z</time>
      </trkpt>
      <trkpt lat="45.84541" lon="-0.90783">
        <ele>16.8</ele>
        <time>2025-05-06T16:36:41.140Z</time>
      </trkpt>
      <trkpt lat="45.84554" lon="-0.90793">
        <ele>16.8</ele>
        <time>2025-05-06T16:36:55.791Z</time>
      </trkpt>
      <trkpt lat="45.84575" lon="-0.90817">
        <ele>16.7</ele>
        <time>2025-05-06T16:37:22.152Z</time>
      </trkpt>
      <trkpt lat="45.84596" lon="-0.90842">
        <ele>16.4</ele>
        <time>2025-05-06T16:37:48.357Z</time>
      </trkpt>
      <trkpt lat="45.84616" lon="-0.90868">
        <ele>15.5</ele>
        <time>2025-05-06T16:38:12.595Z</time>
      </trkpt>
      <trkpt lat="45.84624" lon="-0.90876">
        <ele>15.3</ele>
        <time>2025-05-06T16:38:21.694Z</time>
      </trkpt>
      <trkpt lat="45.84637" lon="-0.90891">
        <ele>14.8</ele>
        <time>2025-05-06T16:38:36.827Z</time>
      </trkpt>
      <trkpt lat="45.84658" lon="-0.90915">
        <ele>14</ele>
        <time>2025-05-06T16:39:01.194Z</time>
      </trkpt>
      <trkpt lat="45.84678" lon="-0.90939">
        <ele>13</ele>
        <time>2025-05-06T16:39:24.268Z</time>
      </trkpt>
      <trkpt lat="45.84684" lon="-0.90946">
        <ele>12.7</ele>
        <time>2025-05-06T16:39:31.103Z</time>
      </trkpt>
      <trkpt lat="45.84689" lon="-0.90953">
        <ele>12.4</ele>
        <time>2025-05-06T16:39:37.202Z</time>
      </trkpt>
      <trkpt lat="45.8469" lon="-0.90954">
        <ele>12.4</ele>
        <time>2025-05-06T16:39:38.413Z</time>
      </trkpt>
      <trkpt lat="45.84696" lon="-0.90966">
        <ele>12</ele>
        <time>2025-05-06T16:39:47.507Z</time>
      </trkpt>
      <trkpt lat="45.84713" lon="-0.91001">
        <ele>11</ele>
        <time>2025-05-06T16:40:14.183Z</time>
      </trkpt>
      <trkpt lat="45.84728" lon="-0.91038">
        <ele>10.8</ele>
        <time>2025-05-06T16:40:43.203Z</time>
      </trkpt>
      <trkpt lat="45.84752" lon="-0.91087">
        <ele>10.9</ele>
        <time>2025-05-06T16:41:24.959Z</time>
      </trkpt>
      <trkpt lat="45.84769" lon="-0.91129">
        <ele>12.2</ele>
        <time>2025-05-06T16:42:02.900Z</time>
      </trkpt>
      <trkpt lat="45.84782" lon="-0.91159">
        <ele>12.8</ele>
        <time>2025-05-06T16:42:29.283Z</time>
      </trkpt>
      <trkpt lat="45.84782" lon="-0.91159">
        <ele>12.8</ele>
        <time>2025-05-06T16:42:29.283Z</time>
      </trkpt>
      <trkpt lat="45.84782" lon="-0.91159">
        <ele>12.8</ele>
        <time>2025-05-06T16:42:29.283Z</time>
      </trkpt>
      <trkpt lat="45.8479" lon="-0.91174">
        <ele>13.1</ele>
        <time>2025-05-06T16:42:43.320Z</time>
      </trkpt>
      <trkpt lat="45.8479" lon="-0.91174">
        <ele>13.1</ele>
        <time>2025-05-06T16:42:43.320Z</time>
      </trkpt>
      <trkpt lat="45.8479" lon="-0.91174">
        <ele>13.1</ele>
        <time>2025-05-06T16:42:43.320Z</time>
      </trkpt>
      <trkpt lat="45.84797" lon="-0.91193">
        <ele>13.4</ele>
        <time>2025-05-06T16:42:59.151Z</time>
      </trkpt>
      <trkpt lat="45.84798" lon="-0.91198">
        <ele>13.4</ele>
        <time>2025-05-06T16:43:02.750Z</time>
      </trkpt>
      <trkpt lat="45.84798" lon="-0.91198">
        <ele>13.4</ele>
        <time>2025-05-06T16:43:02.750Z</time>
      </trkpt>
      <trkpt lat="45.84798" lon="-0.91198">
        <ele>13.4</ele>
        <time>2025-05-06T16:43:02.750Z</time>
      </trkpt>
      <trkpt lat="45.84802" lon="-0.91207">
        <ele>13.4</ele>
        <time>2025-05-06T16:43:10.138Z</time>
      </trkpt>
      <trkpt lat="45.84808" lon="-0.91214">
        <ele>13.5</ele>
        <time>2025-05-06T16:43:18.132Z</time>
      </trkpt>
      <trkpt lat="45.84813" lon="-0.9122">
        <ele>13.6</ele>
        <time>2025-05-06T16:43:24.922Z</time>
      </trkpt>
      <trkpt lat="45.84813" lon="-0.9122">
        <ele>13.6</ele>
        <time>2025-05-06T16:43:24.922Z</time>
      </trkpt>
      <trkpt lat="45.84813" lon="-0.9122">
        <ele>13.6</ele>
        <time>2025-05-06T16:43:24.922Z</time>
      </trkpt>
      <trkpt lat="45.84822" lon="-0.91222">
        <ele>13.8</ele>
        <time>2025-05-06T16:43:34.610Z</time>
      </trkpt>
      <trkpt lat="45.84839" lon="-0.91233">
        <ele>14.2</ele>
        <time>2025-05-06T16:43:54.416Z</time>
      </trkpt>
      <trkpt lat="45.84878" lon="-0.9126">
        <ele>14.8</ele>
        <time>2025-05-06T16:44:39.318Z</time>
      </trkpt>
      <trkpt lat="45.84916" lon="-0.91287">
        <ele>15.8</ele>
        <time>2025-05-06T16:45:24.656Z</time>
      </trkpt>
      <trkpt lat="45.84929" lon="-0.91293">
        <ele>16</ele>
        <time>2025-05-06T16:45:38.852Z</time>
      </trkpt>
      <trkpt lat="45.84947" lon="-0.91296">
        <ele>16.4</ele>
        <time>2025-05-06T16:45:58.137Z</time>
      </trkpt>
      <trkpt lat="45.84969" lon="-0.91295">
        <ele>16.7</ele>
        <time>2025-05-06T16:46:20.947Z</time>
      </trkpt>
      <trkpt lat="45.85001" lon="-0.91292">
        <ele>17.6</ele>
        <time>2025-05-06T16:46:55.730Z</time>
      </trkpt>
      <trkpt lat="45.85001" lon="-0.91292">
        <ele>17.6</ele>
        <time>2025-05-06T16:46:55.730Z</time>
      </trkpt>
      <trkpt lat="45.85001" lon="-0.91292">
        <ele>17.6</ele>
        <time>2025-05-06T16:46:55.730Z</time>
      </trkpt>
      <trkpt lat="45.85007" lon="-0.91291">
        <ele>17.8</ele>
        <time>2025-05-06T16:47:02.388Z</time>
      </trkpt>
      <trkpt lat="45.85036" lon="-0.91288">
        <ele>18.4</ele>
        <time>2025-05-06T16:47:33.190Z</time>
      </trkpt>
      <trkpt lat="45.85065" lon="-0.91285">
        <ele>18.8</ele>
        <time>2025-05-06T16:48:03.333Z</time>
      </trkpt>
      <trkpt lat="45.85065" lon="-0.91285">
        <ele>18.8</ele>
        <time>2025-05-06T16:48:03.333Z</time>
      </trkpt>
      <trkpt lat="45.85065" lon="-0.91285">
        <ele>18.8</ele>
        <time>2025-05-06T16:48:03.333Z</time>
      </trkpt>
      <trkpt lat="45.8507" lon="-0.91284">
        <ele>18.9</ele>
        <time>2025-05-06T16:48:08.667Z</time>
      </trkpt>
      <trkpt lat="45.85104" lon="-0.91283">
        <ele>19.4</ele>
        <time>2025-05-06T16:48:44.027Z</time>
      </trkpt>
      <trkpt lat="45.85104" lon="-0.91283">
        <ele>19.4</ele>
        <time>2025-05-06T16:48:44.027Z</time>
      </trkpt>
      <trkpt lat="45.85104" lon="-0.91283">
        <ele>19.4</ele>
        <time>2025-05-06T16:48:44.027Z</time>
      </trkpt>
      <trkpt lat="45.85115" lon="-0.91285">
        <ele>19.8</ele>
        <time>2025-05-06T16:48:56.367Z</time>
      </trkpt>
      <trkpt lat="45.85104" lon="-0.91283">
        <ele>19.4</ele>
        <time>2025-05-06T16:49:06.247Z</time>
      </trkpt>
      <trkpt lat="45.85104" lon="-0.91283">
        <ele>19.4</ele>
        <time>2025-05-06T16:49:06.247Z</time>
      </trkpt>
      <trkpt lat="45.85104" lon="-0.91283">
        <ele>19.4</ele>
        <time>2025-05-06T16:49:06.247Z</time>
      </trkpt>
      <trkpt lat="45.85126" lon="-0.91262">
        <ele>20</ele>
        <time>2025-05-06T16:49:34.419Z</time>
      </trkpt>
      <trkpt lat="45.85147" lon="-0.91242">
        <ele>20.4</ele>
        <time>2025-05-06T16:50:00.719Z</time>
      </trkpt>
      <trkpt lat="45.85157" lon="-0.91233">
        <ele>20.5</ele>
        <time>2025-05-06T16:50:12.754Z</time>
      </trkpt>
      <trkpt lat="45.8517" lon="-0.9122">
        <ele>20.7</ele>
        <time>2025-05-06T16:50:29.121Z</time>
      </trkpt>
      <trkpt lat="45.85191" lon="-0.91209">
        <ele>20.9</ele>
        <time>2025-05-06T16:50:51.950Z</time>
      </trkpt>
      <trkpt lat="45.85228" lon="-0.91197">
        <ele>20.6</ele>
        <time>2025-05-06T16:51:28.729Z</time>
      </trkpt>
      <trkpt lat="45.85249" lon="-0.91192">
        <ele>20.3</ele>
        <time>2025-05-06T16:51:48.984Z</time>
      </trkpt>
      <trkpt lat="45.85263" lon="-0.91188">
        <ele>20.1</ele>
        <time>2025-05-06T16:52:02.571Z</time>
      </trkpt>
      <trkpt lat="45.85279" lon="-0.91184">
        <ele>19.9</ele>
        <time>2025-05-06T16:52:18.108Z</time>
      </trkpt>
      <trkpt lat="45.85317" lon="-0.91174">
        <ele>19.5</ele>
        <time>2025-05-06T16:52:55.289Z</time>
      </trkpt>
      <trkpt lat="45.8534" lon="-0.91168">
        <ele>19.2</ele>
        <time>2025-05-06T16:53:17.618Z</time>
      </trkpt>
      <trkpt lat="45.85362" lon="-0.91162">
        <ele>19.3</ele>
        <time>2025-05-06T16:53:40.171Z</time>
      </trkpt>
      <trkpt lat="45.85373" lon="-0.91159">
        <ele>19.3</ele>
        <time>2025-05-06T16:53:51.294Z</time>
      </trkpt>
      <trkpt lat="45.85398" lon="-0.91151">
        <ele>19.3</ele>
        <time>2025-05-06T16:54:16.737Z</time>
      </trkpt>
      <trkpt lat="45.85417" lon="-0.91144">
        <ele>19.3</ele>
        <time>2025-05-06T16:54:36.223Z</time>
      </trkpt>
      <trkpt lat="45.85438" lon="-0.91138">
        <ele>19.1</ele>
        <time>2025-05-06T16:54:56.893Z</time>
      </trkpt>
      <trkpt lat="45.85457" lon="-0.91133">
        <ele>18.7</ele>
        <time>2025-05-06T16:55:14.911Z</time>
      </trkpt>
      <trkpt lat="45.85473" lon="-0.91128">
        <ele>18.5</ele>
        <time>2025-05-06T16:55:30.582Z</time>
      </trkpt>
      <trkpt lat="45.85486" lon="-0.91125">
        <ele>18.8</ele>
        <time>2025-05-06T16:55:44.625Z</time>
      </trkpt>
      <trkpt lat="45.85491" lon="-0.91124">
        <ele>18.8</ele>
        <time>2025-05-06T16:55:49.640Z</time>
      </trkpt>
      <trkpt lat="45.855" lon="-0.91122">
        <ele>18.7</ele>
        <time>2025-05-06T16:55:58.388Z</time>
      </trkpt>
      <trkpt lat="45.85509" lon="-0.9112">
        <ele>18.6</ele>
        <time>2025-05-06T16:56:07.136Z</time>
      </trkpt>
      <trkpt lat="45.85518" lon="-0.91118">
        <ele>18.5</ele>
        <time>2025-05-06T16:56:15.885Z</time>
      </trkpt>
      <trkpt lat="45.85525" lon="-0.91117">
        <ele>18.5</ele>
        <time>2025-05-06T16:56:22.872Z</time>
      </trkpt>
      <trkpt lat="45.8553" lon="-0.91115">
        <ele>18.5</ele>
        <time>2025-05-06T16:56:28.028Z</time>
      </trkpt>
      <trkpt lat="45.85541" lon="-0.91112">
        <ele>18.5</ele>
        <time>2025-05-06T16:56:39.151Z</time>
      </trkpt>
      <trkpt lat="45.85551" lon="-0.91108">
        <ele>18.6</ele>
        <time>2025-05-06T16:56:49.775Z</time>
      </trkpt>
      <trkpt lat="45.85562" lon="-0.91103">
        <ele>18.8</ele>
        <time>2025-05-06T16:57:01.872Z</time>
      </trkpt>
      <trkpt lat="45.85568" lon="-0.91099">
        <ele>19</ele>
        <time>2025-05-06T16:57:09.097Z</time>
      </trkpt>
      <trkpt lat="45.85571" lon="-0.91098">
        <ele>19.1</ele>
        <time>2025-05-06T16:57:12.485Z</time>
      </trkpt>
      <trkpt lat="45.85577" lon="-0.91095">
        <ele>19.3</ele>
        <time>2025-05-06T16:57:19.452Z</time>
      </trkpt>
      <trkpt lat="45.85596" lon="-0.91084">
        <ele>19.8</ele>
        <time>2025-05-06T16:57:41.415Z</time>
      </trkpt>
      <trkpt lat="45.85608" lon="-0.91077">
        <ele>20</ele>
        <time>2025-05-06T16:57:54.914Z</time>
      </trkpt>
      <trkpt lat="45.85621" lon="-0.9107">
        <ele>20.2</ele>
        <time>2025-05-06T16:58:09.338Z</time>
      </trkpt>
      <trkpt lat="45.85659" lon="-0.91049">
        <ele>21.4</ele>
        <time>2025-05-06T16:58:53.701Z</time>
      </trkpt>
      <trkpt lat="45.85689" lon="-0.9103">
        <ele>21.6</ele>
        <time>2025-05-06T16:59:26.892Z</time>
      </trkpt>
      <trkpt lat="45.85689" lon="-0.9103">
        <ele>21.6</ele>
        <time>2025-05-06T16:59:26.892Z</time>
      </trkpt>
      <trkpt lat="45.85689" lon="-0.9103">
        <ele>21.6</ele>
        <time>2025-05-06T16:59:26.892Z</time>
      </trkpt>
      <trkpt lat="45.85694" lon="-0.91027">
        <ele>21.6</ele>
        <time>2025-05-06T16:59:32.275Z</time>
      </trkpt>
      <trkpt lat="45.85706" lon="-0.91018">
        <ele>21.6</ele>
        <time>2025-05-06T16:59:45.724Z</time>
      </trkpt>
      <trkpt lat="45.85706" lon="-0.91018">
        <ele>21.6</ele>
        <time>2025-05-06T16:59:45.724Z</time>
      </trkpt>
      <trkpt lat="45.85706" lon="-0.91018">
        <ele>21.6</ele>
        <time>2025-05-06T16:59:45.724Z</time>
      </trkpt>
      <trkpt lat="45.85719" lon="-0.91009">
        <ele>21.6</ele>
        <time>2025-05-06T17:00:00.060Z</time>
      </trkpt>
      <trkpt lat="45.85759" lon="-0.9098">
        <ele>20.6</ele>
        <time>2025-05-06T17:00:41.657Z</time>
      </trkpt>
      <trkpt lat="45.85788" lon="-0.9096">
        <ele>19.5</ele>
        <time>2025-05-06T17:01:10.485Z</time>
      </trkpt>
      <trkpt lat="45.85811" lon="-0.90944">
        <ele>18.7</ele>
        <time>2025-05-06T17:01:33.583Z</time>
      </trkpt>
      <trkpt lat="45.85818" lon="-0.90938">
        <ele>18.3</ele>
        <time>2025-05-06T17:01:40.669Z</time>
      </trkpt>
      <trkpt lat="45.85825" lon="-0.90933">
        <ele>18.1</ele>
        <time>2025-05-06T17:01:47.857Z</time>
      </trkpt>
      <trkpt lat="45.85836" lon="-0.90929">
        <ele>17.8</ele>
        <time>2025-05-06T17:01:58.261Z</time>
      </trkpt>
      <trkpt lat="45.85855" lon="-0.90921">
        <ele>16.2</ele>
        <time>2025-05-06T17:02:15.471Z</time>
      </trkpt>
      <trkpt lat="45.85855" lon="-0.90921">
        <ele>16.2</ele>
        <time>2025-05-06T17:02:15.471Z</time>
      </trkpt>
      <trkpt lat="45.85855" lon="-0.90921">
        <ele>16.2</ele>
        <time>2025-05-06T17:02:15.471Z</time>
      </trkpt>
      <trkpt lat="45.85866" lon="-0.90941">
        <ele>15.8</ele>
        <time>2025-05-06T17:02:31.936Z</time>
      </trkpt>
      <trkpt lat="45.85878" lon="-0.9096">
        <ele>16.3</ele>
        <time>2025-05-06T17:02:51.307Z</time>
      </trkpt>
      <trkpt lat="45.85878" lon="-0.9096">
        <ele>16.3</ele>
        <time>2025-05-06T17:02:51.307Z</time>
      </trkpt>
      <trkpt lat="45.85878" lon="-0.9096">
        <ele>16.3</ele>
        <time>2025-05-06T17:02:51.307Z</time>
      </trkpt>
      <trkpt lat="45.8588" lon="-0.90964">
        <ele>16.3</ele>
        <time>2025-05-06T17:02:54.714Z</time>
      </trkpt>
      <trkpt lat="45.85884" lon="-0.90971">
        <ele>16.3</ele>
        <time>2025-05-06T17:03:00.978Z</time>
      </trkpt>
      <trkpt lat="45.85889" lon="-0.9098">
        <ele>16.4</ele>
        <time>2025-05-06T17:03:09.257Z</time>
      </trkpt>
      <trkpt lat="45.85893" lon="-0.90988">
        <ele>16.5</ele>
        <time>2025-05-06T17:03:16.386Z</time>
      </trkpt>
      <trkpt lat="45.85901" lon="-0.91006">
        <ele>16.6</ele>
        <time>2025-05-06T17:03:31.468Z</time>
      </trkpt>
      <trkpt lat="45.85905" lon="-0.91015">
        <ele>16.5</ele>
        <time>2025-05-06T17:03:38.557Z</time>
      </trkpt>
      <trkpt lat="45.8591" lon="-0.91026">
        <ele>16.7</ele>
        <time>2025-05-06T17:03:48.286Z</time>
      </trkpt>
      <trkpt lat="45.85923" lon="-0.91064">
        <ele>17.7</ele>
        <time>2025-05-06T17:04:20.871Z</time>
      </trkpt>
      <trkpt lat="45.85924" lon="-0.91068">
        <ele>17.8</ele>
        <time>2025-05-06T17:04:24.141Z</time>
      </trkpt>
      <trkpt lat="45.85939" lon="-0.91113">
        <ele>18.3</ele>
        <time>2025-05-06T17:05:00.232Z</time>
      </trkpt>
      <trkpt lat="45.85953" lon="-0.91154">
        <ele>18.3</ele>
        <time>2025-05-06T17:05:31.822Z</time>
      </trkpt>
      <trkpt lat="45.85966" lon="-0.91196">
        <ele>18.2</ele>
        <time>2025-05-06T17:06:03.314Z</time>
      </trkpt>
      <trkpt lat="45.85981" lon="-0.9124">
        <ele>18</ele>
        <time>2025-05-06T17:06:36.601Z</time>
      </trkpt>
      <trkpt lat="45.85987" lon="-0.91258">
        <ele>17.8</ele>
        <time>2025-05-06T17:06:49.813Z</time>
      </trkpt>
      <trkpt lat="45.85991" lon="-0.91273">
        <ele>17.7</ele>
        <time>2025-05-06T17:07:00.625Z</time>
      </trkpt>
      <trkpt lat="45.86003" lon="-0.91308">
        <ele>17.3</ele>
        <time>2025-05-06T17:07:26.428Z</time>
      </trkpt>
      <trkpt lat="45.86008" lon="-0.91322">
        <ele>17.2</ele>
        <time>2025-05-06T17:07:37.012Z</time>
      </trkpt>
      <trkpt lat="45.86015" lon="-0.91338">
        <ele>17.1</ele>
        <time>2025-05-06T17:07:49.783Z</time>
      </trkpt>
      <trkpt lat="45.86021" lon="-0.91351">
        <ele>16.9</ele>
        <time>2025-05-06T17:07:59.984Z</time>
      </trkpt>
      <trkpt lat="45.86025" lon="-0.91357">
        <ele>16.6</ele>
        <time>2025-05-06T17:08:05.012Z</time>
      </trkpt>
      <trkpt lat="45.86025" lon="-0.91357">
        <ele>16.6</ele>
        <time>2025-05-06T17:08:05.012Z</time>
      </trkpt>
      <trkpt lat="45.86025" lon="-0.91357">
        <ele>16.6</ele>
        <time>2025-05-06T17:08:05.012Z</time>
      </trkpt>
      <trkpt lat="45.86035" lon="-0.91371">
        <ele>16.2</ele>
        <time>2025-05-06T17:08:17.735Z</time>
      </trkpt>
      <trkpt lat="45.86059" lon="-0.91399">
        <ele>16.2</ele>
        <time>2025-05-06T17:08:48.453Z</time>
      </trkpt>
      <trkpt lat="45.86059" lon="-0.91399">
        <ele>16.2</ele>
        <time>2025-05-06T17:08:48.453Z</time>
      </trkpt>
      <trkpt lat="45.86059" lon="-0.91399">
        <ele>16.2</ele>
        <time>2025-05-06T17:08:48.453Z</time>
      </trkpt>
      <trkpt lat="45.86035" lon="-0.91371">
        <ele>16.2</ele>
        <time>2025-05-06T17:09:19.170Z</time>
      </trkpt>
      <trkpt lat="45.86025" lon="-0.91357">
        <ele>16.6</ele>
        <time>2025-05-06T17:09:34.347Z</time>
      </trkpt>
      <trkpt lat="45.86025" lon="-0.91357">
        <ele>16.6</ele>
        <time>2025-05-06T17:09:34.347Z</time>
      </trkpt>
      <trkpt lat="45.86025" lon="-0.91357">
        <ele>16.6</ele>
        <time>2025-05-06T17:09:34.347Z</time>
      </trkpt>
      <trkpt lat="45.86042" lon="-0.91337">
        <ele>16.1</ele>
        <time>2025-05-06T17:09:54.722Z</time>
      </trkpt>
      <trkpt lat="45.86065" lon="-0.91309">
        <ele>15.4</ele>
        <time>2025-05-06T17:10:22.638Z</time>
      </trkpt>
      <trkpt lat="45.86088" lon="-0.9128">
        <ele>14.7</ele>
        <time>2025-05-06T17:10:51.004Z</time>
      </trkpt>
      <trkpt lat="45.86098" lon="-0.91268">
        <ele>14.5</ele>
        <time>2025-05-06T17:11:03.358Z</time>
      </trkpt>
      <trkpt lat="45.86116" lon="-0.91246">
        <ele>13.7</ele>
        <time>2025-05-06T17:11:24.561Z</time>
      </trkpt>
      <trkpt lat="45.86134" lon="-0.91223">
        <ele>12.7</ele>
        <time>2025-05-06T17:11:45.693Z</time>
      </trkpt>
      <trkpt lat="45.86158" lon="-0.91193">
        <ele>11.6</ele>
        <time>2025-05-06T17:12:14.174Z</time>
      </trkpt>
      <trkpt lat="45.86182" lon="-0.91162">
        <ele>10.6</ele>
        <time>2025-05-06T17:12:43.377Z</time>
      </trkpt>
      <trkpt lat="45.86196" lon="-0.91145">
        <ele>10.6</ele>
        <time>2025-05-06T17:13:01.590Z</time>
      </trkpt>
      <trkpt lat="45.86215" lon="-0.91122">
        <ele>11.3</ele>
        <time>2025-05-06T17:13:28.553Z</time>
      </trkpt>
      <trkpt lat="45.86237" lon="-0.91094">
        <ele>11.4</ele>
        <time>2025-05-06T17:13:58.064Z</time>
      </trkpt>
      <trkpt lat="45.86237" lon="-0.91094">
        <ele>11.4</ele>
        <time>2025-05-06T17:13:58.064Z</time>
      </trkpt>
      <trkpt lat="45.86237" lon="-0.91094">
        <ele>11.4</ele>
        <time>2025-05-06T17:13:58.064Z</time>
      </trkpt>
      <trkpt lat="45.8624" lon="-0.9109">
        <ele>11.4</ele>
        <time>2025-05-06T17:14:02.130Z</time>
      </trkpt>
      <trkpt lat="45.86268" lon="-0.91056">
        <ele>10.6</ele>
        <time>2025-05-06T17:14:36.221Z</time>
      </trkpt>
      <trkpt lat="45.86279" lon="-0.91043">
        <ele>10.5</ele>
        <time>2025-05-06T17:14:50.071Z</time>
      </trkpt>
      <trkpt lat="45.8629" lon="-0.91034">
        <ele>10.1</ele>
        <time>2025-05-06T17:15:01.503Z</time>
      </trkpt>
      <trkpt lat="45.86299" lon="-0.91028">
        <ele>9.8</ele>
        <time>2025-05-06T17:15:10.500Z</time>
      </trkpt>
      <trkpt lat="45.86306" lon="-0.91026">
        <ele>9.5</ele>
        <time>2025-05-06T17:15:16.750Z</time>
      </trkpt>
      <trkpt lat="45.86333" lon="-0.91017">
        <ele>7.9</ele>
        <time>2025-05-06T17:15:40.842Z</time>
      </trkpt>
      <trkpt lat="45.86348" lon="-0.91014">
        <ele>7.6</ele>
        <time>2025-05-06T17:15:55.007Z</time>
      </trkpt>
      <trkpt lat="45.86355" lon="-0.91012">
        <ele>7.2</ele>
        <time>2025-05-06T17:16:01.211Z</time>
      </trkpt>
      <trkpt lat="45.86361" lon="-0.91012">
        <ele>6.7</ele>
        <time>2025-05-06T17:16:06.426Z</time>
      </trkpt>
      <trkpt lat="45.86361" lon="-0.91012">
        <ele>6.7</ele>
        <time>2025-05-06T17:16:06.426Z</time>
      </trkpt>
      <trkpt lat="45.86377" lon="-0.91011">
        <ele>5.6</ele>
        <time>2025-05-06T17:16:20.346Z</time>
      </trkpt>
      <trkpt lat="45.86391" lon="-0.9101">
        <ele>5.5</ele>
        <time>2025-05-06T17:16:33.969Z</time>
      </trkpt>
      <trkpt lat="45.86397" lon="-0.91007">
        <ele>5.5</ele>
        <time>2025-05-06T17:16:40.280Z</time>
      </trkpt>
      <trkpt lat="45.864" lon="-0.91004">
        <ele>5.5</ele>
        <time>2025-05-06T17:16:43.912Z</time>
      </trkpt>
      <trkpt lat="45.86404" lon="-0.91">
        <ele>5.5</ele>
        <time>2025-05-06T17:16:48.754Z</time>
      </trkpt>
      <trkpt lat="45.86405" lon="-0.90998">
        <ele>5.4</ele>
        <time>2025-05-06T17:16:50.244Z</time>
      </trkpt>
      <trkpt lat="45.86407" lon="-0.90997">
        <ele>5.3</ele>
        <time>2025-05-06T17:16:52.085Z</time>
      </trkpt>
      <trkpt lat="45.8641" lon="-0.90992">
        <ele>5.2</ele>
        <time>2025-05-06T17:16:56.358Z</time>
      </trkpt>
      <trkpt lat="45.86412" lon="-0.90991">
        <ele>5.1</ele>
        <time>2025-05-06T17:16:58.199Z</time>
      </trkpt>
      <trkpt lat="45.86416" lon="-0.90986">
        <ele>4.9</ele>
        <time>2025-05-06T17:17:02.902Z</time>
      </trkpt>
      <trkpt lat="45.8642" lon="-0.90985">
        <ele>4.8</ele>
        <time>2025-05-06T17:17:06.645Z</time>
      </trkpt>
      <trkpt lat="45.8642" lon="-0.90985">
        <ele>4.8</ele>
        <time>2025-05-06T17:17:06.645Z</time>
      </trkpt>
      <trkpt lat="45.8642" lon="-0.90985">
        <ele>4.8</ele>
        <time>2025-05-06T17:17:06.645Z</time>
      </trkpt>
      <trkpt lat="45.86426" lon="-0.90986">
        <ele>4.5</ele>
        <time>2025-05-06T17:17:11.896Z</time>
      </trkpt>
      <trkpt lat="45.86433" lon="-0.90993">
        <ele>4.3</ele>
        <time>2025-05-06T17:17:19.787Z</time>
      </trkpt>
      <trkpt lat="45.86439" lon="-0.91004">
        <ele>4.1</ele>
        <time>2025-05-06T17:17:28.867Z</time>
      </trkpt>
      <trkpt lat="45.86445" lon="-0.91018">
        <ele>3.9</ele>
        <time>2025-05-06T17:17:39.650Z</time>
      </trkpt>
      <trkpt lat="45.86451" lon="-0.91027">
        <ele>3.7</ele>
        <time>2025-05-06T17:17:47.686Z</time>
      </trkpt>
      <trkpt lat="45.86452" lon="-0.91029">
        <ele>3.7</ele>
        <time>2025-05-06T17:17:49.389Z</time>
      </trkpt>
      <trkpt lat="45.86456" lon="-0.91035">
        <ele>3.6</ele>
        <time>2025-05-06T17:17:54.840Z</time>
      </trkpt>
      <trkpt lat="45.86466" lon="-0.91044">
        <ele>3.8</ele>
        <time>2025-05-06T17:18:07.198Z</time>
      </trkpt>
      <trkpt lat="45.86495" lon="-0.91069">
        <ele>4</ele>
        <time>2025-05-06T17:18:41.418Z</time>
      </trkpt>
      <trkpt lat="45.86516" lon="-0.91086">
        <ele>4.2</ele>
        <time>2025-05-06T17:19:05.987Z</time>
      </trkpt>
      <trkpt lat="45.86536" lon="-0.91102">
        <ele>4.2</ele>
        <time>2025-05-06T17:19:28.729Z</time>
      </trkpt>
      <trkpt lat="45.86572" lon="-0.91129">
        <ele>4.6</ele>
        <time>2025-05-06T17:20:10.324Z</time>
      </trkpt>
      <trkpt lat="45.86588" lon="-0.9114">
        <ele>4.3</ele>
        <time>2025-05-06T17:20:27.060Z</time>
      </trkpt>
      <trkpt lat="45.86604" lon="-0.91151">
        <ele>4.3</ele>
        <time>2025-05-06T17:20:44.682Z</time>
      </trkpt>
      <trkpt lat="45.86607" lon="-0.91154">
        <ele>4.6</ele>
        <time>2025-05-06T17:20:49.420Z</time>
      </trkpt>
      <trkpt lat="45.86616" lon="-0.91158">
        <ele>5.6</ele>
        <time>2025-05-06T17:21:02.692Z</time>
      </trkpt>
      <trkpt lat="45.86626" lon="-0.91161">
        <ele>6.7</ele>
        <time>2025-05-06T17:21:17.162Z</time>
      </trkpt>
      <trkpt lat="45.86634" lon="-0.91162">
        <ele>7.3</ele>
        <time>2025-05-06T17:21:27.314Z</time>
      </trkpt>
      <trkpt lat="45.86643" lon="-0.9116">
        <ele>7.7</ele>
        <time>2025-05-06T17:21:37.710Z</time>
      </trkpt>
      <trkpt lat="45.86653" lon="-0.91156">
        <ele>7.8</ele>
        <time>2025-05-06T17:21:48.334Z</time>
      </trkpt>
      <trkpt lat="45.8666" lon="-0.9115">
        <ele>7.9</ele>
        <time>2025-05-06T17:21:56.746Z</time>
      </trkpt>
      <trkpt lat="45.86663" lon="-0.91147">
        <ele>8</ele>
        <time>2025-05-06T17:22:00.702Z</time>
      </trkpt>
      <trkpt lat="45.86696" lon="-0.91112">
        <ele>9</ele>
        <time>2025-05-06T17:22:44.680Z</time>
      </trkpt>
      <trkpt lat="45.86705" lon="-0.91103">
        <ele>9.2</ele>
        <time>2025-05-06T17:22:56.211Z</time>
      </trkpt>
      <trkpt lat="45.86722" lon="-0.91086">
        <ele>9.4</ele>
        <time>2025-05-06T17:23:17.413Z</time>
      </trkpt>
      <trkpt lat="45.86724" lon="-0.91083">
        <ele>9.4</ele>
        <time>2025-05-06T17:23:20.286Z</time>
      </trkpt>
      <trkpt lat="45.86738" lon="-0.91071">
        <ele>9.5</ele>
        <time>2025-05-06T17:23:36.792Z</time>
      </trkpt>
      <trkpt lat="45.86748" lon="-0.91064">
        <ele>9.6</ele>
        <time>2025-05-06T17:23:48.154Z</time>
      </trkpt>
      <trkpt lat="45.86761" lon="-0.91058">
        <ele>9.7</ele>
        <time>2025-05-06T17:24:02.029Z</time>
      </trkpt>
      <trkpt lat="45.86761" lon="-0.91058">
        <ele>9.7</ele>
        <time>2025-05-06T17:24:02.029Z</time>
      </trkpt>
      <trkpt lat="45.86761" lon="-0.91058">
        <ele>9.7</ele>
        <time>2025-05-06T17:24:02.029Z</time>
      </trkpt>
      <trkpt lat="45.86773" lon="-0.91055">
        <ele>9.7</ele>
        <time>2025-05-06T17:24:14.129Z</time>
      </trkpt>
      <trkpt lat="45.8679" lon="-0.91053">
        <ele>9.6</ele>
        <time>2025-05-06T17:24:30.771Z</time>
      </trkpt>
      <trkpt lat="45.86813" lon="-0.91051">
        <ele>9.3</ele>
        <time>2025-05-06T17:24:52.768Z</time>
      </trkpt>
      <trkpt lat="45.86839" lon="-0.91049">
        <ele>8.7</ele>
        <time>2025-05-06T17:25:16.886Z</time>
      </trkpt>
      <trkpt lat="45.86849" lon="-0.91049">
        <ele>8.5</ele>
        <time>2025-05-06T17:25:26.233Z</time>
      </trkpt>
      <trkpt lat="45.86856" lon="-0.91051">
        <ele>8.4</ele>
        <time>2025-05-06T17:25:33.027Z</time>
      </trkpt>
      <trkpt lat="45.86856" lon="-0.91051">
        <ele>8.4</ele>
        <time>2025-05-06T17:25:33.027Z</time>
      </trkpt>
      <trkpt lat="45.86856" lon="-0.91051">
        <ele>8.4</ele>
        <time>2025-05-06T17:25:33.027Z</time>
      </trkpt>
      <trkpt lat="45.86874" lon="-0.91055">
        <ele>8.1</ele>
        <time>2025-05-06T17:25:50.234Z</time>
      </trkpt>
      <trkpt lat="45.86894" lon="-0.91059">
        <ele>8</ele>
        <time>2025-05-06T17:26:09.991Z</time>
      </trkpt>
      <trkpt lat="45.86908" lon="-0.9106">
        <ele>8.4</ele>
        <time>2025-05-06T17:26:25.218Z</time>
      </trkpt>
      <trkpt lat="45.86924" lon="-0.91058">
        <ele>8.8</ele>
        <time>2025-05-06T17:26:42.464Z</time>
      </trkpt>
      <trkpt lat="45.86933" lon="-0.91057">
        <ele>9.1</ele>
        <time>2025-05-06T17:26:52.418Z</time>
      </trkpt>
      <trkpt lat="45.86933" lon="-0.91057">
        <ele>9.1</ele>
        <time>2025-05-06T17:26:52.418Z</time>
      </trkpt>
      <trkpt lat="45.86933" lon="-0.91057">
        <ele>9.1</ele>
        <time>2025-05-06T17:26:52.418Z</time>
      </trkpt>
      <trkpt lat="45.8694" lon="-0.91056">
        <ele>9.3</ele>
        <time>2025-05-06T17:27:00.057Z</time>
      </trkpt>
      <trkpt lat="45.8695" lon="-0.91057">
        <ele>9.6</ele>
        <time>2025-05-06T17:27:10.995Z</time>
      </trkpt>
      <trkpt lat="45.86965" lon="-0.91058">
        <ele>9.9</ele>
        <time>2025-05-06T17:27:26.870Z</time>
      </trkpt>
      <trkpt lat="45.86974" lon="-0.91058">
        <ele>10.1</ele>
        <time>2025-05-06T17:27:36.452Z</time>
      </trkpt>
      <trkpt lat="45.86984" lon="-0.91055">
        <ele>10.2</ele>
        <time>2025-05-06T17:27:46.913Z</time>
      </trkpt>
      <trkpt lat="45.86985" lon="-0.91055">
        <ele>10.2</ele>
        <time>2025-05-06T17:27:47.906Z</time>
      </trkpt>
      <trkpt lat="45.86985" lon="-0.91055">
        <ele>10.2</ele>
        <time>2025-05-06T17:27:47.906Z</time>
      </trkpt>
      <trkpt lat="45.86985" lon="-0.91055">
        <ele>10.2</ele>
        <time>2025-05-06T17:27:47.906Z</time>
      </trkpt>
      <trkpt lat="45.86992" lon="-0.91053">
        <ele>10.3</ele>
        <time>2025-05-06T17:27:55.311Z</time>
      </trkpt>
      <trkpt lat="45.86992" lon="-0.91053">
        <ele>10.3</ele>
        <time>2025-05-06T17:27:55.311Z</time>
      </trkpt>
      <trkpt lat="45.86992" lon="-0.91053">
        <ele>10.3</ele>
        <time>2025-05-06T17:27:55.311Z</time>
      </trkpt>
      <trkpt lat="45.86995" lon="-0.91052">
        <ele>10.3</ele>
        <time>2025-05-06T17:27:58.370Z</time>
      </trkpt>
      <trkpt lat="45.87012" lon="-0.91052">
        <ele>10.5</ele>
        <time>2025-05-06T17:28:15.885Z</time>
      </trkpt>
      <trkpt lat="45.87012" lon="-0.91052">
        <ele>10.5</ele>
        <time>2025-05-06T17:28:15.885Z</time>
      </trkpt>
      <trkpt lat="45.87012" lon="-0.91052">
        <ele>10.5</ele>
        <time>2025-05-06T17:28:15.885Z</time>
      </trkpt>
      <trkpt lat="45.87014" lon="-0.91052">
        <ele>10.5</ele>
        <time>2025-05-06T17:28:17.872Z</time>
      </trkpt>
      <trkpt lat="45.87046" lon="-0.91055">
        <ele>10.5</ele>
        <time>2025-05-06T17:28:49.727Z</time>
      </trkpt>
      <trkpt lat="45.87056" lon="-0.91055">
        <ele>10.4</ele>
        <time>2025-05-06T17:28:59.362Z</time>
      </trkpt>
      <trkpt lat="45.87056" lon="-0.91055">
        <ele>10.4</ele>
        <time>2025-05-06T17:28:59.362Z</time>
      </trkpt>
      <trkpt lat="45.87056" lon="-0.91055">
        <ele>10.4</ele>
        <time>2025-05-06T17:28:59.362Z</time>
      </trkpt>
      <trkpt lat="45.87068" lon="-0.91055">
        <ele>10.4</ele>
        <time>2025-05-06T17:29:11.282Z</time>
      </trkpt>
      <trkpt lat="45.871" lon="-0.91054">
        <ele>10.1</ele>
        <time>2025-05-06T17:29:42.178Z</time>
      </trkpt>
      <trkpt lat="45.87116" lon="-0.91055">
        <ele>9.9</ele>
        <time>2025-05-06T17:29:57.492Z</time>
      </trkpt>
      <trkpt lat="45.87132" lon="-0.91055">
        <ele>9.7</ele>
        <time>2025-05-06T17:30:12.790Z</time>
      </trkpt>
      <trkpt lat="45.87147" lon="-0.91058">
        <ele>9.6</ele>
        <time>2025-05-06T17:30:27.533Z</time>
      </trkpt>
      <trkpt lat="45.8716" lon="-0.91062">
        <ele>9.6</ele>
        <time>2025-05-06T17:30:40.740Z</time>
      </trkpt>
      <trkpt lat="45.87175" lon="-0.91068">
        <ele>9.6</ele>
        <time>2025-05-06T17:30:56.208Z</time>
      </trkpt>
      <trkpt lat="45.8719" lon="-0.91076">
        <ele>9.9</ele>
        <time>2025-05-06T17:31:13.058Z</time>
      </trkpt>
      <trkpt lat="45.87211" lon="-0.91087">
        <ele>10.4</ele>
        <time>2025-05-06T17:31:36.869Z</time>
      </trkpt>
      <trkpt lat="45.87225" lon="-0.91096">
        <ele>10.3</ele>
        <time>2025-05-06T17:31:51.804Z</time>
      </trkpt>
      <trkpt lat="45.87237" lon="-0.91105">
        <ele>10.1</ele>
        <time>2025-05-06T17:32:04.659Z</time>
      </trkpt>
      <trkpt lat="45.87237" lon="-0.91105">
        <ele>10.1</ele>
        <time>2025-05-06T17:32:04.659Z</time>
      </trkpt>
      <trkpt lat="45.87237" lon="-0.91105">
        <ele>10.1</ele>
        <time>2025-05-06T17:32:04.659Z</time>
      </trkpt>
      <trkpt lat="45.87241" lon="-0.91108">
        <ele>10.1</ele>
        <time>2025-05-06T17:32:09.142Z</time>
      </trkpt>
      <trkpt lat="45.87246" lon="-0.91112">
        <ele>10</ele>
        <time>2025-05-06T17:32:14.533Z</time>
      </trkpt>
      <trkpt lat="45.87277" lon="-0.91135">
        <ele>10.4</ele>
        <time>2025-05-06T17:32:50.447Z</time>
      </trkpt>
      <trkpt lat="45.87306" lon="-0.91155">
        <ele>10.6</ele>
        <time>2025-05-06T17:33:23.024Z</time>
      </trkpt>
      <trkpt lat="45.87322" lon="-0.91167">
        <ele>10.8</ele>
        <time>2025-05-06T17:33:41.581Z</time>
      </trkpt>
      <trkpt lat="45.87347" lon="-0.91184">
        <ele>11</ele>
        <time>2025-05-06T17:34:09.679Z</time>
      </trkpt>
      <trkpt lat="45.8738" lon="-0.91209">
        <ele>10.9</ele>
        <time>2025-05-06T17:34:46.437Z</time>
      </trkpt>
      <trkpt lat="45.87394" lon="-0.9122">
        <ele>11</ele>
        <time>2025-05-06T17:35:02.599Z</time>
      </trkpt>
      <trkpt lat="45.87405" lon="-0.91229">
        <ele>11.1</ele>
        <time>2025-05-06T17:35:15.485Z</time>
      </trkpt>
      <trkpt lat="45.87424" lon="-0.91246">
        <ele>11</ele>
        <time>2025-05-06T17:35:37.419Z</time>
      </trkpt>
      <trkpt lat="45.87441" lon="-0.91262">
        <ele>11.2</ele>
        <time>2025-05-06T17:35:58.234Z</time>
      </trkpt>
      <trkpt lat="45.87445" lon="-0.91266">
        <ele>11.3</ele>
        <time>2025-05-06T17:36:03.395Z</time>
      </trkpt>
      <trkpt lat="45.87465" lon="-0.91283">
        <ele>11.4</ele>
        <time>2025-05-06T17:36:26.790Z</time>
      </trkpt>
      <trkpt lat="45.87469" lon="-0.91288">
        <ele>11.4</ele>
        <time>2025-05-06T17:36:32.057Z</time>
      </trkpt>
      <trkpt lat="45.87482" lon="-0.91298">
        <ele>11.3</ele>
        <time>2025-05-06T17:36:46.405Z</time>
      </trkpt>
      <trkpt lat="45.87494" lon="-0.91307">
        <ele>11</ele>
        <time>2025-05-06T17:36:58.978Z</time>
      </trkpt>
      <trkpt lat="45.87507" lon="-0.91313">
        <ele>10.7</ele>
        <time>2025-05-06T17:37:11.666Z</time>
      </trkpt>
      <trkpt lat="45.87524" lon="-0.91318">
        <ele>10.5</ele>
        <time>2025-05-06T17:37:28.307Z</time>
      </trkpt>
      <trkpt lat="45.87548" lon="-0.91325">
        <ele>10.5</ele>
        <time>2025-05-06T17:37:52.635Z</time>
      </trkpt>
      <trkpt lat="45.87565" lon="-0.91328">
        <ele>10.6</ele>
        <time>2025-05-06T17:38:09.959Z</time>
      </trkpt>
      <trkpt lat="45.87577" lon="-0.91329">
        <ele>10.6</ele>
        <time>2025-05-06T17:38:21.899Z</time>
      </trkpt>
      <trkpt lat="45.87589" lon="-0.91328">
        <ele>10.6</ele>
        <time>2025-05-06T17:38:33.840Z</time>
      </trkpt>
      <trkpt lat="45.87603" lon="-0.91324">
        <ele>10.6</ele>
        <time>2025-05-06T17:38:48.019Z</time>
      </trkpt>
      <trkpt lat="45.87603" lon="-0.91324">
        <ele>10.6</ele>
        <time>2025-05-06T17:38:48.019Z</time>
      </trkpt>
      <trkpt lat="45.87603" lon="-0.91324">
        <ele>10.6</ele>
        <time>2025-05-06T17:38:48.019Z</time>
      </trkpt>
      <trkpt lat="45.87623" lon="-0.91317">
        <ele>10.5</ele>
        <time>2025-05-06T17:39:08.165Z</time>
      </trkpt>
      <trkpt lat="45.87638" lon="-0.91309">
        <ele>10.6</ele>
        <time>2025-05-06T17:39:24.370Z</time>
      </trkpt>
      <trkpt lat="45.87648" lon="-0.91302">
        <ele>10.7</ele>
        <time>2025-05-06T17:39:35.732Z</time>
      </trkpt>
      <trkpt lat="45.87648" lon="-0.91302">
        <ele>10.7</ele>
        <time>2025-05-06T17:39:35.732Z</time>
      </trkpt>
      <trkpt lat="45.87648" lon="-0.91302">
        <ele>10.7</ele>
        <time>2025-05-06T17:39:35.732Z</time>
      </trkpt>
      <trkpt lat="45.8765" lon="-0.91301">
        <ele>10.7</ele>
        <time>2025-05-06T17:39:37.836Z</time>
      </trkpt>
      <trkpt lat="45.87656" lon="-0.91297">
        <ele>10.7</ele>
        <time>2025-05-06T17:39:44.407Z</time>
      </trkpt>
      <trkpt lat="45.87666" lon="-0.91288">
        <ele>10.5</ele>
        <time>2025-05-06T17:39:55.540Z</time>
      </trkpt>
      <trkpt lat="45.87666" lon="-0.91288">
        <ele>10.5</ele>
        <time>2025-05-06T17:39:55.540Z</time>
      </trkpt>
      <trkpt lat="45.87666" lon="-0.91288">
        <ele>10.5</ele>
        <time>2025-05-06T17:39:55.540Z</time>
      </trkpt>
      <trkpt lat="45.87672" lon="-0.91284">
        <ele>10.2</ele>
        <time>2025-05-06T17:40:01.289Z</time>
      </trkpt>
      <trkpt lat="45.87678" lon="-0.91282">
        <ele>10</ele>
        <time>2025-05-06T17:40:06.837Z</time>
      </trkpt>
      <trkpt lat="45.87687" lon="-0.9128">
        <ele>9.5</ele>
        <time>2025-05-06T17:40:14.753Z</time>
      </trkpt>
      <trkpt lat="45.87687" lon="-0.9128">
        <ele>9.5</ele>
        <time>2025-05-06T17:40:14.753Z</time>
      </trkpt>
      <trkpt lat="45.87687" lon="-0.9128">
        <ele>9.5</ele>
        <time>2025-05-06T17:40:14.753Z</time>
      </trkpt>
      <trkpt lat="45.87691" lon="-0.91281">
        <ele>9.3</ele>
        <time>2025-05-06T17:40:18.282Z</time>
      </trkpt>
      <trkpt lat="45.87697" lon="-0.91283">
        <ele>9</ele>
        <time>2025-05-06T17:40:23.636Z</time>
      </trkpt>
      <trkpt lat="45.87706" lon="-0.91288">
        <ele>8.7</ele>
        <time>2025-05-06T17:40:32.362Z</time>
      </trkpt>
      <trkpt lat="45.87716" lon="-0.91294">
        <ele>7.9</ele>
        <time>2025-05-06T17:40:41.782Z</time>
      </trkpt>
      <trkpt lat="45.87725" lon="-0.91299">
        <ele>6.7</ele>
        <time>2025-05-06T17:40:50.170Z</time>
      </trkpt>
      <trkpt lat="45.87734" lon="-0.91303">
        <ele>5.6</ele>
        <time>2025-05-06T17:40:58.358Z</time>
      </trkpt>
      <trkpt lat="45.87741" lon="-0.91304">
        <ele>5</ele>
        <time>2025-05-06T17:41:04.473Z</time>
      </trkpt>
      <trkpt lat="45.87752" lon="-0.91305">
        <ele>4.4</ele>
        <time>2025-05-06T17:41:14.053Z</time>
      </trkpt>
      <trkpt lat="45.87764" lon="-0.91304">
        <ele>4.3</ele>
        <time>2025-05-06T17:41:25.693Z</time>
      </trkpt>
      <trkpt lat="45.87775" lon="-0.91303">
        <ele>4.8</ele>
        <time>2025-05-06T17:41:38.334Z</time>
      </trkpt>
      <trkpt lat="45.87779" lon="-0.91302">
        <ele>5</ele>
        <time>2025-05-06T17:41:43.050Z</time>
      </trkpt>
      <trkpt lat="45.87782" lon="-0.91302">
        <ele>5.3</ele>
        <time>2025-05-06T17:41:47.186Z</time>
      </trkpt>
      <trkpt lat="45.87783" lon="-0.91302">
        <ele>5.3</ele>
        <time>2025-05-06T17:41:48.179Z</time>
      </trkpt>
      <trkpt lat="45.87786" lon="-0.91301">
        <ele>5.6</ele>
        <time>2025-05-06T17:41:52.388Z</time>
      </trkpt>
      <trkpt lat="45.87786" lon="-0.91301">
        <ele>5.6</ele>
        <time>2025-05-06T17:41:52.388Z</time>
      </trkpt>
      <trkpt lat="45.87786" lon="-0.91301">
        <ele>5.6</ele>
        <time>2025-05-06T17:41:52.388Z</time>
      </trkpt>
      <trkpt lat="45.87796" lon="-0.91298">
        <ele>6.3</ele>
        <time>2025-05-06T17:42:05.036Z</time>
      </trkpt>
      <trkpt lat="45.8781" lon="-0.91293">
        <ele>7.1</ele>
        <time>2025-05-06T17:42:22.137Z</time>
      </trkpt>
      <trkpt lat="45.87826" lon="-0.91287">
        <ele>7.6</ele>
        <time>2025-05-06T17:42:40.198Z</time>
      </trkpt>
      <trkpt lat="45.87836" lon="-0.91285">
        <ele>8</ele>
        <time>2025-05-06T17:42:51.563Z</time>
      </trkpt>
      <trkpt lat="45.87846" lon="-0.91285">
        <ele>8.3</ele>
        <time>2025-05-06T17:43:02.477Z</time>
      </trkpt>
      <trkpt lat="45.87856" lon="-0.91287">
        <ele>8.5</ele>
        <time>2025-05-06T17:43:13.145Z</time>
      </trkpt>
      <trkpt lat="45.87866" lon="-0.91291">
        <ele>8.6</ele>
        <time>2025-05-06T17:43:23.769Z</time>
      </trkpt>
      <trkpt lat="45.87875" lon="-0.91296">
        <ele>8.7</ele>
        <time>2025-05-06T17:43:33.667Z</time>
      </trkpt>
      <trkpt lat="45.87882" lon="-0.91301">
        <ele>8.8</ele>
        <time>2025-05-06T17:43:41.748Z</time>
      </trkpt>
      <trkpt lat="45.87887" lon="-0.91306">
        <ele>8.8</ele>
        <time>2025-05-06T17:43:47.800Z</time>
      </trkpt>
      <trkpt lat="45.87892" lon="-0.91315">
        <ele>8.8</ele>
        <time>2025-05-06T17:43:55.763Z</time>
      </trkpt>
      <trkpt lat="45.87896" lon="-0.91325">
        <ele>8.7</ele>
        <time>2025-05-06T17:44:03.441Z</time>
      </trkpt>
      <trkpt lat="45.87899" lon="-0.91337">
        <ele>8.7</ele>
        <time>2025-05-06T17:44:12.258Z</time>
      </trkpt>
      <trkpt lat="45.87903" lon="-0.91353">
        <ele>8.4</ele>
        <time>2025-05-06T17:44:23.146Z</time>
      </trkpt>
      <trkpt lat="45.87908" lon="-0.91365">
        <ele>8.1</ele>
        <time>2025-05-06T17:44:31.958Z</time>
      </trkpt>
      <trkpt lat="45.87912" lon="-0.91374">
        <ele>7.8</ele>
        <time>2025-05-06T17:44:38.499Z</time>
      </trkpt>
      <trkpt lat="45.87918" lon="-0.91379">
        <ele>7.6</ele>
        <time>2025-05-06T17:44:44.814Z</time>
      </trkpt>
      <trkpt lat="45.87925" lon="-0.91383">
        <ele>7.4</ele>
        <time>2025-05-06T17:44:51.720Z</time>
      </trkpt>
      <trkpt lat="45.87934" lon="-0.91387">
        <ele>7.3</ele>
        <time>2025-05-06T17:45:00.780Z</time>
      </trkpt>
      <trkpt lat="45.87954" lon="-0.9139">
        <ele>8.1</ele>
        <time>2025-05-06T17:45:23.427Z</time>
      </trkpt>
      <trkpt lat="45.87981" lon="-0.91394">
        <ele>9.3</ele>
        <time>2025-05-06T17:45:54.439Z</time>
      </trkpt>
      <trkpt lat="45.87991" lon="-0.91395">
        <ele>9.7</ele>
        <time>2025-05-06T17:46:05.734Z</time>
      </trkpt>
      <trkpt lat="45.88031" lon="-0.91401">
        <ele>10.4</ele>
        <time>2025-05-06T17:46:47.908Z</time>
      </trkpt>
      <trkpt lat="45.88033" lon="-0.91402">
        <ele>10.4</ele>
        <time>2025-05-06T17:46:50.012Z</time>
      </trkpt>
      <trkpt lat="45.8805" lon="-0.91404">
        <ele>10.4</ele>
        <time>2025-05-06T17:47:06.955Z</time>
      </trkpt>
      <trkpt lat="45.88073" lon="-0.91407">
        <ele>10.2</ele>
        <time>2025-05-06T17:47:29.297Z</time>
      </trkpt>
      <trkpt lat="45.88073" lon="-0.91407">
        <ele>10.2</ele>
        <time>2025-05-06T17:47:29.297Z</time>
      </trkpt>
      <trkpt lat="45.88073" lon="-0.91407">
        <ele>10.2</ele>
        <time>2025-05-06T17:47:29.297Z</time>
      </trkpt>
      <trkpt lat="45.88076" lon="-0.91365">
        <ele>11.1</ele>
        <time>2025-05-06T17:48:01.438Z</time>
      </trkpt>
      <trkpt lat="45.88079" lon="-0.91332">
        <ele>11.1</ele>
        <time>2025-05-06T17:48:24.453Z</time>
      </trkpt>
      <trkpt lat="45.88082" lon="-0.91299">
        <ele>10.8</ele>
        <time>2025-05-06T17:48:46.575Z</time>
      </trkpt>
      <trkpt lat="45.88087" lon="-0.91237">
        <ele>10.9</ele>
        <time>2025-05-06T17:49:30.044Z</time>
      </trkpt>
      <trkpt lat="45.88087" lon="-0.91237">
        <ele>10.9</ele>
        <time>2025-05-06T17:49:30.044Z</time>
      </trkpt>
      <trkpt lat="45.88087" lon="-0.91237">
        <ele>10.9</ele>
        <time>2025-05-06T17:49:30.044Z</time>
      </trkpt>
      <trkpt lat="45.881" lon="-0.91239">
        <ele>11.2</ele>
        <time>2025-05-06T17:49:43.997Z</time>
      </trkpt>
      <trkpt lat="45.88107" lon="-0.91241">
        <ele>11.3</ele>
        <time>2025-05-06T17:49:51.402Z</time>
      </trkpt>
      <trkpt lat="45.88134" lon="-0.9125">
        <ele>11.4</ele>
        <time>2025-05-06T17:50:19.243Z</time>
      </trkpt>
      <trkpt lat="45.88161" lon="-0.91258">
        <ele>11.7</ele>
        <time>2025-05-06T17:50:47.568Z</time>
      </trkpt>
      <trkpt lat="45.88184" lon="-0.91267">
        <ele>12.1</ele>
        <time>2025-05-06T17:51:12.517Z</time>
      </trkpt>
      <trkpt lat="45.88206" lon="-0.91276">
        <ele>12.1</ele>
        <time>2025-05-06T17:51:35.240Z</time>
      </trkpt>
      <trkpt lat="45.88225" lon="-0.91283">
        <ele>12.3</ele>
        <time>2025-05-06T17:51:55.350Z</time>
      </trkpt>
      <trkpt lat="45.88234" lon="-0.91288">
        <ele>12.4</ele>
        <time>2025-05-06T17:52:05.249Z</time>
      </trkpt>
      <trkpt lat="45.8824" lon="-0.91294">
        <ele>12.4</ele>
        <time>2025-05-06T17:52:12.511Z</time>
      </trkpt>
      <trkpt lat="45.88245" lon="-0.91303">
        <ele>12.3</ele>
        <time>2025-05-06T17:52:20.176Z</time>
      </trkpt>
      <trkpt lat="45.88248" lon="-0.91312">
        <ele>12.1</ele>
        <time>2025-05-06T17:52:26.501Z</time>
      </trkpt>
      <trkpt lat="45.88249" lon="-0.91326">
        <ele>12</ele>
        <time>2025-05-06T17:52:35.934Z</time>
      </trkpt>
      <trkpt lat="45.88252" lon="-0.91358">
        <ele>12.1</ele>
        <time>2025-05-06T17:52:58.571Z</time>
      </trkpt>
      <trkpt lat="45.88255" lon="-0.9139">
        <ele>11.6</ele>
        <time>2025-05-06T17:53:19.441Z</time>
      </trkpt>
      <trkpt lat="45.88258" lon="-0.91411">
        <ele>11</ele>
        <time>2025-05-06T17:53:32.579Z</time>
      </trkpt>
      <trkpt lat="45.8826" lon="-0.91425">
        <ele>10.7</ele>
        <time>2025-05-06T17:53:41.601Z</time>
      </trkpt>
      <trkpt lat="45.8826" lon="-0.91425">
        <ele>10.7</ele>
        <time>2025-05-06T17:53:41.601Z</time>
      </trkpt>
      <trkpt lat="45.8826" lon="-0.91425">
        <ele>10.7</ele>
        <time>2025-05-06T17:53:41.601Z</time>
      </trkpt>
      <trkpt lat="45.88265" lon="-0.91425">
        <ele>10.8</ele>
        <time>2025-05-06T17:53:46.888Z</time>
      </trkpt>
      <trkpt lat="45.88266" lon="-0.91425">
        <ele>10.8</ele>
        <time>2025-05-06T17:53:47.881Z</time>
      </trkpt>
      <trkpt lat="45.88276" lon="-0.91425">
        <ele>11</ele>
        <time>2025-05-06T17:53:58.454Z</time>
      </trkpt>
      <trkpt lat="45.88303" lon="-0.91424">
        <ele>11.1</ele>
        <time>2025-05-06T17:54:25.592Z</time>
      </trkpt>
      <trkpt lat="45.88331" lon="-0.91424">
        <ele>10.7</ele>
        <time>2025-05-06T17:54:52.220Z</time>
      </trkpt>
      <trkpt lat="45.88359" lon="-0.91423">
        <ele>10.1</ele>
        <time>2025-05-06T17:55:18.290Z</time>
      </trkpt>
      <trkpt lat="45.88362" lon="-0.91423">
        <ele>10</ele>
        <time>2025-05-06T17:55:20.985Z</time>
      </trkpt>
      <trkpt lat="45.88362" lon="-0.91423">
        <ele>10</ele>
        <time>2025-05-06T17:55:20.985Z</time>
      </trkpt>
      <trkpt lat="45.88362" lon="-0.91423">
        <ele>10</ele>
        <time>2025-05-06T17:55:20.985Z</time>
      </trkpt>
      <trkpt lat="45.88387" lon="-0.91422">
        <ele>9.4</ele>
        <time>2025-05-06T17:55:44.085Z</time>
      </trkpt>
      <trkpt lat="45.88411" lon="-0.91422">
        <ele>8.3</ele>
        <time>2025-05-06T17:56:04.946Z</time>
      </trkpt>
      <trkpt lat="45.88439" lon="-0.91421">
        <ele>7.1</ele>
        <time>2025-05-06T17:56:29.415Z</time>
      </trkpt>
      <trkpt lat="45.88466" lon="-0.91421">
        <ele>6.3</ele>
        <time>2025-05-06T17:56:53.938Z</time>
      </trkpt>
      <trkpt lat="45.88488" lon="-0.9142">
        <ele>6.1</ele>
        <time>2025-05-06T17:57:15.204Z</time>
      </trkpt>
      <trkpt lat="45.88488" lon="-0.9142">
        <ele>6.1</ele>
        <time>2025-05-06T17:57:15.204Z</time>
      </trkpt>
      <trkpt lat="45.88488" lon="-0.9142">
        <ele>6.1</ele>
        <time>2025-05-06T17:57:15.204Z</time>
      </trkpt>
      <trkpt lat="45.88501" lon="-0.9142">
        <ele>6.1</ele>
        <time>2025-05-06T17:57:28.117Z</time>
      </trkpt>
      <trkpt lat="45.88529" lon="-0.91421">
        <ele>5.7</ele>
        <time>2025-05-06T17:57:54.754Z</time>
      </trkpt>
      <trkpt lat="45.88529" lon="-0.91421">
        <ele>5.7</ele>
        <time>2025-05-06T17:57:54.754Z</time>
      </trkpt>
      <trkpt lat="45.88529" lon="-0.91421">
        <ele>5.7</ele>
        <time>2025-05-06T17:57:54.754Z</time>
      </trkpt>
      <trkpt lat="45.88541" lon="-0.91421">
        <ele>5.4</ele>
        <time>2025-05-06T17:58:05.804Z</time>
      </trkpt>
      <trkpt lat="45.88541" lon="-0.91421">
        <ele>5.4</ele>
        <time>2025-05-06T17:58:05.804Z</time>
      </trkpt>
      <trkpt lat="45.88541" lon="-0.91421">
        <ele>5.4</ele>
        <time>2025-05-06T17:58:05.804Z</time>
      </trkpt>
      <trkpt lat="45.88575" lon="-0.91421">
        <ele>4.6</ele>
        <time>2025-05-06T17:58:37.252Z</time>
      </trkpt>
      <trkpt lat="45.88609" lon="-0.9142">
        <ele>3.8</ele>
        <time>2025-05-06T17:59:08.707Z</time>
      </trkpt>
      <trkpt lat="45.88633" lon="-0.9142">
        <ele>3.6</ele>
        <time>2025-05-06T17:59:31.947Z</time>
      </trkpt>
      <trkpt lat="45.88657" lon="-0.91419">
        <ele>4</ele>
        <time>2025-05-06T17:59:57.066Z</time>
      </trkpt>
      <trkpt lat="45.88682" lon="-0.91417">
        <ele>5.1</ele>
        <time>2025-05-06T18:00:25.648Z</time>
      </trkpt>
      <trkpt lat="45.88689" lon="-0.91418">
        <ele>5.4</ele>
        <time>2025-05-06T18:00:33.645Z</time>
      </trkpt>
      <trkpt lat="45.88697" lon="-0.91419">
        <ele>5.8</ele>
        <time>2025-05-06T18:00:42.989Z</time>
      </trkpt>
      <trkpt lat="45.88697" lon="-0.91419">
        <ele>5.8</ele>
        <time>2025-05-06T18:00:42.989Z</time>
      </trkpt>
      <trkpt lat="45.88697" lon="-0.91419">
        <ele>5.8</ele>
        <time>2025-05-06T18:00:42.989Z</time>
      </trkpt>
      <trkpt lat="45.88701" lon="-0.91435">
        <ele>5.8</ele>
        <time>2025-05-06T18:00:54.744Z</time>
      </trkpt>
      <trkpt lat="45.88697" lon="-0.91419">
        <ele>5.8</ele>
        <time>2025-05-06T18:01:06.499Z</time>
      </trkpt>
      <trkpt lat="45.88697" lon="-0.91419">
        <ele>5.8</ele>
        <time>2025-05-06T18:01:06.499Z</time>
      </trkpt>
      <trkpt lat="45.88697" lon="-0.91419">
        <ele>5.8</ele>
        <time>2025-05-06T18:01:06.499Z</time>
      </trkpt>
      <trkpt lat="45.88702" lon="-0.9142">
        <ele>6.1</ele>
        <time>2025-05-06T18:01:12.563Z</time>
      </trkpt>
      <trkpt lat="45.88724" lon="-0.91434">
        <ele>6.9</ele>
        <time>2025-05-06T18:01:39.098Z</time>
      </trkpt>
      <trkpt lat="45.88745" lon="-0.91447">
        <ele>7</ele>
        <time>2025-05-06T18:02:02.122Z</time>
      </trkpt>
      <trkpt lat="45.88783" lon="-0.91473">
        <ele>8.1</ele>
        <time>2025-05-06T18:02:47.495Z</time>
      </trkpt>
      <trkpt lat="45.88822" lon="-0.91498">
        <ele>8.5</ele>
        <time>2025-05-06T18:03:31.166Z</time>
      </trkpt>
      <trkpt lat="45.88861" lon="-0.91523">
        <ele>8.1</ele>
        <time>2025-05-06T18:04:12.390Z</time>
      </trkpt>
      <trkpt lat="45.88877" lon="-0.91534">
        <ele>8.2</ele>
        <time>2025-05-06T18:04:30.320Z</time>
      </trkpt>
      <trkpt lat="45.88899" lon="-0.91548">
        <ele>7.7</ele>
        <time>2025-05-06T18:04:52.759Z</time>
      </trkpt>
      <trkpt lat="45.88904" lon="-0.91551">
        <ele>7.5</ele>
        <time>2025-05-06T18:04:57.576Z</time>
      </trkpt>
      <trkpt lat="45.88912" lon="-0.91555">
        <ele>7.2</ele>
        <time>2025-05-06T18:05:05.139Z</time>
      </trkpt>
      <trkpt lat="45.88919" lon="-0.91556">
        <ele>6.8</ele>
        <time>2025-05-06T18:05:11.253Z</time>
      </trkpt>
      <trkpt lat="45.88926" lon="-0.91555">
        <ele>6.5</ele>
        <time>2025-05-06T18:05:17.402Z</time>
      </trkpt>
      <trkpt lat="45.88943" lon="-0.91544">
        <ele>6</ele>
        <time>2025-05-06T18:05:34.479Z</time>
      </trkpt>
      <trkpt lat="45.88954" lon="-0.91538">
        <ele>6.3</ele>
        <time>2025-05-06T18:05:47.137Z</time>
      </trkpt>
      <trkpt lat="45.88965" lon="-0.91536">
        <ele>6.8</ele>
        <time>2025-05-06T18:05:59.842Z</time>
      </trkpt>
      <trkpt lat="45.88993" lon="-0.91538">
        <ele>7.9</ele>
        <time>2025-05-06T18:06:31.360Z</time>
      </trkpt>
      <trkpt lat="45.89025" lon="-0.91541">
        <ele>8.8</ele>
        <time>2025-05-06T18:07:06.143Z</time>
      </trkpt>
      <trkpt lat="45.89027" lon="-0.91541">
        <ele>8.8</ele>
        <time>2025-05-06T18:07:08.130Z</time>
      </trkpt>
      <trkpt lat="45.89093" lon="-0.91634">
        <ele>4.3</ele>
        <time>2025-05-06T18:08:28.483Z</time>
      </trkpt>
      <trkpt lat="45.89085" lon="-0.91649">
        <ele>4.8</ele>
        <time>2025-05-06T18:08:43.212Z</time>
      </trkpt>
      <trkpt lat="45.89079" lon="-0.91662">
        <ele>4.8</ele>
        <time>2025-05-06T18:08:53.997Z</time>
      </trkpt>
      <trkpt lat="45.89073" lon="-0.9167">
        <ele>4.9</ele>
        <time>2025-05-06T18:09:02.442Z</time>
      </trkpt>
      <trkpt lat="45.89066" lon="-0.91681">
        <ele>5.4</ele>
        <time>2025-05-06T18:09:14.450Z</time>
      </trkpt>
      <trkpt lat="45.89066" lon="-0.91681">
        <ele>5.4</ele>
        <time>2025-05-06T18:09:14.450Z</time>
      </trkpt>
      <trkpt lat="45.89066" lon="-0.91681">
        <ele>5.4</ele>
        <time>2025-05-06T18:09:14.450Z</time>
      </trkpt>
      <trkpt lat="45.89069" lon="-0.91685">
        <ele>5.5</ele>
        <time>2025-05-06T18:09:18.839Z</time>
      </trkpt>
      <trkpt lat="45.89073" lon="-0.9169">
        <ele>5.8</ele>
        <time>2025-05-06T18:09:25.147Z</time>
      </trkpt>
      <trkpt lat="45.89078" lon="-0.91693">
        <ele>6</ele>
        <time>2025-05-06T18:09:31.193Z</time>
      </trkpt>
      <trkpt lat="45.89082" lon="-0.91693">
        <ele>6.2</ele>
        <time>2025-05-06T18:09:35.851Z</time>
      </trkpt>
      <trkpt lat="45.89085" lon="-0.9169">
        <ele>6.2</ele>
        <time>2025-05-06T18:09:39.482Z</time>
      </trkpt>
      <trkpt lat="45.89088" lon="-0.91686">
        <ele>6.4</ele>
        <time>2025-05-06T18:09:44.230Z</time>
      </trkpt>
      <trkpt lat="45.89091" lon="-0.91678">
        <ele>6.6</ele>
        <time>2025-05-06T18:09:51.168Z</time>
      </trkpt>
      <trkpt lat="45.89095" lon="-0.91673">
        <ele>7.1</ele>
        <time>2025-05-06T18:09:58.336Z</time>
      </trkpt>
      <trkpt lat="45.89097" lon="-0.91671">
        <ele>7.4</ele>
        <time>2025-05-06T18:10:01.982Z</time>
      </trkpt>
      <trkpt lat="45.89103" lon="-0.91666">
        <ele>7.7</ele>
        <time>2025-05-06T18:10:09.882Z</time>
      </trkpt>
      <trkpt lat="45.89108" lon="-0.91661">
        <ele>7.7</ele>
        <time>2025-05-06T18:10:15.934Z</time>
      </trkpt>
      <trkpt lat="45.8911" lon="-0.91658">
        <ele>7.8</ele>
        <time>2025-05-06T18:10:19.136Z</time>
      </trkpt>
      <trkpt lat="45.89111" lon="-0.91655">
        <ele>7.8</ele>
        <time>2025-05-06T18:10:21.436Z</time>
      </trkpt>
      <trkpt lat="45.89113" lon="-0.9165">
        <ele>8</ele>
        <time>2025-05-06T18:10:26.107Z</time>
      </trkpt>
      <trkpt lat="45.89115" lon="-0.91646">
        <ele>8.1</ele>
        <time>2025-05-06T18:10:29.838Z</time>
      </trkpt>
      <trkpt lat="45.89117" lon="-0.91641">
        <ele>8.3</ele>
        <time>2025-05-06T18:10:34.509Z</time>
      </trkpt>
      <trkpt lat="45.89118" lon="-0.91638">
        <ele>8.5</ele>
        <time>2025-05-06T18:10:37.554Z</time>
      </trkpt>
      <trkpt lat="45.89122" lon="-0.91637">
        <ele>8.9</ele>
        <time>2025-05-06T18:10:43.124Z</time>
      </trkpt>
      <trkpt lat="45.89125" lon="-0.91636">
        <ele>9.2</ele>
        <time>2025-05-06T18:10:47.332Z</time>
      </trkpt>
      <trkpt lat="45.89127" lon="-0.91636">
        <ele>9.4</ele>
        <time>2025-05-06T18:10:50.090Z</time>
      </trkpt>
      <trkpt lat="45.89127" lon="-0.91636">
        <ele>9.4</ele>
        <time>2025-05-06T18:10:50.090Z</time>
      </trkpt>
      <trkpt lat="45.89127" lon="-0.91636">
        <ele>9.4</ele>
        <time>2025-05-06T18:10:50.090Z</time>
      </trkpt>
      <trkpt lat="45.89137" lon="-0.91646">
        <ele>10.3</ele>
        <time>2025-05-06T18:11:05.448Z</time>
      </trkpt>
      <trkpt lat="45.89145" lon="-0.91657">
        <ele>9.8</ele>
        <time>2025-05-06T18:11:15.073Z</time>
      </trkpt>
      <trkpt lat="45.89149" lon="-0.91662">
        <ele>9.4</ele>
        <time>2025-05-06T18:11:19.681Z</time>
      </trkpt>
      <trkpt lat="45.89158" lon="-0.91675">
        <ele>9.8</ele>
        <time>2025-05-06T18:11:33.670Z</time>
      </trkpt>
      <trkpt lat="45.89166" lon="-0.91687">
        <ele>10.2</ele>
        <time>2025-05-06T18:11:46.479Z</time>
      </trkpt>
      <trkpt lat="45.89183" lon="-0.9171">
        <ele>9.5</ele>
        <time>2025-05-06T18:12:07.666Z</time>
      </trkpt>
      <trkpt lat="45.89184" lon="-0.91712">
        <ele>9.5</ele>
        <time>2025-05-06T18:12:09.369Z</time>
      </trkpt>
      <trkpt lat="45.89202" lon="-0.91737">
        <ele>9</ele>
        <time>2025-05-06T18:12:32.773Z</time>
      </trkpt>
      <trkpt lat="45.89206" lon="-0.91742">
        <ele>8.9</ele>
        <time>2025-05-06T18:12:37.746Z</time>
      </trkpt>
      <trkpt lat="45.89219" lon="-0.91734">
        <ele>9</ele>
        <time>2025-05-06T18:12:52.105Z</time>
      </trkpt>
      <trkpt lat="45.89224" lon="-0.91728">
        <ele>9.1</ele>
        <time>2025-05-06T18:12:58.892Z</time>
      </trkpt>
      <trkpt lat="45.89233" lon="-0.91711">
        <ele>9.4</ele>
        <time>2025-05-06T18:13:14.619Z</time>
      </trkpt>
      <trkpt lat="45.89244" lon="-0.91694">
        <ele>9.5</ele>
        <time>2025-05-06T18:13:30.977Z</time>
      </trkpt>
      <trkpt lat="45.89244" lon="-0.91694">
        <ele>9.5</ele>
        <time>2025-05-06T18:13:30.977Z</time>
      </trkpt>
      <trkpt lat="45.89244" lon="-0.91694">
        <ele>9.5</ele>
        <time>2025-05-06T18:13:30.977Z</time>
      </trkpt>
      <trkpt lat="45.89246" lon="-0.917">
        <ele>9.6</ele>
        <time>2025-05-06T18:13:35.897Z</time>
      </trkpt>
      <trkpt lat="45.89249" lon="-0.91707">
        <ele>9.6</ele>
        <time>2025-05-06T18:13:41.581Z</time>
      </trkpt>
      <trkpt lat="45.8925" lon="-0.91712">
        <ele>9.6</ele>
        <time>2025-05-06T18:13:45.178Z</time>
      </trkpt>
      <trkpt lat="45.89251" lon="-0.91717">
        <ele>9.5</ele>
        <time>2025-05-06T18:13:48.486Z</time>
      </trkpt>
      <trkpt lat="45.89252" lon="-0.91721">
        <ele>9.4</ele>
        <time>2025-05-06T18:13:51.140Z</time>
      </trkpt>
      <trkpt lat="45.89253" lon="-0.91724">
        <ele>9.2</ele>
        <time>2025-05-06T18:13:53.152Z</time>
      </trkpt>
      <trkpt lat="45.89253" lon="-0.91728">
        <ele>9</ele>
        <time>2025-05-06T18:13:55.572Z</time>
      </trkpt>
      <trkpt lat="45.89253" lon="-0.9173">
        <ele>8.9</ele>
        <time>2025-05-06T18:13:56.782Z</time>
      </trkpt>
      <trkpt lat="45.89252" lon="-0.91735">
        <ele>8.7</ele>
        <time>2025-05-06T18:13:59.929Z</time>
      </trkpt>
      <trkpt lat="45.89251" lon="-0.91739">
        <ele>8.6</ele>
        <time>2025-05-06T18:14:02.583Z</time>
      </trkpt>
      <trkpt lat="45.89249" lon="-0.91745">
        <ele>8.3</ele>
        <time>2025-05-06T18:14:06.608Z</time>
      </trkpt>
      <trkpt lat="45.89249" lon="-0.9175">
        <ele>7.9</ele>
        <time>2025-05-06T18:14:09.633Z</time>
      </trkpt>
      <trkpt lat="45.8925" lon="-0.91754">
        <ele>7.6</ele>
        <time>2025-05-06T18:14:12.204Z</time>
      </trkpt>
      <trkpt lat="45.89251" lon="-0.91757">
        <ele>7.2</ele>
        <time>2025-05-06T18:14:14.216Z</time>
      </trkpt>
      <trkpt lat="45.89251" lon="-0.9176">
        <ele>6.9</ele>
        <time>2025-05-06T18:14:16.031Z</time>
      </trkpt>
      <trkpt lat="45.89254" lon="-0.91766">
        <ele>6.1</ele>
        <time>2025-05-06T18:14:20.500Z</time>
      </trkpt>
      <trkpt lat="45.89256" lon="-0.91771">
        <ele>5.5</ele>
        <time>2025-05-06T18:14:23.989Z</time>
      </trkpt>
      <trkpt lat="45.89259" lon="-0.91774">
        <ele>4.9</ele>
        <time>2025-05-06T18:14:27.166Z</time>
      </trkpt>
      <trkpt lat="45.89264" lon="-0.91779">
        <ele>4.1</ele>
        <time>2025-05-06T18:14:32.461Z</time>
      </trkpt>
      <trkpt lat="45.89264" lon="-0.91779">
        <ele>4.1</ele>
        <time>2025-05-06T18:14:32.461Z</time>
      </trkpt>
      <trkpt lat="45.89264" lon="-0.91779">
        <ele>4.1</ele>
        <time>2025-05-06T18:14:32.461Z</time>
      </trkpt>
      <trkpt lat="45.89262" lon="-0.91766">
        <ele>4.9</ele>
        <time>2025-05-06T18:14:44.648Z</time>
      </trkpt>
      <trkpt lat="45.89262" lon="-0.9176">
        <ele>5.3</ele>
        <time>2025-05-06T18:14:50.322Z</time>
      </trkpt>
      <trkpt lat="45.89263" lon="-0.91754">
        <ele>5.5</ele>
        <time>2025-05-06T18:14:55.266Z</time>
      </trkpt>
      <trkpt lat="45.89267" lon="-0.91747">
        <ele>5</ele>
        <time>2025-05-06T18:15:00.746Z</time>
      </trkpt>
      <trkpt lat="45.89271" lon="-0.9174">
        <ele>4.1</ele>
        <time>2025-05-06T18:15:06.225Z</time>
      </trkpt>
      <trkpt lat="45.89276" lon="-0.91731">
        <ele>3.2</ele>
        <time>2025-05-06T18:15:13.191Z</time>
      </trkpt>
      <trkpt lat="45.89278" lon="-0.91723">
        <ele>3.1</ele>
        <time>2025-05-06T18:15:18.773Z</time>
      </trkpt>
      <trkpt lat="45.89278" lon="-0.91718">
        <ele>3.2</ele>
        <time>2025-05-06T18:15:22.556Z</time>
      </trkpt>
      <trkpt lat="45.89277" lon="-0.91717">
        <ele>3.3</ele>
        <time>2025-05-06T18:15:24.135Z</time>
      </trkpt>
      <trkpt lat="45.89274" lon="-0.91732">
        <ele>3.6</ele>
        <time>2025-05-06T18:15:35.901Z</time>
      </trkpt>
      <trkpt lat="45.89265" lon="-0.91747">
        <ele>5.4</ele>
        <time>2025-05-06T18:15:57.089Z</time>
      </trkpt>
      <trkpt lat="45.8926" lon="-0.91763">
        <ele>5.4</ele>
        <time>2025-05-06T18:16:09.215Z</time>
      </trkpt>
      <trkpt lat="45.89262" lon="-0.91778">
        <ele>4.4</ele>
        <time>2025-05-06T18:16:18.455Z</time>
      </trkpt>
      <trkpt lat="45.89262" lon="-0.91778">
        <ele>4.4</ele>
        <time>2025-05-06T18:16:18.455Z</time>
      </trkpt>
      <trkpt lat="45.89262" lon="-0.91778">
        <ele>4.4</ele>
        <time>2025-05-06T18:16:18.455Z</time>
      </trkpt>
      <trkpt lat="45.89269" lon="-0.91799">
        <ele>4</ele>
        <time>2025-05-06T18:16:33.392Z</time>
      </trkpt>
      <trkpt lat="45.89269" lon="-0.91799">
        <ele>4</ele>
        <time>2025-05-06T18:16:33.392Z</time>
      </trkpt>
      <trkpt lat="45.89269" lon="-0.91799">
        <ele>4</ele>
        <time>2025-05-06T18:16:33.392Z</time>
      </trkpt>
      <trkpt lat="45.89272" lon="-0.91817">
        <ele>3.8</ele>
        <time>2025-05-06T18:16:45.598Z</time>
      </trkpt>
      <trkpt lat="45.89274" lon="-0.91832">
        <ele>3.6</ele>
        <time>2025-05-06T18:16:55.570Z</time>
      </trkpt>
      <trkpt lat="45.89278" lon="-0.91845">
        <ele>3.5</ele>
        <time>2025-05-06T18:17:05.098Z</time>
      </trkpt>
      <trkpt lat="45.89282" lon="-0.91857">
        <ele>3.3</ele>
        <time>2025-05-06T18:17:13.713Z</time>
      </trkpt>
      <trkpt lat="45.89281" lon="-0.91866">
        <ele>3.4</ele>
        <time>2025-05-06T18:17:20.330Z</time>
      </trkpt>
      <trkpt lat="45.89278" lon="-0.91874">
        <ele>3.5</ele>
        <time>2025-05-06T18:17:26.930Z</time>
      </trkpt>
      <trkpt lat="45.89272" lon="-0.91882">
        <ele>3.6</ele>
        <time>2025-05-06T18:17:35.375Z</time>
      </trkpt>
      <trkpt lat="45.8927" lon="-0.91892">
        <ele>3.5</ele>
        <time>2025-05-06T18:17:42.272Z</time>
      </trkpt>
      <trkpt lat="45.89271" lon="-0.91903">
        <ele>3.1</ele>
        <time>2025-05-06T18:17:48.983Z</time>
      </trkpt>
      <trkpt lat="45.89278" lon="-0.9192">
        <ele>2.7</ele>
        <time>2025-05-06T18:18:01.489Z</time>
      </trkpt>
      <trkpt lat="45.89286" lon="-0.91934">
        <ele>2.7</ele>
        <time>2025-05-06T18:18:14.013Z</time>
      </trkpt>
      <trkpt lat="45.8929" lon="-0.91941">
        <ele>2.8</ele>
        <time>2025-05-06T18:18:20.592Z</time>
      </trkpt>
      <trkpt lat="45.89295" lon="-0.91945">
        <ele>2.8</ele>
        <time>2025-05-06T18:18:26.276Z</time>
      </trkpt>
      <trkpt lat="45.89299" lon="-0.91947">
        <ele>3</ele>
        <time>2025-05-06T18:18:31.163Z</time>
      </trkpt>
      <trkpt lat="45.89304" lon="-0.91947">
        <ele>3.2</ele>
        <time>2025-05-06T18:18:36.798Z</time>
      </trkpt>
      <trkpt lat="45.89308" lon="-0.91943">
        <ele>3.4</ele>
        <time>2025-05-06T18:18:42.310Z</time>
      </trkpt>
      <trkpt lat="45.89312" lon="-0.91939">
        <ele>3.5</ele>
        <time>2025-05-06T18:18:47.471Z</time>
      </trkpt>
      <trkpt lat="45.89321" lon="-0.91931">
        <ele>3.4</ele>
        <time>2025-05-06T18:18:57.684Z</time>
      </trkpt>
      <trkpt lat="45.89334" lon="-0.91924">
        <ele>3.1</ele>
        <time>2025-05-06T18:19:10.599Z</time>
      </trkpt>
      <trkpt lat="45.89342" lon="-0.91921">
        <ele>3.1</ele>
        <time>2025-05-06T18:19:18.812Z</time>
      </trkpt>
      <trkpt lat="45.89342" lon="-0.91921">
        <ele>3.1</ele>
        <time>2025-05-06T18:19:18.812Z</time>
      </trkpt>
      <trkpt lat="45.89342" lon="-0.91921">
        <ele>3.1</ele>
        <time>2025-05-06T18:19:18.812Z</time>
      </trkpt>
      <trkpt lat="45.89351" lon="-0.91938">
        <ele>3.4</ele>
        <time>2025-05-06T18:19:34.538Z</time>
      </trkpt>
      <trkpt lat="45.89342" lon="-0.91921">
        <ele>3.1</ele>
        <time>2025-05-06T18:19:48.426Z</time>
      </trkpt>
      <trkpt lat="45.89342" lon="-0.91921">
        <ele>3.1</ele>
        <time>2025-05-06T18:19:48.426Z</time>
      </trkpt>
      <trkpt lat="45.89342" lon="-0.91921">
        <ele>3.1</ele>
        <time>2025-05-06T18:19:48.426Z</time>
      </trkpt>
      <trkpt lat="45.89347" lon="-0.9192">
        <ele>3.2</ele>
        <time>2025-05-06T18:19:53.760Z</time>
      </trkpt>
      <trkpt lat="45.89358" lon="-0.91913">
        <ele>3.6</ele>
        <time>2025-05-06T18:20:07.028Z</time>
      </trkpt>
      <trkpt lat="45.89383" lon="-0.91888">
        <ele>3.6</ele>
        <time>2025-05-06T18:20:37.285Z</time>
      </trkpt>
      <trkpt lat="45.89408" lon="-0.91862">
        <ele>3.5</ele>
        <time>2025-05-06T18:21:07.638Z</time>
      </trkpt>
      <trkpt lat="45.89413" lon="-0.91856">
        <ele>3.4</ele>
        <time>2025-05-06T18:21:13.814Z</time>
      </trkpt>
      <trkpt lat="45.89414" lon="-0.91852">
        <ele>3.4</ele>
        <time>2025-05-06T18:21:16.752Z</time>
      </trkpt>
      <trkpt lat="45.89414" lon="-0.91852">
        <ele>3.4</ele>
        <time>2025-05-06T18:21:16.752Z</time>
      </trkpt>
      <trkpt lat="45.89414" lon="-0.91852">
        <ele>3.4</ele>
        <time>2025-05-06T18:21:16.752Z</time>
      </trkpt>
      <trkpt lat="45.89422" lon="-0.91851">
        <ele>3.7</ele>
        <time>2025-05-06T18:21:25.726Z</time>
      </trkpt>
      <trkpt lat="45.89441" lon="-0.91829">
        <ele>4.4</ele>
        <time>2025-05-06T18:21:52.246Z</time>
      </trkpt>
      <trkpt lat="45.8946" lon="-0.91807">
        <ele>6</ele>
        <time>2025-05-06T18:22:22.160Z</time>
      </trkpt>
      <trkpt lat="45.89482" lon="-0.91798">
        <ele>10.5</ele>
        <time>2025-05-06T18:23:07.260Z</time>
      </trkpt>
      <trkpt lat="45.89507" lon="-0.91794">
        <ele>10.3</ele>
        <time>2025-05-06T18:23:31.646Z</time>
      </trkpt>
      <trkpt lat="45.89542" lon="-0.91781">
        <ele>10</ele>
        <time>2025-05-06T18:24:06.656Z</time>
      </trkpt>
      <trkpt lat="45.89577" lon="-0.91768">
        <ele>10.7</ele>
        <time>2025-05-06T18:24:44.800Z</time>
      </trkpt>
      <trkpt lat="45.896" lon="-0.9176">
        <ele>10.3</ele>
        <time>2025-05-06T18:25:07.128Z</time>
      </trkpt>
      <trkpt lat="45.89623" lon="-0.91751">
        <ele>11.2</ele>
        <time>2025-05-06T18:25:33.800Z</time>
      </trkpt>
      <trkpt lat="45.89646" lon="-0.91755">
        <ele>11.3</ele>
        <time>2025-05-06T18:25:57.122Z</time>
      </trkpt>
      <trkpt lat="45.89669" lon="-0.91749">
        <ele>11.8</ele>
        <time>2025-05-06T18:26:21.946Z</time>
      </trkpt>
      <trkpt lat="45.89702" lon="-0.91737">
        <ele>12.3</ele>
        <time>2025-05-06T18:26:57.339Z</time>
      </trkpt>
      <trkpt lat="45.89734" lon="-0.91725">
        <ele>11.6</ele>
        <time>2025-05-06T18:27:28.145Z</time>
      </trkpt>
      <trkpt lat="45.89754" lon="-0.91712">
        <ele>11.4</ele>
        <time>2025-05-06T18:27:49.351Z</time>
      </trkpt>
      <trkpt lat="45.89761" lon="-0.91696">
        <ele>11.2</ele>
        <time>2025-05-06T18:28:01.825Z</time>
      </trkpt>
      <trkpt lat="45.89761" lon="-0.91696">
        <ele>11.2</ele>
        <time>2025-05-06T18:28:01.825Z</time>
      </trkpt>
      <trkpt lat="45.89761" lon="-0.91696">
        <ele>11.2</ele>
        <time>2025-05-06T18:28:01.825Z</time>
      </trkpt>
      <trkpt lat="45.89766" lon="-0.91697">
        <ele>10.9</ele>
        <time>2025-05-06T18:28:06.213Z</time>
      </trkpt>
      <trkpt lat="45.89775" lon="-0.91699">
        <ele>10.3</ele>
        <time>2025-05-06T18:28:14.128Z</time>
      </trkpt>
      <trkpt lat="45.89797" lon="-0.91694">
        <ele>8.6</ele>
        <time>2025-05-06T18:28:33.488Z</time>
      </trkpt>
      <trkpt lat="45.8981" lon="-0.91692">
        <ele>8.4</ele>
        <time>2025-05-06T18:28:45.884Z</time>
      </trkpt>
      <trkpt lat="45.89819" lon="-0.91695">
        <ele>8.2</ele>
        <time>2025-05-06T18:28:54.478Z</time>
      </trkpt>
      <trkpt lat="45.89824" lon="-0.917">
        <ele>8.2</ele>
        <time>2025-05-06T18:29:00.529Z</time>
      </trkpt>
      <trkpt lat="45.8983" lon="-0.91706">
        <ele>8.1</ele>
        <time>2025-05-06T18:29:07.494Z</time>
      </trkpt>
      <trkpt lat="45.8983" lon="-0.91706">
        <ele>8.1</ele>
        <time>2025-05-06T18:29:07.494Z</time>
      </trkpt>
      <trkpt lat="45.8983" lon="-0.91706">
        <ele>8.1</ele>
        <time>2025-05-06T18:29:07.494Z</time>
      </trkpt>
      <trkpt lat="45.89836" lon="-0.91716">
        <ele>8.3</ele>
        <time>2025-05-06T18:29:17.263Z</time>
      </trkpt>
      <trkpt lat="45.8984" lon="-0.91725">
        <ele>8.6</ele>
        <time>2025-05-06T18:29:25.649Z</time>
      </trkpt>
      <trkpt lat="45.8984" lon="-0.91725">
        <ele>8.6</ele>
        <time>2025-05-06T18:29:25.649Z</time>
      </trkpt>
      <trkpt lat="45.8984" lon="-0.91725">
        <ele>8.6</ele>
        <time>2025-05-06T18:29:25.649Z</time>
      </trkpt>
      <trkpt lat="45.89836" lon="-0.91734">
        <ele>8.5</ele>
        <time>2025-05-06T18:29:32.734Z</time>
      </trkpt>
      <trkpt lat="45.8984" lon="-0.91725">
        <ele>8.6</ele>
        <time>2025-05-06T18:29:40.431Z</time>
      </trkpt>
      <trkpt lat="45.8984" lon="-0.91725">
        <ele>8.6</ele>
        <time>2025-05-06T18:29:40.431Z</time>
      </trkpt>
      <trkpt lat="45.8984" lon="-0.91725">
        <ele>8.6</ele>
        <time>2025-05-06T18:29:40.431Z</time>
      </trkpt>
      <trkpt lat="45.89836" lon="-0.91716">
        <ele>8.3</ele>
        <time>2025-05-06T18:29:46.971Z</time>
      </trkpt>
      <trkpt lat="45.8983" lon="-0.91706">
        <ele>8.1</ele>
        <time>2025-05-06T18:29:55.515Z</time>
      </trkpt>
      <trkpt lat="45.8983" lon="-0.91706">
        <ele>8.1</ele>
        <time>2025-05-06T18:29:55.515Z</time>
      </trkpt>
      <trkpt lat="45.8983" lon="-0.91706">
        <ele>8.1</ele>
        <time>2025-05-06T18:29:55.515Z</time>
      </trkpt>
      <trkpt lat="45.89812" lon="-0.91735">
        <ele>7.2</ele>
        <time>2025-05-06T18:30:19.813Z</time>
      </trkpt>
      <trkpt lat="45.89796" lon="-0.91765">
        <ele>6.2</ele>
        <time>2025-05-06T18:30:43.120Z</time>
      </trkpt>
      <trkpt lat="45.89778" lon="-0.91794">
        <ele>6.1</ele>
        <time>2025-05-06T18:31:09.680Z</time>
      </trkpt>
      <trkpt lat="45.89751" lon="-0.9184">
        <ele>6.8</ele>
        <time>2025-05-06T18:31:53.502Z</time>
      </trkpt>
      <trkpt lat="45.89735" lon="-0.91871">
        <ele>4.2</ele>
        <time>2025-05-06T18:32:16.848Z</time>
      </trkpt>
      <trkpt lat="45.8972" lon="-0.91902">
        <ele>6</ele>
        <time>2025-05-06T18:32:49.378Z</time>
      </trkpt>
      <trkpt lat="45.89699" lon="-0.91947">
        <ele>6</ele>
        <time>2025-05-06T18:33:26.835Z</time>
      </trkpt>
      <trkpt lat="45.89679" lon="-0.91992">
        <ele>6.1</ele>
        <time>2025-05-06T18:34:04.055Z</time>
      </trkpt>
      <trkpt lat="45.89661" lon="-0.92034">
        <ele>3.7</ele>
        <time>2025-05-06T18:34:33.893Z</time>
      </trkpt>
      <trkpt lat="45.89644" lon="-0.92077">
        <ele>5.9</ele>
        <time>2025-05-06T18:35:15.854Z</time>
      </trkpt>
      <trkpt lat="45.89626" lon="-0.9212">
        <ele>7.2</ele>
        <time>2025-05-06T18:35:54.862Z</time>
      </trkpt>
      <trkpt lat="45.89614" lon="-0.92147">
        <ele>5.5</ele>
        <time>2025-05-06T18:36:14.242Z</time>
      </trkpt>
      <trkpt lat="45.89602" lon="-0.92175">
        <ele>6</ele>
        <time>2025-05-06T18:36:38.579Z</time>
      </trkpt>
      <trkpt lat="45.89595" lon="-0.9219">
        <ele>5.2</ele>
        <time>2025-05-06T18:36:49.504Z</time>
      </trkpt>
      <trkpt lat="45.89579" lon="-0.92228">
        <ele>7</ele>
        <time>2025-05-06T18:37:26.484Z</time>
      </trkpt>
      <trkpt lat="45.89563" lon="-0.92266">
        <ele>7.1</ele>
        <time>2025-05-06T18:37:57.497Z</time>
      </trkpt>
      <trkpt lat="45.89563" lon="-0.92266">
        <ele>7.1</ele>
        <time>2025-05-06T18:37:57.497Z</time>
      </trkpt>
      <trkpt lat="45.89563" lon="-0.92266">
        <ele>7.1</ele>
        <time>2025-05-06T18:37:57.497Z</time>
      </trkpt>
      <trkpt lat="45.89541" lon="-0.92317">
        <ele>7.8</ele>
        <time>2025-05-06T18:38:41.199Z</time>
      </trkpt>
      <trkpt lat="45.89519" lon="-0.92368">
        <ele>8.3</ele>
        <time>2025-05-06T18:39:24.251Z</time>
      </trkpt>
      <trkpt lat="45.89498" lon="-0.92418">
        <ele>8.2</ele>
        <time>2025-05-06T18:40:04.322Z</time>
      </trkpt>
      <trkpt lat="45.89476" lon="-0.92469">
        <ele>7.7</ele>
        <time>2025-05-06T18:40:44.315Z</time>
      </trkpt>
      <trkpt lat="45.8947" lon="-0.92483">
        <ele>7.9</ele>
        <time>2025-05-06T18:40:56.317Z</time>
      </trkpt>
      <trkpt lat="45.89454" lon="-0.9252">
        <ele>8.7</ele>
        <time>2025-05-06T18:41:29.026Z</time>
      </trkpt>
      <trkpt lat="45.89433" lon="-0.92571">
        <ele>9</ele>
        <time>2025-05-06T18:42:10.926Z</time>
      </trkpt>
      <trkpt lat="45.89411" lon="-0.92622">
        <ele>9.2</ele>
        <time>2025-05-06T18:42:53.027Z</time>
      </trkpt>
      <trkpt lat="45.89389" lon="-0.92673">
        <ele>10.7</ele>
        <time>2025-05-06T18:43:39.477Z</time>
      </trkpt>
      <trkpt lat="45.89368" lon="-0.92724">
        <ele>10.8</ele>
        <time>2025-05-06T18:44:20.753Z</time>
      </trkpt>
      <trkpt lat="45.89346" lon="-0.92775">
        <ele>10.2</ele>
        <time>2025-05-06T18:45:00.458Z</time>
      </trkpt>
      <trkpt lat="45.89324" lon="-0.92826">
        <ele>7.6</ele>
        <time>2025-05-06T18:45:36.756Z</time>
      </trkpt>
      <trkpt lat="45.89309" lon="-0.92858">
        <ele>8.3</ele>
        <time>2025-05-06T18:46:05.697Z</time>
      </trkpt>
      <trkpt lat="45.89294" lon="-0.9289">
        <ele>6.5</ele>
        <time>2025-05-06T18:46:29.037Z</time>
      </trkpt>
      <trkpt lat="45.89267" lon="-0.9294">
        <ele>4</ele>
        <time>2025-05-06T18:47:07.322Z</time>
      </trkpt>
      <trkpt lat="45.8924" lon="-0.92989">
        <ele>4.3</ele>
        <time>2025-05-06T18:47:51.463Z</time>
      </trkpt>
      <trkpt lat="45.89213" lon="-0.93039">
        <ele>4.4</ele>
        <time>2025-05-06T18:48:35.524Z</time>
      </trkpt>
      <trkpt lat="45.89186" lon="-0.93088">
        <ele>4.7</ele>
        <time>2025-05-06T18:49:19.666Z</time>
      </trkpt>
      <trkpt lat="45.89159" lon="-0.93137">
        <ele>4.2</ele>
        <time>2025-05-06T18:50:01.384Z</time>
      </trkpt>
      <trkpt lat="45.89132" lon="-0.93187">
        <ele>3.9</ele>
        <time>2025-05-06T18:50:44.235Z</time>
      </trkpt>
      <trkpt lat="45.89105" lon="-0.93236">
        <ele>3.6</ele>
        <time>2025-05-06T18:51:26.541Z</time>
      </trkpt>
      <trkpt lat="45.89078" lon="-0.93286">
        <ele>3.4</ele>
        <time>2025-05-06T18:52:09.691Z</time>
      </trkpt>
      <trkpt lat="45.89051" lon="-0.93335">
        <ele>3.6</ele>
        <time>2025-05-06T18:52:53.519Z</time>
      </trkpt>
      <trkpt lat="45.89051" lon="-0.93335">
        <ele>3.6</ele>
        <time>2025-05-06T18:52:53.519Z</time>
      </trkpt>
      <trkpt lat="45.89051" lon="-0.93335">
        <ele>3.6</ele>
        <time>2025-05-06T18:52:53.519Z</time>
      </trkpt>
      <trkpt lat="45.89037" lon="-0.9336">
        <ele>4</ele>
        <time>2025-05-06T18:53:16.977Z</time>
      </trkpt>
      <trkpt lat="45.89029" lon="-0.93375">
        <ele>3.9</ele>
        <time>2025-05-06T18:53:29.742Z</time>
      </trkpt>
      <trkpt lat="45.89029" lon="-0.93375">
        <ele>3.9</ele>
        <time>2025-05-06T18:53:29.742Z</time>
      </trkpt>
      <trkpt lat="45.89029" lon="-0.93375">
        <ele>3.9</ele>
        <time>2025-05-06T18:53:29.742Z</time>
      </trkpt>
      <trkpt lat="45.89003" lon="-0.93425">
        <ele>3.4</ele>
        <time>2025-05-06T18:54:11.403Z</time>
      </trkpt>
      <trkpt lat="45.88976" lon="-0.93474">
        <ele>3.4</ele>
        <time>2025-05-06T18:54:54.615Z</time>
      </trkpt>
      <trkpt lat="45.88949" lon="-0.93524">
        <ele>3.8</ele>
        <time>2025-05-06T18:55:39.618Z</time>
      </trkpt>
      <trkpt lat="45.88922" lon="-0.93573">
        <ele>4.2</ele>
        <time>2025-05-06T18:56:24.077Z</time>
      </trkpt>
      <trkpt lat="45.88895" lon="-0.93623">
        <ele>4</ele>
        <time>2025-05-06T18:57:07.227Z</time>
      </trkpt>
      <trkpt lat="45.88869" lon="-0.93664">
        <ele>3.8</ele>
        <time>2025-05-06T18:57:44.972Z</time>
      </trkpt>
      <trkpt lat="45.88842" lon="-0.93704">
        <ele>4.4</ele>
        <time>2025-05-06T18:58:25.397Z</time>
      </trkpt>
      <trkpt lat="45.88816" lon="-0.93737">
        <ele>4.3</ele>
        <time>2025-05-06T18:58:59.556Z</time>
      </trkpt>
      <trkpt lat="45.88788" lon="-0.93768">
        <ele>3.6</ele>
        <time>2025-05-06T18:59:32.619Z</time>
      </trkpt>
      <trkpt lat="45.88766" lon="-0.93789">
        <ele>3.7</ele>
        <time>2025-05-06T18:59:59.166Z</time>
      </trkpt>
      <trkpt lat="45.88745" lon="-0.9381">
        <ele>4.1</ele>
        <time>2025-05-06T19:00:25.848Z</time>
      </trkpt>
      <trkpt lat="45.88708" lon="-0.93845">
        <ele>3.9</ele>
        <time>2025-05-06T19:01:09.249Z</time>
      </trkpt>
      <trkpt lat="45.88671" lon="-0.9388">
        <ele>4</ele>
        <time>2025-05-06T19:01:53.564Z</time>
      </trkpt>
      <trkpt lat="45.88634" lon="-0.93915">
        <ele>3.7</ele>
        <time>2025-05-06T19:02:36.666Z</time>
      </trkpt>
      <trkpt lat="45.88597" lon="-0.9395">
        <ele>4</ele>
        <time>2025-05-06T19:03:21.604Z</time>
      </trkpt>
      <trkpt lat="45.8856" lon="-0.93985">
        <ele>4.5</ele>
        <time>2025-05-06T19:04:07.178Z</time>
      </trkpt>
      <trkpt lat="45.88523" lon="-0.9402">
        <ele>3.7</ele>
        <time>2025-05-06T19:04:48.832Z</time>
      </trkpt>
      <trkpt lat="45.88486" lon="-0.94055">
        <ele>3.9</ele>
        <time>2025-05-06T19:05:33.456Z</time>
      </trkpt>
      <trkpt lat="45.88449" lon="-0.9409">
        <ele>3.3</ele>
        <time>2025-05-06T19:06:15.682Z</time>
      </trkpt>
      <trkpt lat="45.88412" lon="-0.94125">
        <ele>3.6</ele>
        <time>2025-05-06T19:07:00.620Z</time>
      </trkpt>
      <trkpt lat="45.88375" lon="-0.9416">
        <ele>4</ele>
        <time>2025-05-06T19:07:45.875Z</time>
      </trkpt>
      <trkpt lat="45.88338" lon="-0.94195">
        <ele>4</ele>
        <time>2025-05-06T19:08:29.882Z</time>
      </trkpt>
      <trkpt lat="45.88301" lon="-0.9423">
        <ele>4.3</ele>
        <time>2025-05-06T19:09:14.821Z</time>
      </trkpt>
      <trkpt lat="45.88264" lon="-0.94265">
        <ele>4.3</ele>
        <time>2025-05-06T19:09:58.829Z</time>
      </trkpt>
      <trkpt lat="45.88227" lon="-0.943">
        <ele>3.5</ele>
        <time>2025-05-06T19:10:40.483Z</time>
      </trkpt>
      <trkpt lat="45.8819" lon="-0.94335">
        <ele>3.3</ele>
        <time>2025-05-06T19:11:23.885Z</time>
      </trkpt>
      <trkpt lat="45.88153" lon="-0.9437">
        <ele>3.5</ele>
        <time>2025-05-06T19:12:08.511Z</time>
      </trkpt>
      <trkpt lat="45.88116" lon="-0.94405">
        <ele>3.5</ele>
        <time>2025-05-06T19:12:52.519Z</time>
      </trkpt>
      <trkpt lat="45.88079" lon="-0.9444">
        <ele>4</ele>
        <time>2025-05-06T19:13:38.094Z</time>
      </trkpt>
      <trkpt lat="45.88042" lon="-0.94475">
        <ele>3.7</ele>
        <time>2025-05-06T19:14:21.198Z</time>
      </trkpt>
      <trkpt lat="45.88006" lon="-0.9451">
        <ele>3.2</ele>
        <time>2025-05-06T19:15:02.889Z</time>
      </trkpt>
      <trkpt lat="45.87969" lon="-0.94545">
        <ele>3.3</ele>
        <time>2025-05-06T19:15:47.205Z</time>
      </trkpt>
      <trkpt lat="45.87932" lon="-0.9458">
        <ele>3.4</ele>
        <time>2025-05-06T19:16:31.521Z</time>
      </trkpt>
      <trkpt lat="45.87895" lon="-0.94615">
        <ele>4.3</ele>
        <time>2025-05-06T19:17:18.407Z</time>
      </trkpt>
      <trkpt lat="45.87868" lon="-0.94648">
        <ele>4.4</ele>
        <time>2025-05-06T19:17:53.931Z</time>
      </trkpt>
      <trkpt lat="45.8785" lon="-0.94673">
        <ele>4.2</ele>
        <time>2025-05-06T19:18:18.202Z</time>
      </trkpt>
      <trkpt lat="45.87833" lon="-0.94699">
        <ele>3.3</ele>
        <time>2025-05-06T19:18:40.319Z</time>
      </trkpt>
      <trkpt lat="45.87817" lon="-0.94726">
        <ele>3.9</ele>
        <time>2025-05-06T19:19:06.776Z</time>
      </trkpt>
      <trkpt lat="45.87807" lon="-0.94745">
        <ele>4.5</ele>
        <time>2025-05-06T19:19:25.236Z</time>
      </trkpt>
      <trkpt lat="45.87807" lon="-0.94745">
        <ele>4.5</ele>
        <time>2025-05-06T19:19:25.236Z</time>
      </trkpt>
      <trkpt lat="45.87807" lon="-0.94745">
        <ele>4.5</ele>
        <time>2025-05-06T19:19:25.236Z</time>
      </trkpt>
      <trkpt lat="45.87809" lon="-0.94758">
        <ele>4.2</ele>
        <time>2025-05-06T19:19:33.586Z</time>
      </trkpt>
      <trkpt lat="45.8781" lon="-0.94765">
        <ele>4</ele>
        <time>2025-05-06T19:19:37.966Z</time>
      </trkpt>
      <trkpt lat="45.87809" lon="-0.94765">
        <ele>4.1</ele>
        <time>2025-05-06T19:19:39.345Z</time>
      </trkpt>
      <trkpt lat="45.87809" lon="-0.94759">
        <ele>4.2</ele>
        <time>2025-05-06T19:19:43.817Z</time>
      </trkpt>
      <trkpt lat="45.87807" lon="-0.94746">
        <ele>4.4</ele>
        <time>2025-05-06T19:19:53.665Z</time>
      </trkpt>
      <trkpt lat="45.87807" lon="-0.94746">
        <ele>4.4</ele>
        <time>2025-05-06T19:19:53.665Z</time>
      </trkpt>
      <trkpt lat="45.87807" lon="-0.94746">
        <ele>4.4</ele>
        <time>2025-05-06T19:19:53.665Z</time>
      </trkpt>
      <trkpt lat="45.87795" lon="-0.94773">
        <ele>5.1</ele>
        <time>2025-05-06T19:20:18.112Z</time>
      </trkpt>
      <trkpt lat="45.87782" lon="-0.94803">
        <ele>3.9</ele>
        <time>2025-05-06T19:20:39.495Z</time>
      </trkpt>
      <trkpt lat="45.8777" lon="-0.94835">
        <ele>4.5</ele>
        <time>2025-05-06T19:21:06.565Z</time>
      </trkpt>
      <trkpt lat="45.8776" lon="-0.94865">
        <ele>3.7</ele>
        <time>2025-05-06T19:21:27.293Z</time>
      </trkpt>
      <trkpt lat="45.87759" lon="-0.94869">
        <ele>3.9</ele>
        <time>2025-05-06T19:21:30.945Z</time>
      </trkpt>
      <trkpt lat="45.87758" lon="-0.94872">
        <ele>4.1</ele>
        <time>2025-05-06T19:21:33.991Z</time>
      </trkpt>
      <trkpt lat="45.87749" lon="-0.94905">
        <ele>5.8</ele>
        <time>2025-05-06T19:22:04.578Z</time>
      </trkpt>
      <trkpt lat="45.87743" lon="-0.94934">
        <ele>5.8</ele>
        <time>2025-05-06T19:22:25.501Z</time>
      </trkpt>
      <trkpt lat="45.87741" lon="-0.94941">
        <ele>5.5</ele>
        <time>2025-05-06T19:22:30.080Z</time>
      </trkpt>
      <trkpt lat="45.87735" lon="-0.94972">
        <ele>5.5</ele>
        <time>2025-05-06T19:22:52.332Z</time>
      </trkpt>
      <trkpt lat="45.87728" lon="-0.95023">
        <ele>6.1</ele>
        <time>2025-05-06T19:23:30.184Z</time>
      </trkpt>
      <trkpt lat="45.8772" lon="-0.95073">
        <ele>6.3</ele>
        <time>2025-05-06T19:24:06.283Z</time>
      </trkpt>
      <trkpt lat="45.87715" lon="-0.95108">
        <ele>6.4</ele>
        <time>2025-05-06T19:24:31.302Z</time>
      </trkpt>
      <trkpt lat="45.8771" lon="-0.95143">
        <ele>6.3</ele>
        <time>2025-05-06T19:24:55.708Z</time>
      </trkpt>
      <trkpt lat="45.8771" lon="-0.95143">
        <ele>6.3</ele>
        <time>2025-05-06T19:24:55.708Z</time>
      </trkpt>
      <trkpt lat="45.8771" lon="-0.95143">
        <ele>6.3</ele>
        <time>2025-05-06T19:24:55.708Z</time>
      </trkpt>
      <trkpt lat="45.87687" lon="-0.95127">
        <ele>7.3</ele>
        <time>2025-05-06T19:25:24.429Z</time>
      </trkpt>
      <trkpt lat="45.87693" lon="-0.95114">
        <ele>7.2</ele>
        <time>2025-05-06T19:25:34.916Z</time>
      </trkpt>
      <trkpt lat="45.8771" lon="-0.95079">
        <ele>7</ele>
        <time>2025-05-06T19:26:03.828Z</time>
      </trkpt>
      <trkpt lat="45.87675" lon="-0.95058">
        <ele>8.7</ele>
        <time>2025-05-06T19:26:47.251Z</time>
      </trkpt>
      <trkpt lat="45.87672" lon="-0.95056">
        <ele>8.7</ele>
        <time>2025-05-06T19:26:50.537Z</time>
      </trkpt>
      <trkpt lat="45.87646" lon="-0.95036">
        <ele>9.2</ele>
        <time>2025-05-06T19:27:21.422Z</time>
      </trkpt>
      <trkpt lat="45.87645" lon="-0.95032">
        <ele>9.3</ele>
        <time>2025-05-06T19:27:24.690Z</time>
      </trkpt>
      <trkpt lat="45.87638" lon="-0.95032">
        <ele>9.5</ele>
        <time>2025-05-06T19:27:32.295Z</time>
      </trkpt>
      <trkpt lat="45.87634" lon="-0.95032">
        <ele>9.6</ele>
        <time>2025-05-06T19:27:36.592Z</time>
      </trkpt>
      <trkpt lat="45.87625" lon="-0.95029">
        <ele>9.8</ele>
        <time>2025-05-06T19:27:46.411Z</time>
      </trkpt>
      <trkpt lat="45.8762" lon="-0.95028">
        <ele>9.9</ele>
        <time>2025-05-06T19:27:51.745Z</time>
      </trkpt>
      <trkpt lat="45.87612" lon="-0.95028">
        <ele>9.9</ele>
        <time>2025-05-06T19:27:59.692Z</time>
      </trkpt>
      <trkpt lat="45.87605" lon="-0.9503">
        <ele>10</ele>
        <time>2025-05-06T19:28:07.097Z</time>
      </trkpt>
      <trkpt lat="45.876" lon="-0.95034">
        <ele>10.1</ele>
        <time>2025-05-06T19:28:13.100Z</time>
      </trkpt>
      <trkpt lat="45.87596" lon="-0.95039">
        <ele>10.2</ele>
        <time>2025-05-06T19:28:18.686Z</time>
      </trkpt>
      <trkpt lat="45.87592" lon="-0.95046">
        <ele>10.4</ele>
        <time>2025-05-06T19:28:25.605Z</time>
      </trkpt>
      <trkpt lat="45.87582" lon="-0.95067">
        <ele>10.2</ele>
        <time>2025-05-06T19:28:42.604Z</time>
      </trkpt>
      <trkpt lat="45.87572" lon="-0.95086">
        <ele>10.1</ele>
        <time>2025-05-06T19:28:58.775Z</time>
      </trkpt>
    </trkseg>
  </trk>
</gpx>